Date StartTime U_cm/s V_cm/s W_cm/s Ustd_cm/s Vstd_cm/s Wstd_cm/s Uvar_(cm/s)^2 Vvar_(cm/s)^2 Wvar_(cm/s)^2 KE_(m/s)^2 TurbulentKE_(m/s)^2 HorizWindSpeed_cm/s FrictionSpeec_cm/s DragCoef SpeedOfSound_m/s SonicTemperature_C Pressure_mb 
09/14/2013  00:00:00      -73.666      -28.906       -4.859       18.471       15.704       12.240      341.189      246.630      149.814        0.351        0.037       79.134        2.289        0.001      342.792       18.450      858.669
09/14/2013  00:01:00      -82.472      -43.357      -14.507       21.271       19.181       11.712      452.457      367.928      137.160        0.492        0.048       93.174        6.576        0.005      342.688       18.272      858.661
09/14/2013  00:02:00      -85.296      -34.454       -6.628       27.173       14.282        9.270      738.378      203.975       85.938        0.477        0.051       91.992        7.819        0.007      342.687       18.269      858.656
09/14/2013  00:03:00     -112.414      -23.750       -9.302       14.120       12.057       11.666      199.374      145.361      136.091        0.688        0.024      114.895        8.186        0.005      342.678       18.255      858.657
09/14/2013  00:04:00      -96.704      -34.029       -3.460       13.592       11.699        5.961      184.752      136.870       35.537        0.544        0.018      102.517        3.160        0.001      342.672       18.245      858.655
09/14/2013  00:05:00      -54.468      -30.738        3.618       24.783       10.706       10.965      614.177      114.616      120.241        0.239        0.042       62.543       11.846        0.036      342.677       18.253      858.646
09/14/2013  00:06:00      -22.898      -24.782       -1.012       11.445       13.948        9.399      130.982      194.543       88.343        0.078        0.021       33.741        3.977        0.014      342.722       18.330      858.625
09/14/2013  00:07:00      -39.395      -16.621       -1.325       20.946       11.289        8.178      438.745      127.450       66.876        0.123        0.032       42.757        9.929        0.054      342.789       18.443      858.615
09/14/2013  00:08:00      -62.764      -17.781       -1.671       17.369       11.603       11.310      301.683      134.621      127.924        0.241        0.028       65.234        6.571        0.010      342.761       18.397      858.613
09/14/2013  00:09:00      -75.124       -2.381       -3.751       17.398       11.553        8.391      302.675      133.462       70.403        0.308        0.025       75.161        5.661        0.006      342.714       18.318      858.620
09/14/2013  00:10:00      -67.242        7.069       -4.826       11.214       14.595        8.200      125.744      213.000       67.235        0.250        0.020       67.613        4.453        0.004      342.656       18.218      858.616
09/14/2013  00:11:00      -49.180       12.094       -5.199       13.802        9.686        6.191      190.485       93.823       38.328        0.146        0.016       50.645        3.515        0.005      342.718       18.322      858.616
09/14/2013  00:12:00      -42.290       -1.877        0.754       14.726       11.291        7.221      216.863      127.481       52.147        0.109        0.020       42.332        6.016        0.020      342.705       18.302      858.617
09/14/2013  00:13:00      -27.761       -4.333       -1.548        8.893       10.128        8.068       79.080      102.576       65.085        0.052        0.012       28.098        2.698        0.009      342.709       18.309      858.629
09/14/2013  00:14:00      -13.702      -10.726       -2.792       10.697        9.978        4.692      114.435       99.566       22.012        0.027        0.012       17.401        2.566        0.022      342.753       18.383      858.647
09/14/2013  00:15:00      -10.008       -9.604       -0.583        8.697        7.913        4.920       75.638       62.621       24.211        0.018        0.008       13.871        3.473        0.063      342.715       18.318      858.665
09/14/2013  00:16:00      -31.193       -4.930        1.900       19.458        9.389       10.237      378.598       88.156      104.798        0.079        0.029       31.580       12.375        0.154      342.644       18.200      858.663
09/14/2013  00:17:00      -61.353      -24.117       -5.005       12.734       11.311        7.068      162.152      127.949       49.952        0.236        0.017       65.923        4.469        0.005      342.579       18.086      858.663
09/14/2013  00:18:00      -64.256      -27.920       -4.681        9.300       11.107        6.308       86.489      123.355       39.792        0.259        0.012       70.059        3.935        0.003      342.606       18.133      858.656
09/14/2013  00:19:00      -68.720      -23.681       -2.828       19.902       12.466        8.137      396.109      155.401       66.208        0.295        0.031       72.685        5.716        0.006      342.616       18.149      858.657
09/14/2013  00:20:00      -74.275      -32.651       -5.684        8.908       10.242        7.132       79.360      104.893       50.863        0.343        0.012       81.134        4.205        0.003      342.598       18.119      858.656
09/14/2013  00:21:00      -49.296      -19.024        0.288       16.378        9.458        7.683      268.232       89.447       59.022        0.160        0.021       52.840        6.993        0.018      342.549       18.037      858.648
09/14/2013  00:22:00      -53.726       -8.039       -2.080       19.171       10.510        8.585      367.522      110.462       73.704        0.175        0.028       54.324        9.538        0.031      342.549       18.037      858.643
09/14/2013  00:23:00      -79.851      -13.564       -7.543       12.796       13.609        8.981      163.729      185.206       80.664        0.352        0.021       80.995        3.259        0.002      342.575       18.082      858.640
09/14/2013  00:24:00      -84.848        8.014       -1.705       15.524       11.453       11.646      241.002      131.168      135.637        0.389        0.025       85.225        8.940        0.011      342.536       18.015      858.647
09/14/2013  00:25:00      -72.928       10.841       -6.931       19.109       13.629        9.118      365.145      185.761       83.134        0.306        0.032       73.729        4.462        0.004      342.510       17.970      858.647
09/14/2013  00:26:00      -55.972      -12.426       -7.134       16.501       12.360       11.509      272.281      152.781      132.467        0.195        0.028       57.334       10.933        0.036      342.515       17.979      858.643
09/14/2013  00:27:00      -70.562       -0.223       -7.975       24.080       12.450       10.440      579.864      155.011      108.997        0.294        0.042       70.563        9.870        0.020      342.441       17.852      858.644
09/14/2013  00:28:00      -53.939       -2.020       -4.039       17.084       15.490        9.668      291.853      239.949       93.470        0.178        0.031       53.977        8.295        0.024      342.394       17.772      858.640
09/14/2013  00:29:00      -37.947       -3.071       -6.174       10.425       11.679        7.803      108.691      136.398       60.892        0.090        0.015       38.071        7.106        0.035      342.482       17.923      858.646
09/14/2013  00:30:00      -34.558      -14.824       -8.115        8.167       17.024        9.156       66.701      289.819       83.837        0.096        0.022       37.603        7.434        0.039      342.597       18.116      858.646
09/14/2013  00:31:00      -18.110       -8.660       -1.875        7.176       10.696        5.863       51.496      114.404       34.375        0.030        0.010       20.074        5.238        0.068      342.690       18.277      858.644
09/14/2013  00:32:00      -11.838      -33.621       -5.493        8.295        8.334        8.799       68.799       69.451       77.422        0.076        0.011       35.644        5.650        0.025      342.701       18.295      858.627
09/14/2013  00:33:00      -40.588      -16.368       -9.261       16.585       10.700        7.363      275.056      114.494       54.214        0.122        0.022       43.764        3.628        0.007      342.656       18.219      858.608
09/14/2013  00:34:00      -75.529      -16.828       -9.575        9.114        9.918        6.719       83.066       98.361       45.143        0.315        0.011       77.381        2.732        0.001      342.436       17.844      858.595
09/14/2013  00:35:00      -92.103       -9.430      -14.654       16.429       13.380        9.774      269.919      179.016       95.530        0.467        0.027       92.584        7.117        0.006      342.344       17.687      858.584
09/14/2013  00:36:00      -88.788       -8.351      -15.492       20.814       16.089       12.721      433.238      258.863      161.816        0.452        0.043       89.180       10.790        0.015      342.211       17.461      858.580
09/14/2013  00:37:00      -82.577       -6.134      -11.631       21.056       15.657       11.881      443.336      245.156      141.167        0.391        0.041       82.804       10.147        0.015      342.190       17.427      858.584
09/14/2013  00:38:00     -102.092      -19.652      -12.356       20.882       28.900       13.418      436.062      835.220      180.052        0.621        0.073      103.966        7.073        0.005      342.154       17.365      858.581
09/14/2013  00:39:00      -53.968      -33.820      -14.751       22.420       25.442       15.959      502.663      647.280      254.674        0.284        0.070       63.689       13.081        0.042      342.196       17.437      858.571
09/14/2013  00:40:00      -36.764      -16.855       -1.245       15.958       15.520       17.762      254.654      240.882      315.492        0.122        0.041       40.444       12.914        0.102      342.327       17.659      858.556
09/14/2013  00:41:00      -26.004      -11.851       -3.203        6.118        6.946        4.183       37.429       48.250       17.496        0.047        0.005       28.577        3.036        0.011      342.632       18.177      858.543
09/14/2013  00:42:00      -38.433      -24.430       -4.389       13.591        8.292        5.154      184.704       68.756       26.559        0.119        0.014       45.540        4.071        0.008      342.619       18.154      858.545
09/14/2013  00:43:00      -55.914      -11.887      -11.060        8.886       10.126        4.656       78.954      102.530       21.678        0.180        0.010       57.163        4.628        0.007      342.393       17.770      858.546
09/14/2013  00:44:00      -66.505       -0.973      -13.667        5.802        7.544        6.434       33.663       56.904       41.394        0.237        0.007       66.512        3.712        0.003      342.344       17.686      858.540
09/14/2013  00:45:00      -63.513      -17.314      -11.784        6.093        7.974        5.861       37.126       63.589       34.355        0.230        0.007       65.830        3.410        0.003      342.335       17.672      858.534
09/14/2013  00:46:00      -60.796      -17.394      -10.638        8.494       10.550        7.264       72.143      111.296       52.769        0.217        0.012       63.235        4.297        0.005      342.359       17.713      858.527
09/14/2013  00:47:00      -78.407      -24.926      -16.144       18.157       16.112       11.189      329.671      259.583      125.190        0.387        0.036       82.273        7.529        0.008      342.192       17.429      858.520
09/14/2013  00:48:00      -86.538      -10.026      -15.268       10.720       13.750       10.206      114.929      189.051      104.155        0.412        0.020       87.117        4.778        0.003      342.151       17.360      858.510
09/14/2013  00:49:00     -100.692      -27.151       -9.022       26.536       27.701       13.575      704.152      767.338      184.289        0.631        0.083      104.288        9.264        0.008      342.127       17.319      858.501
09/14/2013  00:50:00     -117.508      -13.349      -25.414       32.176       19.395       14.235     1035.316      376.165      202.632        0.812        0.081      118.264        5.047        0.002      342.132       17.329      858.490
09/14/2013  00:51:00      -33.369      -39.535       -7.647       16.692       23.529       18.203      278.637      553.603      331.347        0.195        0.058       51.735       10.112        0.038      342.124       17.313      858.488
09/14/2013  00:52:00      -75.376      -26.758      -16.010       23.478       26.643       19.223      551.194      709.837      369.537        0.414        0.082       79.985        4.166        0.003      342.182       17.414      858.494
09/14/2013  00:53:00      -66.724      -23.720      -20.500       22.847       19.376       17.000      521.975      375.436      289.013        0.331        0.059       70.815       13.056        0.034      342.186       17.419      858.481
09/14/2013  00:54:00      -69.272      -17.996      -22.470       22.741       21.321       16.812      517.146      454.582      282.638        0.344        0.063       71.571        9.073        0.016      342.293       17.600      858.477
09/14/2013  00:55:00      -51.980      -26.076      -17.356       33.142       17.393       19.945     1098.392      302.533      397.816        0.274        0.090       58.153       18.619        0.103      342.259       17.543      858.479
09/14/2013  00:56:00      -40.318      -11.657       -5.023       19.190       16.601       15.035      368.239      275.585      226.063        0.133        0.043       41.969       11.464        0.075      342.146       17.352      858.494
09/14/2013  00:57:00      -82.085       -4.446      -11.228       14.121        8.863       10.142      199.393       78.559      102.850        0.363        0.019       82.205        8.238        0.010      342.221       17.479      858.492
09/14/2013  00:58:00      -92.968      -13.773      -12.310       12.338       15.026       10.619      152.229      225.768      112.761        0.474        0.025       93.982        6.714        0.005      342.168       17.389      858.501
09/14/2013  00:59:00      -99.828      -31.328      -12.386       19.284       13.620        9.985      371.880      185.494       99.703        0.588        0.033      104.629        7.685        0.005      342.192       17.431      858.510
09/14/2013  01:00:00     -108.923      -37.638      -13.877       15.577       13.305        8.809      242.640      177.032       77.605        0.699        0.025      115.243        6.916        0.004      342.200       17.444      858.523
09/14/2013  01:01:00      -94.850      -27.703       -7.644       15.076       13.973        8.234      227.293      195.252       67.806        0.516        0.025       98.813        4.232        0.002      342.222       17.481      858.515
09/14/2013  01:02:00      -87.532      -10.081       -7.637       23.034       13.645        9.611      530.574      186.188       92.363        0.432        0.040       88.111        9.267        0.011      342.217       17.471      858.509
09/14/2013  01:03:00     -131.040       -5.051      -15.627       16.405       14.401       10.477      269.111      207.398      109.764        0.901        0.029      131.137        3.249        0.001      342.281       17.581      858.514
09/14/2013  01:04:00      -87.633      -34.342       -7.542       32.781       23.012       14.241     1074.615      529.568      202.799        0.536        0.090       94.122       15.199        0.026      342.135       17.332      858.515
09/14/2013  01:05:00      -65.727      -30.422       -4.298       26.829       22.710       14.744      719.801      515.723      217.373        0.336        0.073       72.426       13.589        0.035      342.144       17.349      858.515
09/14/2013  01:06:00      -93.451      -35.894       -8.858       31.403       24.795       18.104      986.148      614.804      327.771        0.601        0.096      100.108       16.855        0.028      342.162       17.378      858.511
09/14/2013  01:07:00      -42.060      -20.152        3.161       23.481       25.731       18.066      551.339      662.097      326.395        0.186        0.077       46.639       12.959        0.077      342.115       17.299      858.508
09/14/2013  01:08:00      -48.431       -9.361       -5.331       13.176       24.977       12.740      173.604      623.856      162.310        0.171        0.048       49.328       11.063        0.050      342.136       17.333      858.514
09/14/2013  01:09:00      -60.534      -19.137      -13.891       18.600       17.560       14.938      345.956      308.364      223.148        0.255        0.044       63.487        6.648        0.011      342.193       17.432      858.513
09/14/2013  01:10:00      -66.397      -11.594      -11.714       37.917       19.731       12.555     1437.728      389.327      157.640        0.333        0.099       67.402        3.267        0.002      342.178       17.405      858.516
09/14/2013  01:11:00      -43.820      -16.845       -1.156       27.036       16.781       12.353      730.932      281.591      152.587        0.168        0.058       46.946        8.163        0.030      342.214       17.466      858.522
09/14/2013  01:12:00      -54.249      -14.628       -7.000       13.525       14.370        9.250      182.922      206.487       85.557        0.184        0.024       56.187        6.096        0.012      342.127       17.318      858.517
09/14/2013  01:13:00      -26.207      -29.496      -11.983       13.205       13.239        9.374      174.385      175.280       87.875        0.107        0.022       39.457        5.690        0.021      342.291       17.597      858.503
09/14/2013  01:14:00      -36.795      -11.538       -6.131       13.051       11.974        7.798      170.340      143.384       60.808        0.095        0.019       38.562        4.659        0.015      342.350       17.699      858.495
09/14/2013  01:15:00      -68.319      -30.150      -10.604       20.716       14.948        7.538      429.157      223.448       56.824        0.320        0.035       74.676        6.607        0.008      342.141       17.341      858.484
09/14/2013  01:16:00      -66.305      -32.534      -15.699       17.308       11.162        8.825      299.567      124.586       77.881        0.310        0.025       73.857        5.557        0.006      342.143       17.348      858.468
09/14/2013  01:17:00      -66.388      -43.870      -16.263       17.906       16.441        8.293      320.621      270.301       68.766        0.363        0.033       79.573        7.780        0.010      342.097       17.267      858.446
09/14/2013  01:18:00      -87.314      -29.694      -15.829       10.538       10.070        9.685      111.055      101.405       93.807        0.453        0.015       92.225        5.961        0.004      342.064       17.212      858.427
09/14/2013  01:19:00      -89.780      -30.822      -11.613       11.382       11.440        8.009      129.546      130.871       64.152        0.473        0.016       94.923        4.220        0.002      342.124       17.313      858.414
09/14/2013  01:20:00      -84.383      -38.415      -11.435       10.438        6.759        8.005      108.949       45.682       64.073        0.447        0.011       92.716        4.710        0.003      342.102       17.275      858.399
09/14/2013  01:21:00      -94.968      -39.366      -12.823       11.185        8.127        6.342      125.103       66.053       40.221        0.548        0.012      102.803        3.438        0.001      342.177       17.404      858.385
09/14/2013  01:22:00      -97.999      -48.965       -9.896       21.104       12.173        9.028      445.390      148.170       81.513        0.639        0.034      109.551        4.124        0.001      342.206       17.452      858.379
09/14/2013  01:23:00     -110.040      -22.621      -10.637       14.224       11.979        8.007      202.333      143.492       64.113        0.657        0.020      112.341        8.281        0.005      342.202       17.448      858.381
09/14/2013  01:24:00      -89.691      -22.649       -9.423       28.219       16.124       14.379      796.340      259.996      206.746        0.495        0.063       92.507       14.031        0.023      342.140       17.342      858.382
09/14/2013  01:25:00      -97.262      -43.278       -5.570       23.481       18.763       11.452      551.360      352.048      131.156        0.620        0.052      106.456        9.853        0.009      342.175       17.401      858.382
09/14/2013  01:26:00      -68.496      -42.497       -0.573       20.583       18.808       15.311      423.662      353.759      234.428        0.375        0.051       80.608       11.103        0.019      342.088       17.253      858.379
09/14/2013  01:27:00      -57.462      -28.940        1.416       20.256       17.852       16.388      410.296      318.711      268.551        0.257        0.050       64.338       15.933        0.061      342.039       17.169      858.391
09/14/2013  01:28:00      -47.749      -24.263       -4.024       22.924       14.371       13.896      525.511      206.531      193.102        0.190        0.046       53.560       13.321        0.062      342.071       17.226      858.398
09/14/2013  01:29:00      -72.842      -55.527       -3.538       24.933       21.010       15.356      621.648      441.408      235.799        0.485        0.065       91.593        6.989        0.006      342.136       17.334      858.405
09/14/2013  01:30:00      -80.090      -47.068       -0.379       44.109       21.040       19.051     1945.599      442.679      362.935        0.569        0.138       92.897       21.175        0.052      342.098       17.268      858.415
09/14/2013  01:31:00     -108.906      -26.149       -4.952       23.722       21.790       14.016      562.751      474.806      196.436        0.690        0.062      112.001       10.614        0.009      341.990       17.087      858.434
09/14/2013  01:32:00      -87.776       -7.034       -1.427       33.603       23.797       19.550     1129.146      566.309      382.189        0.492        0.104       88.058       21.230        0.058      341.782       16.733      858.445
09/14/2013  01:33:00      -54.923       -2.241        2.308       36.016       21.108       16.175     1297.120      445.554      261.618        0.252        0.100       54.969       15.019        0.075      341.840       16.831      858.457
09/14/2013  01:34:00      -65.615      -11.298       -4.794       32.008       20.722       14.078     1024.528      429.407      198.192        0.305        0.083       66.581       15.058        0.051      341.938       17.000      858.466
09/14/2013  01:35:00      -35.056      -23.879       -0.600       23.389       14.997       13.610      547.035      224.905      185.240        0.138        0.048       42.416       13.338        0.099      341.994       17.095      858.475
09/14/2013  01:36:00        5.419      -11.325       15.133       13.939       13.489       14.670      194.289      181.953      215.212        0.049        0.030       12.555       11.024        0.771      341.980       17.070      858.467
09/14/2013  01:37:00      -63.506      -42.594       -0.412       31.776       18.981       13.070     1009.695      360.283      170.824        0.369        0.077       76.467       15.478        0.041      341.927       16.979      858.470
09/14/2013  01:38:00      -83.040      -49.479       -3.042       18.821       18.265       15.242      354.222      333.620      232.327        0.514        0.046       96.663        9.401        0.009      341.918       16.964      858.475
09/14/2013  01:39:00      -95.414      -28.676      -10.100       16.058       12.473        9.694      257.863      155.587       93.970        0.527        0.025       99.630        7.390        0.006      341.898       16.930      858.467
09/14/2013  01:40:00      -77.191      -20.058       -6.391       17.689       18.828        9.235      312.912      354.506       85.280        0.358        0.038       79.754        6.856        0.007      341.844       16.839      858.447
09/14/2013  01:41:00      -42.407       -6.718        2.758       22.032       19.151       13.275      485.414      366.778      176.215        0.144        0.051       42.936       10.036        0.055      341.821       16.799      858.428
09/14/2013  01:42:00      -35.250       -9.719       -6.268       17.341       13.891       10.734      300.697      192.947      115.210        0.099        0.030       36.565       11.907        0.106      341.830       16.816      858.410
09/14/2013  01:43:00      -47.058      -32.642       -9.460       12.317       19.589        9.012      151.717      383.745       81.209        0.199        0.031       57.271        9.178        0.026      341.848       16.846      858.405
09/14/2013  01:44:00      -37.975      -41.915       -5.346       22.117       16.355       14.838      489.143      267.498      220.167        0.210        0.049       56.559        7.184        0.016      341.864       16.873      858.414
09/14/2013  01:45:00      -64.760      -42.201      -12.288       17.276       16.613       12.589      298.476      275.986      158.490        0.343        0.037       77.296       10.296        0.018      341.888       16.913      858.415
09/14/2013  01:46:00      -72.185      -27.594       -7.807       12.076       15.603       15.263      145.833      243.463      232.971        0.333        0.031       77.279        3.849        0.002      341.879       16.900      858.418
09/14/2013  01:47:00      -92.937      -35.721       -7.432       11.269       11.368       10.212      126.990      129.240      104.284        0.516        0.018       99.565        7.460        0.006      341.757       16.692      858.418
09/14/2013  01:48:00      -73.124      -40.302       -5.948       17.318       22.115       11.217      299.921      489.061      125.812        0.396        0.046       83.495        7.991        0.009      341.795       16.754      858.408
09/14/2013  01:49:00     -105.338      -76.524       -6.341       31.955       26.527       17.079     1021.149      703.689      291.699        0.950        0.101      130.200       15.847        0.015      341.828       16.813      858.402
09/14/2013  01:50:00     -101.151      -58.845        5.693       36.926       34.926       24.540     1363.555     1219.834      602.196        0.846        0.159      117.022       21.575        0.034      341.843       16.836      858.402
09/14/2013  01:51:00      -64.411      -18.652        1.067       38.937       18.090       12.476     1516.067      327.232      155.655        0.325        0.100       67.057       14.455        0.046      341.938       16.996      858.403
09/14/2013  01:52:00      -22.673       -8.402       11.758       31.332       13.014       15.889      981.689      169.354      252.451        0.106        0.070       24.179       19.129        0.626      341.933       16.990      858.385
09/14/2013  01:53:00      -79.030      -33.302       -1.233       23.695       17.885       11.096      561.435      319.856      123.129        0.418        0.050       85.760       10.890        0.016      341.956       17.028      858.376
09/14/2013  01:54:00     -112.738      -32.791       -4.764       17.929       14.054        8.697      321.448      197.526       75.637        0.720        0.030      117.410        6.713        0.003      341.900       16.934      858.377
09/14/2013  01:55:00      -73.440      -17.778        2.711       42.140       20.569       16.010     1775.746      423.091      256.336        0.409        0.123       75.561       20.647        0.075      341.784       16.737      858.381
09/14/2013  01:56:00      -75.306       -2.787       -1.487       29.074       23.760       18.734      845.280      564.554      350.970        0.372        0.088       75.358       19.571        0.067      341.696       16.588      858.388
09/14/2013  01:57:00     -104.621        4.383       -9.089       29.108       21.664       12.191      847.295      469.336      148.620        0.626        0.073      104.713        9.416        0.008      341.731       16.647      858.383
09/14/2013  01:58:00      -97.578      -10.414       -7.738       38.068       27.510       15.508     1449.210      756.823      240.501        0.607        0.122       98.132       14.569        0.022      341.730       16.645      858.389
09/14/2013  01:59:00      -79.023      -14.625       -3.426       32.556       33.790       20.506     1059.914     1141.770      420.515        0.455        0.131       80.365       19.279        0.058      341.734       16.652      858.391
09/14/2013  02:00:00      -74.230       -5.393        0.523       30.181       19.656       18.395      910.889      386.342      338.366        0.359        0.082       74.425       18.737        0.063      341.796       16.758      858.385
09/14/2013  02:01:00      -56.777      -18.057       -2.113       29.179       20.214       15.304      851.438      408.622      234.203        0.252        0.075       59.579       14.384        0.058      341.864       16.871      858.400
09/14/2013  02:02:00      -92.773      -45.568      -12.157       21.891       25.999       12.254      479.195      675.934      150.170        0.607        0.065      103.360       11.132        0.012      341.809       16.780      858.406
09/14/2013  02:03:00      -75.091      -29.065       -1.124       42.433       28.377       17.576     1800.581      805.238      308.902        0.470        0.146       80.520       19.817        0.061      341.735       16.654      858.420
09/14/2013  02:04:00      -89.918      -48.447       -3.501       27.566       21.673       15.021      759.890      469.730      225.630        0.595        0.073      102.139       14.890        0.021      341.735       16.653      858.419
09/14/2013  02:05:00      -79.308      -39.476       -7.694       21.358        8.787       13.258      456.173       77.220      175.769        0.431        0.035       88.589        7.644        0.007      341.728       16.646      858.414
09/14/2013  02:06:00      -54.746      -19.467        0.407       14.691       10.832        8.227      215.834      117.328       67.675        0.189        0.020       58.105        9.241        0.025      341.687       16.572      858.405
09/14/2013  02:07:00      -90.105      -19.180       -9.513       11.781       10.038       12.121      138.789      100.759      146.918        0.448        0.019       92.124        8.393        0.008      341.847       16.843      858.412
09/14/2013  02:08:00      -61.792      -13.075       -5.637       17.127       13.085        8.791      293.350      171.219       77.288        0.228        0.027       63.160        7.943        0.016      341.821       16.799      858.409
09/14/2013  02:09:00       -7.968      -30.363       -0.586       18.521       11.325       11.634      343.030      128.266      135.340        0.080        0.030       31.391        7.683        0.060      341.913       16.954      858.401
09/14/2013  02:10:00       -7.447      -31.111        1.721       28.289       20.263       14.413      800.243      410.578      207.726        0.122        0.071       31.990       11.417        0.127      341.955       17.027      858.399
09/14/2013  02:11:00      -57.564      -33.471       -2.335       17.846       13.379       12.328      318.474      179.007      151.977        0.254        0.032       66.588       10.367        0.024      341.917       16.962      858.412
09/14/2013  02:12:00      -53.023      -18.181        2.924       16.068       14.761       12.059      258.197      217.883      145.413        0.189        0.031       56.053        7.816        0.019      341.845       16.840      858.416
09/14/2013  02:13:00      -20.430      -13.057        7.316       24.397       11.419        9.697      595.226      130.392       94.032        0.073        0.041       24.246        9.562        0.156      341.814       16.787      858.426
09/14/2013  02:14:00      -12.868      -13.555        2.439       17.664       17.187       12.344      312.028      295.407      152.370        0.056        0.038       18.691        9.203        0.242      341.801       16.766      858.427
09/14/2013  02:15:00      -48.821      -41.676        3.696       28.355       24.758       15.265      803.985      612.957      233.015        0.289        0.082       64.190       11.398        0.032      341.741       16.666      858.420
09/14/2013  02:16:00      -33.744      -62.992       -0.293       32.105       32.884       23.277     1030.735     1081.384      541.817        0.388        0.133       71.461       18.406        0.066      341.919       16.966      858.417
09/14/2013  02:17:00      -77.175      -51.592        0.980       27.766       24.577       16.384      770.955      604.028      268.428        0.513        0.082       92.832       12.876        0.019      341.908       16.946      858.409
09/14/2013  02:18:00      -94.563      -48.377        0.637       28.156       20.582       17.285      792.770      423.627      298.773        0.640        0.076      106.219       16.537        0.024      341.883       16.903      858.411
09/14/2013  02:19:00     -110.550      -50.842       -2.310       30.801       26.616       16.002      948.690      708.396      256.058        0.836        0.096      121.681       14.736        0.015      341.860       16.866      858.404
09/14/2013  02:20:00      -73.850      -42.456        1.334       35.097       20.676       16.672     1231.822      427.505      277.964        0.460        0.097       85.184       14.280        0.028      341.801       16.767      858.395
09/14/2013  02:21:00      -82.892      -39.808       -3.269       32.441       25.396       14.406     1052.389      644.976      207.520        0.519        0.095       91.955       11.856        0.017      341.858       16.861      858.388
09/14/2013  02:22:00      -64.578      -12.461       -0.142       21.471       22.397       14.485      460.990      501.636      209.817        0.275        0.059       65.769        6.960        0.011      341.801       16.764      858.380
09/14/2013  02:23:00      -78.734        8.080       -8.446       10.328       10.157        7.282      106.662      103.173       53.024        0.330        0.013       79.147        4.172        0.003      341.771       16.714      858.388
09/14/2013  02:24:00      -56.070       -3.176       -0.583       18.524       10.330        8.432      343.123      106.700       71.104        0.184        0.026       56.159        9.475        0.028      341.767       16.707      858.394
09/14/2013  02:25:00      -72.818      -12.650       -7.557       16.256       12.806        8.511      264.255      163.985       72.434        0.301        0.025       73.908        2.700        0.001      341.777       16.726      858.385
09/14/2013  02:26:00      -93.741      -21.255      -12.259       12.484       13.218       10.887      155.842      174.712      118.527        0.492        0.022       96.120        4.196        0.002      341.742       16.667      858.387
09/14/2013  02:27:00      -86.595      -21.914       -4.504       25.294       15.907       11.411      639.808      253.042      130.216        0.451        0.051       89.325       10.218        0.013      341.659       16.526      858.389
09/14/2013  02:28:00      -98.022      -18.112       -6.490       22.519       16.676       13.632      507.085      278.086      185.828        0.547        0.049       99.681       12.178        0.015      341.659       16.526      858.386
09/14/2013  02:29:00     -107.722      -17.786       -9.700       17.267       16.165       12.918      298.138      261.315      166.868        0.637        0.036      109.181        9.165        0.007      341.596       16.418      858.388
09/14/2013  02:30:00     -103.508      -46.467      -12.057       24.648       26.142       14.434      607.522      683.397      208.350        0.726        0.075      113.460       12.841        0.013      341.530       16.305      858.388
09/14/2013  02:31:00      -88.374      -11.783       -3.091       26.592       25.334       19.146      707.122      641.807      366.569        0.484        0.086       89.156       13.593        0.023      341.434       16.145      858.390
09/14/2013  02:32:00     -104.975      -32.117       -7.210       35.070       26.641       18.729     1229.911      709.724      350.779        0.720        0.115      109.778       21.329        0.038      341.413       16.109      858.376
09/14/2013  02:33:00     -109.023      -28.661       -8.310       19.998       24.450       14.781      399.901      597.818      218.479        0.700        0.061      112.728       11.240        0.010      341.485       16.229      858.367
09/14/2013  02:34:00     -103.528      -41.281       -9.144       22.134       23.020       16.383      489.905      529.904      268.399        0.690        0.064      111.455       12.224        0.012      341.507       16.267      858.369
09/14/2013  02:35:00      -82.364      -35.475       -9.619       21.592       18.862       13.345      466.222      355.789      178.086        0.457        0.050       89.679       10.322        0.013      341.465       16.196      858.374
09/14/2013  02:36:00      -87.010       -2.059      -10.737       24.973       24.005       13.986      623.655      576.244      195.608        0.454        0.070       87.034       11.157        0.016      341.372       16.039      858.380
09/14/2013  02:37:00      -22.653        8.979       -1.911       24.178       16.942       11.007      584.554      287.047      121.145        0.079        0.050       24.368        8.474        0.121      341.378       16.049      858.379
09/14/2013  02:38:00      -48.980       21.735       -5.076       23.486       17.558       12.799      551.594      308.298      163.820        0.196        0.051       53.586       11.655        0.047      341.551       16.341      858.379
09/14/2013  02:39:00      -49.399       -8.480       -6.525       15.306       17.933       10.393      234.274      321.602      108.012        0.161        0.033       50.122        6.368        0.016      341.590       16.407      858.373
09/14/2013  02:40:00      -68.711       -9.642      -10.980       30.059       37.290       14.899      903.514     1390.533      221.979        0.372        0.126       69.384       13.627        0.039      341.528       16.302      858.378
09/14/2013  02:41:00      -57.969       15.660      -15.264       19.130       17.366       13.687      365.969      301.591      187.325        0.235        0.043       60.047        5.895        0.010      341.489       16.236      858.386
09/14/2013  02:42:00       -8.137      -16.580        5.730       11.139       16.522        9.115      124.087      272.985       83.092        0.043        0.024       18.469        4.244        0.053      341.515       16.281      858.395
09/14/2013  02:43:00      -22.691      -25.841        4.088       28.779       11.145       11.001      828.211      124.210      121.016        0.114        0.054       34.390       13.169        0.147      341.576       16.385      858.404
09/14/2013  02:44:00      -71.385      -37.403      -16.034       18.599       15.723       12.352      345.910      247.207      152.566        0.375        0.037       80.591        8.327        0.011      341.545       16.331      858.405
09/14/2013  02:45:00      -52.980      -36.584       -4.546       33.813       21.244       18.126     1143.326      451.325      328.551        0.304        0.096       64.383        9.143        0.020      341.503       16.260      858.405
09/14/2013  02:46:00      -94.177      -24.280       -7.179       23.090       16.824       10.357      533.155      283.031      107.265        0.522        0.046       97.256        2.926        0.001      341.393       16.073      858.410
09/14/2013  02:47:00      -71.381        0.247       -7.773       16.006        7.757        8.574      256.208       60.166       73.520        0.277        0.019       71.381        5.211        0.005      341.427       16.129      858.419
09/14/2013  02:48:00      -46.094        8.495       -8.779        7.732        5.485        5.810       59.778       30.090       33.751        0.120        0.006       46.870        3.913        0.007      341.512       16.276      858.419
09/14/2013  02:49:00      -75.094      -20.808      -13.345       17.208       17.354       10.947      296.111      301.148      119.826        0.348        0.036       77.923        6.644        0.007      341.486       16.232      858.425
09/14/2013  02:50:00     -130.261      -44.999      -16.155       21.623       16.918       12.727      467.549      286.220      161.982        1.008        0.046      137.815        7.347        0.003      341.328       15.965      858.430
09/14/2013  02:51:00      -96.943      -43.644      -12.725       46.431       27.561       18.306     2155.853      759.596      335.126        0.736        0.163      106.314       12.983        0.015      341.320       15.951      858.449
09/14/2013  02:52:00      -84.755      -20.671       -7.779       18.712       25.340       12.568      350.145      642.114      157.956        0.441        0.058       87.239        9.513        0.012      341.331       15.968      858.461
09/14/2013  02:53:00      -63.531      -17.892        1.671       25.375       34.989       13.386      643.881     1224.225      179.185        0.320        0.102       66.003        9.360        0.020      341.337       15.980      858.458
09/14/2013  02:54:00      -98.490      -10.586       -6.920       26.740       24.525       20.057      715.035      601.483      402.296        0.579        0.086       99.057       16.460        0.028      341.291       15.902      858.458
09/14/2013  02:55:00      -32.403        1.743        0.836       26.583       22.717       18.417      706.633      516.053      339.183        0.131        0.078       32.450       13.734        0.179      341.281       15.885      858.453
09/14/2013  02:56:00      -14.931      -22.428        3.365       14.616       20.442       12.370      213.631      417.873      153.018        0.076        0.039       26.943        7.371        0.075      341.360       16.018      858.459
09/14/2013  02:57:00      -12.588       -8.706        0.003       13.459       12.101       10.638      181.132      146.442      113.162        0.034        0.022       15.305        6.851        0.200      341.500       16.255      858.460
09/14/2013  02:58:00      -46.737      -22.275       -6.960       17.983       20.093       14.389      323.387      403.730      207.052        0.183        0.047       51.774       10.414        0.040      341.522       16.293      858.456
09/14/2013  02:59:00      -90.842      -23.505       -6.421       31.710       34.788       13.495     1005.505     1210.231      182.116        0.562        0.120       93.833       10.087        0.012      341.430       16.137      858.454
09/14/2013  03:00:00      -76.679      -16.955       -7.252       30.936       27.286       15.049      957.063      744.535      226.459        0.407        0.096       78.531        7.418        0.009      341.421       16.121      858.454
09/14/2013  03:01:00      -83.397      -24.944       -1.838       29.005       28.051       15.504      841.292      786.869      240.375        0.472        0.093       87.047       13.748        0.025      341.394       16.075      858.452
09/14/2013  03:02:00      -66.111      -31.833       -7.754       32.124       32.043       22.541     1031.947     1026.749      508.075        0.400        0.128       73.376       10.695        0.021      341.411       16.104      858.449
09/14/2013  03:03:00      -42.259       -6.451       -1.834       35.224       25.464       18.393     1240.754      648.416      338.287        0.203        0.111       42.749       11.493        0.072      341.399       16.083      858.433
09/14/2013  03:04:00      -52.707       -6.665        1.619       28.039       27.640       12.633      786.201      763.991      159.583        0.227        0.085       53.127        9.873        0.035      341.312       15.938      858.432
09/14/2013  03:05:00      -14.010       -1.758       -5.370       21.235       19.837       14.151      450.932      393.500      200.240        0.064        0.052       14.120       12.107        0.735      341.330       15.968      858.443
09/14/2013  03:06:00      -51.170       -9.645      -11.870       28.716       13.433       10.947      824.613      180.458      119.834        0.199        0.056       52.071        5.939        0.013      341.422       16.123      858.446
09/14/2013  03:07:00      -67.760      -14.251       -6.781       16.206       14.634       12.333      262.631      214.141      152.091        0.273        0.031       69.242        6.471        0.009      341.483       16.226      858.454
09/14/2013  03:08:00      -53.002      -17.365       -6.407       16.358       14.184       14.568      267.584      201.197      212.222        0.192        0.034       55.774        6.532        0.014      341.515       16.281      858.463
09/14/2013  03:09:00       -9.694      -25.420        0.223       26.817       14.447       14.175      719.136      208.727      200.942        0.093        0.056       27.206       10.140        0.139      341.495       16.247      858.463
09/14/2013  03:10:00      -50.942      -34.113       -4.529       19.160       16.296       13.804      367.097      265.562      190.557        0.230        0.041       61.309        9.464        0.024      341.436       16.147      858.475
09/14/2013  03:11:00      -83.090      -47.843      -10.778       12.985       11.342        8.955      168.613      128.649       80.187        0.484        0.019       95.880        5.420        0.003      341.434       16.144      858.476
09/14/2013  03:12:00      -87.971      -31.537       -9.182       14.210       11.176       10.316      201.930      124.901      106.413        0.463        0.022       93.453        5.103        0.003      341.499       16.254      858.483
09/14/2013  03:13:00      -53.514      -37.443       -1.832       19.831       20.304       13.866      393.275      412.251      192.271        0.263        0.050       65.312        8.417        0.017      341.449       16.170      858.480
09/14/2013  03:14:00      -53.975      -33.879      -11.129       13.901       15.066        7.697      193.243      226.994       59.245        0.233        0.024       63.727        6.004        0.009      341.467       16.199      858.459
09/14/2013  03:15:00      -38.127      -39.625       -5.107       26.431       20.850       14.145      698.603      434.742      200.094        0.219        0.067       54.989       14.556        0.070      341.468       16.202      858.441
09/14/2013  03:16:00      -55.041      -31.130       -4.182       15.326       18.782       10.617      234.871      352.767      112.728        0.236        0.035       63.234        6.094        0.009      341.477       16.215      858.413
09/14/2013  03:17:00      -58.391      -35.541       -5.438       18.153        7.934        6.419      329.527       62.950       41.205        0.257        0.022       68.357        6.339        0.009      341.592       16.410      858.386
09/14/2013  03:18:00      -85.070      -35.034       -7.516       11.744        7.991        6.971      137.923       63.862       48.598        0.439        0.013       92.001        4.809        0.003      341.562       16.361      858.376
09/14/2013  03:19:00      -97.448      -37.169       -6.930       10.567       12.376        9.249      111.651      153.159       85.535        0.564        0.018      104.296        4.872        0.002      341.501       16.257      858.375
09/14/2013  03:20:00      -83.289      -58.081       -2.949       26.697       20.998       18.571      712.725      440.926      344.900        0.591        0.075      101.540       15.521        0.023      341.427       16.131      858.378
09/14/2013  03:21:00      -90.749      -57.017       -4.450       38.481       23.692       19.151     1480.823      561.330      366.756        0.696        0.120      107.174       20.170        0.035      341.522       16.292      858.381
09/14/2013  03:22:00     -109.375      -39.076       -6.729       23.818       23.963       12.720      567.292      574.219      161.794        0.742        0.065      116.146       10.027        0.007      341.513       16.277      858.379
09/14/2013  03:23:00      -97.719      -33.544       -8.078       13.419       13.834       10.404      180.072      191.382      108.253        0.561        0.024      103.316        6.291        0.004      341.443       16.160      858.373
09/14/2013  03:24:00      -76.972      -21.492        1.045       32.866       18.799       16.136     1080.178      353.407      260.368        0.404        0.085       79.916       16.958        0.045      341.353       16.006      858.372
09/14/2013  03:25:00      -45.669       -2.022        7.558       35.367       20.897       10.853     1250.846      436.683      117.794        0.198        0.090       45.714       11.860        0.067      341.361       16.020      858.371
09/14/2013  03:26:00       11.211       -7.168        4.991       18.410       18.774       21.421      338.940      352.448      458.851        0.068        0.058       13.307       18.936        2.025      341.441       16.156      858.376
09/14/2013  03:27:00        8.367        3.289       17.859       12.269       11.454        9.268      150.536      131.184       85.896        0.038        0.018        8.990        7.747        0.743      341.455       16.178      858.394
09/14/2013  03:28:00        2.352       -7.777        9.028       10.844        9.730       11.368      117.595       94.670      129.240        0.024        0.017        8.125        5.089        0.392      341.431       16.138      858.405
09/14/2013  03:29:00      -28.468       -1.521       -4.845       18.228        7.664        5.580      332.270       58.735       31.131        0.063        0.021       28.508        4.401        0.024      341.515       16.281      858.404
09/14/2013  03:30:00      -42.863      -16.520       -6.181       12.930        9.954        6.436      167.175       99.077       41.418        0.123        0.015       45.936        6.977        0.023      341.420       16.121      858.402
09/14/2013  03:31:00       -9.998      -22.096       -3.658       10.915       10.167       11.302      119.126      103.367      127.727        0.048        0.018       24.253        7.102        0.086      341.412       16.105      858.392
09/14/2013  03:32:00       -7.733      -12.744       -2.333       12.095       10.327        7.790      146.288      106.649       60.690        0.027        0.016       14.907        5.409        0.132      341.425       16.126      858.368
09/14/2013  03:33:00       -9.895       -9.614       -2.628        8.465        9.571        8.110       71.663       91.603       65.773        0.021        0.011       13.796        6.156        0.199      341.446       16.161      858.357
09/14/2013  03:34:00      -31.034       -4.996       -4.975       18.252        7.475        6.043      333.153       55.875       36.514        0.072        0.021       31.434        7.725        0.060      341.433       16.141      858.349
09/14/2013  03:35:00      -41.575      -10.557       -5.100        7.387       14.039        6.355       54.561      197.103       40.380        0.108        0.015       42.895        4.480        0.011      341.512       16.275      858.343
09/14/2013  03:36:00      -53.149      -14.296       -3.228       12.199       10.315        9.121      148.816      106.401       83.185        0.169        0.017       55.039        1.663        0.001      341.495       16.246      858.348
09/14/2013  03:37:00      -60.321      -21.967       -4.950       17.287       15.583       10.593      298.845      242.833      112.221        0.240        0.033       64.197        9.493        0.022      341.408       16.100      858.356
09/14/2013  03:38:00      -63.530      -29.268       -6.858       16.102       11.652        9.512      259.274      135.777       90.479        0.271        0.024       69.947        6.697        0.009      341.403       16.090      858.365
09/14/2013  03:39:00      -71.729      -16.896       -3.582       14.071       14.179       10.118      197.987      201.049      102.368        0.297        0.025       73.692        5.632        0.006      341.418       16.118      858.371
09/14/2013  03:40:00      -77.630      -26.562       -7.157       11.420       13.400        7.442      130.409      179.572       55.381        0.357        0.018       82.049        4.013        0.002      341.466       16.199      858.382
09/14/2013  03:41:00      -56.489      -10.340       -6.484       20.284       18.921       11.009      411.430      358.020      121.198        0.212        0.045       57.428        9.112        0.025      341.351       16.004      858.391
09/14/2013  03:42:00      -61.648       -6.266       -5.831       13.450       11.291        9.176      180.896      127.481       84.193        0.213        0.020       61.965        7.618        0.015      341.333       15.974      858.391
09/14/2013  03:43:00      -54.371      -11.704       -5.054       21.790       11.618        8.785      474.790      134.989       77.169        0.190        0.034       55.616        8.535        0.024      341.368       16.031      858.387
09/14/2013  03:44:00      -77.828       -2.100      -10.208       22.236        9.353       11.571      494.459       87.486      133.891        0.344        0.036       77.856       11.154        0.021      341.359       16.017      858.385
09/14/2013  03:45:00      -64.846       -8.860       -6.222       19.162       15.884       12.171      367.198      252.286      148.135        0.254        0.038       65.449        8.882        0.018      341.273       15.873      858.382
09/14/2013  03:46:00      -95.416      -15.410      -13.029       22.906       11.340        9.937      524.675      128.585       98.753        0.513        0.038       96.652        9.462        0.010      341.243       15.820      858.380
09/14/2013  03:47:00      -81.973      -14.004       -3.111       27.673       22.796       12.908      765.812      519.650      166.624        0.419        0.073       83.160       16.059        0.037      341.142       15.650      858.380
09/14/2013  03:48:00      -68.320      -11.074        0.448       19.766       17.133       11.845      390.711      293.539      140.309        0.281        0.041       69.212        9.705        0.020      341.162       15.683      858.382
09/14/2013  03:49:00      -49.200       -3.896       -4.458       18.062       19.900       10.847      326.248      396.026      117.668        0.165        0.042       49.354       11.265        0.052      341.145       15.656      858.389
09/14/2013  03:50:00      -55.716      -31.247       -7.167       23.502       18.603       13.939      552.355      346.054      194.294        0.261        0.055       63.880        7.892        0.015      341.235       15.807      858.399
09/14/2013  03:51:00      -50.341      -22.083        1.915       27.881       19.257       15.008      777.325      370.841      225.252        0.220        0.069       54.972       13.605        0.061      341.089       15.560      858.399
09/14/2013  03:52:00      -73.490      -11.161       -3.952       23.476       20.803       11.616      551.126      432.784      134.926        0.333        0.056       74.333        9.556        0.017      341.106       15.589      858.396
09/14/2013  03:53:00      -69.484        4.099       -7.498       25.506       14.141       13.660      650.565      199.960      186.595        0.297        0.052       69.604        7.178        0.011      341.182       15.718      858.384
09/14/2013  03:54:00      -57.330      -11.715       -0.306       23.245       21.480       13.689      540.343      461.376      187.398        0.231        0.059       58.515       12.345        0.045      341.125       15.619      858.370
09/14/2013  03:55:00      -58.774      -25.421        0.357       17.985       18.468       13.096      323.455      341.058      171.518        0.247        0.042       64.036        7.556        0.014      341.098       15.575      858.355
09/14/2013  03:56:00      -74.341      -38.341       -3.139       28.125       19.505       16.376      791.005      380.462      268.179        0.422        0.072       83.646       10.687        0.016      341.053       15.499      858.336
09/14/2013  03:57:00      -85.707      -49.306       -4.967       22.121       20.522       19.082      489.332      421.134      364.112        0.554        0.064       98.878       13.369        0.018      341.098       15.575      858.328
09/14/2013  03:58:00      -94.191      -51.223       -1.374       20.757       20.956       16.351      430.840      439.141      267.350        0.632        0.057      107.218       12.795        0.014      340.988       15.388      858.321
09/14/2013  03:59:00      -75.600      -54.879       -1.489       21.584       21.181       16.241      465.878      448.618      263.776        0.495        0.059       93.419       11.959        0.016      340.951       15.327      858.316
09/14/2013  04:00:00      -81.620      -30.910       -1.900       29.725       17.303       16.255      883.600      299.402      264.237        0.453        0.072       87.277       16.690        0.037      340.949       15.323      858.316
09/14/2013  04:01:00     -102.395      -28.429      -14.401       12.941       13.480       11.165      167.464      181.709      124.660        0.599        0.024      106.268        4.639        0.002      341.065       15.521      858.323
09/14/2013  04:02:00      -75.350      -20.630       -1.147       27.229       20.463       13.430      741.429      418.745      180.362        0.372        0.067       78.123       13.182        0.028      341.030       15.460      858.321
09/14/2013  04:03:00      -99.128      -41.290       -2.219       21.616       19.421       10.212      467.254      377.193      104.288        0.624        0.047      107.384        8.414        0.006      341.047       15.491      858.313
09/14/2013  04:04:00     -124.453      -49.606       -3.396       17.703       13.782       11.185      313.390      189.932      125.095        0.929        0.031      133.975        9.407        0.005      341.061       15.513      858.313
09/14/2013  04:05:00     -127.320      -45.178        3.012       34.284       23.017       17.538     1175.377      529.794      307.585        1.014        0.101      135.098       19.843        0.022      341.049       15.494      858.318
09/14/2013  04:06:00      -91.892      -41.173        1.307       30.696       30.376       14.473      942.255      922.698      209.459        0.611        0.104      100.694       15.037        0.022      341.072       15.530      858.316
09/14/2013  04:07:00      -87.740      -14.743      -10.031       19.096       20.142       13.010      364.665      405.699      169.272        0.448        0.047       88.970        8.751        0.010      341.023       15.449      858.318
09/14/2013  04:08:00      -94.882      -15.960      -11.548       16.660       14.631        9.879      277.550      214.066       97.585        0.499        0.029       96.215        7.646        0.006      341.043       15.482      858.311
09/14/2013  04:09:00      -65.790      -23.269        0.947       22.757       19.762       12.520      517.896      390.520      156.758        0.297        0.053       69.783       10.467        0.022      341.055       15.504      858.299
09/14/2013  04:10:00      -48.126      -17.627       -2.654       26.070       18.353       13.529      679.645      336.831      183.044        0.192        0.060       51.253       13.732        0.072      341.074       15.536      858.287
09/14/2013  04:11:00      -84.786      -23.949       -8.058       33.190       27.367       21.437     1101.574      748.954      459.553        0.507        0.116       88.103       17.262        0.038      341.002       15.413      858.294
09/14/2013  04:12:00      -42.347      -29.207       -7.236       24.358       22.646       14.523      593.321      512.831      210.911        0.201        0.066       51.443        7.869        0.023      341.059       15.509      858.294
09/14/2013  04:13:00       -3.113      -22.349       -1.791       17.282       15.435       11.707      298.671      238.245      137.043        0.059        0.034       22.565        8.801        0.152      341.081       15.548      858.286
09/14/2013  04:14:00       -9.480      -15.171        7.012       15.828       16.318       10.194      250.537      266.293      103.913        0.049        0.031       17.889        8.190        0.210      341.072       15.530      858.284
09/14/2013  04:15:00      -63.304      -41.455       -5.332       18.252       17.761        9.303      333.139      315.445       86.539        0.324        0.037       75.670        7.199        0.009      341.031       15.461      858.280
09/14/2013  04:16:00      -53.121      -41.691       -2.198       40.108       27.540       14.755     1608.687      758.436      217.722        0.357        0.129       67.528       10.309        0.023      341.004       15.415      858.295
09/14/2013  04:17:00      -70.294      -50.149       -0.127       41.704       35.054       24.327     1739.251     1228.797      591.783        0.551        0.178       86.349       18.273        0.045      341.005       15.418      858.309
09/14/2013  04:18:00     -108.268      -66.095        7.212       49.237       36.493       21.755     2424.329     1331.759      473.266        1.019        0.211      126.848       18.762        0.022      341.204       15.754      858.320
09/14/2013  04:19:00     -101.375      -61.985        6.162       57.488       33.823       19.285     3304.816     1143.981      371.898        0.949        0.241      118.823       20.829        0.031      341.193       15.736      858.330
09/14/2013  04:20:00      -83.778      -55.585       -3.075       36.036       31.389       20.302     1298.627      985.281      412.160        0.641        0.135      100.540       23.891        0.056      341.152       15.666      858.337
09/14/2013  04:21:00      -58.336      -31.491        2.159       21.140       19.923       17.114      446.897      396.942      292.891        0.277        0.057       66.293       14.535        0.048      341.172       15.702      858.344
09/14/2013  04:22:00      -12.576      -29.202       13.500       30.806       29.460       14.338      949.034      867.905      205.565        0.161        0.101       31.795       16.289        0.262      341.193       15.736      858.341
09/14/2013  04:23:00      -67.485      -40.689        1.277       40.881       20.211       16.755     1671.264      408.484      280.721        0.429        0.118       78.803       21.728        0.076      341.165       15.689      858.344
09/14/2013  04:24:00      -39.261      -24.933        3.925       27.270       16.101       11.401      743.672      259.228      129.979        0.166        0.057       46.509       11.383        0.060      341.187       15.727      858.347
09/14/2013  04:25:00      -17.554      -34.599        2.778       23.342       21.974       15.071      544.865      482.868      227.120        0.138        0.063       38.797       11.489        0.088      341.323       15.957      858.344
09/14/2013  04:26:00      -48.652      -20.407        7.790       28.420       14.555       13.675      807.686      211.848      187.001        0.203        0.060       52.758       13.766        0.068      341.202       15.752      858.353
09/14/2013  04:27:00      -47.837      -28.125        1.110       28.381       22.110       13.384      805.470      488.834      179.145        0.228        0.074       55.493       14.324        0.067      341.285       15.892      858.352
09/14/2013  04:28:00      -26.677      -45.682       -4.319       18.046       20.458       11.970      325.656      418.513      143.285        0.185        0.044       52.901       12.042        0.052      341.346       15.995      858.353
09/14/2013  04:29:00      -36.505      -37.815        3.870       32.888       16.768       16.644     1081.634      281.157      277.018        0.221        0.082       52.561       16.062        0.093      341.232       15.801      858.347
09/14/2013  04:30:00      -35.321      -30.337       -5.387       17.104        9.065        9.364      292.542       82.178       87.683        0.133        0.023       46.561        4.144        0.008      341.244       15.823      858.348
09/14/2013  04:31:00      -25.597      -15.076        0.646       21.123       11.795       10.536      446.164      139.128      111.010        0.079        0.035       29.707        6.832        0.053      341.174       15.704      858.353
09/14/2013  04:32:00     -104.818      -24.422       -6.178       14.969       10.356        8.168      224.057      107.250       66.721        0.601        0.020      107.625        6.152        0.003      341.093       15.568      858.352
09/14/2013  04:33:00      -76.244      -11.381       -2.477       27.425       18.212       12.986      752.148      331.662      168.629        0.360        0.063       77.088       14.126        0.034      341.046       15.488      858.350
09/14/2013  04:34:00      -96.177      -18.698       -4.156       26.432       22.425       10.848      698.633      502.881      117.686        0.547        0.066       97.978        9.100        0.009      341.005       15.418      858.349
09/14/2013  04:35:00     -114.774      -53.780       -4.581       18.575       18.169       10.237      345.026      330.100      104.798        0.843        0.039      126.750        7.895        0.004      341.170       15.698      858.348
09/14/2013  04:36:00      -90.722       -7.368       -5.989       27.661       30.349       15.386      765.119      921.044      236.740        0.512        0.096       91.020        9.700        0.011      341.022       15.446      858.346
09/14/2013  04:37:00      -80.357       22.405       -6.534       31.022       19.062       16.662      962.386      363.376      277.622        0.430        0.080       83.422       13.164        0.025      340.921       15.275      858.351
09/14/2013  04:38:00      -33.318        6.091       -9.034       19.352       21.600       11.642      374.481      466.549      135.533        0.110        0.049       33.870        7.697        0.052      340.878       15.203      858.351
09/14/2013  04:39:00      -35.824       -2.239       -7.629       17.856       21.643       11.709      318.822      468.437      137.092        0.114        0.046       35.894        8.702        0.059      340.877       15.201      858.370
09/14/2013  04:40:00      -18.627      -21.880       -4.570       16.481       17.019        9.307      271.609      289.629       86.625        0.075        0.032       28.735        8.155        0.081      340.888       15.221      858.373
09/14/2013  04:41:00       -2.958      -31.794       -7.584       18.343       15.929        9.082      336.452      253.746       82.483        0.087        0.034       31.931        6.009        0.035      341.095       15.569      858.381
09/14/2013  04:42:00       -2.075      -24.881       -1.670       10.751        7.961       11.316      115.574       63.379      128.042        0.047        0.015       24.967        7.806        0.098      341.103       15.582      858.387
09/14/2013  04:43:00      -16.420       -5.616       -5.831       14.187        8.917        7.764      201.274       79.509       60.285        0.034        0.017       17.354        4.549        0.069      341.098       15.575      858.394
09/14/2013  04:44:00      -50.964      -33.186       -5.020       18.890        8.825        7.366      356.837       77.883       54.259        0.211        0.024       60.816        6.353        0.011      341.091       15.565      858.401
09/14/2013  04:45:00      -93.472      -23.059       -8.324       17.939       12.479        9.357      321.817      155.721       87.553        0.495        0.028       96.274        7.868        0.007      340.987       15.387      858.413
09/14/2013  04:46:00      -84.751      -19.674      -10.592       28.813       16.186       13.982      830.182      261.987      195.493        0.448        0.064       87.004       16.581        0.036      340.886       15.216      858.416
09/14/2013  04:47:00      -68.390      -38.575      -10.890       16.683       11.610        8.081      278.318      134.793       65.307        0.338        0.024       78.518        2.544        0.001      340.890       15.224      858.417
09/14/2013  04:48:00      -88.016      -40.598       -1.362       14.637       13.076       10.238      214.232      170.979      104.814        0.494        0.025       96.928        7.385        0.006      340.929       15.289      858.415
09/14/2013  04:49:00      -49.672      -32.027        3.274       31.875       20.528       16.070     1016.042      421.418      258.245        0.260        0.085       59.102       15.233        0.066      340.944       15.314      858.408
09/14/2013  04:50:00      -84.794      -45.927        4.110       22.400       15.933       11.662      501.776      253.857      135.992        0.510        0.045       96.433        9.980        0.011      341.001       15.413      858.407
09/14/2013  04:51:00      -64.986      -40.985        7.473       36.746       22.103       16.054     1350.302      488.526      257.719        0.403        0.105       76.831       17.919        0.054      341.026       15.455      858.402
09/14/2013  04:52:00      -51.614      -37.584        2.658       34.181       20.313       16.050     1168.324      412.600      257.600        0.296        0.092       63.848       11.849        0.034      341.112       15.598      858.404
09/14/2013  04:53:00      -55.933      -28.035        1.264       26.198       18.698       13.799      686.325      349.607      190.403        0.257        0.061       62.565       14.517        0.054      341.107       15.591      858.409
09/14/2013  04:54:00      -76.762      -22.752       -0.392       27.755       18.852       14.209      770.318      355.396      201.884        0.387        0.066       80.063       13.482        0.028      341.095       15.570      858.414
09/14/2013  04:55:00      -47.502      -26.978        6.509       37.483       20.229       13.585     1404.962      409.194      184.558        0.251        0.100       54.628       14.909        0.074      341.049       15.492      858.416
09/14/2013  04:56:00     -105.449      -31.140       -1.886       18.586       21.470       11.275      345.441      460.941      127.121        0.651        0.047      109.951        7.060        0.004      340.937       15.304      858.410
09/14/2013  04:57:00      -93.653      -50.045       -0.714       27.227       19.888       12.442      741.326      395.517      154.815        0.628        0.065      106.186       10.951        0.011      340.948       15.321      858.394
09/14/2013  04:58:00      -74.177      -53.416        3.486       27.842       26.470       16.913      775.160      700.678      286.044        0.506        0.088       91.409       13.192        0.021      341.007       15.422      858.379
09/14/2013  04:59:00     -113.644      -37.124       -2.731       19.940       26.825       15.663      397.607      719.589      245.341        0.783        0.068      119.554       10.432        0.008      341.001       15.411      858.374
09/14/2013  05:00:00      -97.166      -20.210       -2.209       32.257       23.727       14.903     1040.486      562.982      222.112        0.584        0.091       99.246       14.334        0.021      340.864       15.179      858.370
09/14/2013  05:01:00     -102.908      -34.548        0.151       29.054       30.931       17.633      844.156      956.696      310.907        0.695        0.106      108.552       18.277        0.028      340.823       15.110      858.366
09/14/2013  05:02:00      -46.668      -56.033        4.289       40.673       25.290       19.854     1654.258      639.603      394.181        0.401        0.134       72.922       16.426        0.051      340.951       15.325      858.369
09/14/2013  05:03:00      -81.598      -72.128       -5.124       31.853       28.545       12.367     1014.615      814.809      152.934        0.693        0.099      108.907        9.249        0.007      341.024       15.449      858.362
09/14/2013  05:04:00      -97.788      -53.253       -3.007       29.783       19.397       14.569      887.026      376.238      212.254        0.694        0.074      111.348       13.103        0.014      341.031       15.462      858.355
09/14/2013  05:05:00      -78.763      -83.244       -6.288       30.972       33.333       15.209      959.276     1111.120      231.313        0.774        0.115      114.601       10.434        0.008      341.023       15.450      858.360
09/14/2013  05:06:00      -43.772      -51.683        6.174       34.050       21.019       18.450     1159.374      441.817      340.403        0.328        0.097       67.729       19.306        0.081      341.035       15.471      858.354
09/14/2013  05:07:00      -53.425      -21.063       -0.240       23.838       21.837       16.768      568.250      476.841      281.161        0.231        0.066       57.427       17.766        0.096      340.956       15.336      858.348
09/14/2013  05:08:00      -66.603      -46.257        2.951       30.122       18.871       17.960      907.316      356.099      322.558        0.408        0.079       81.090       16.499        0.041      341.039       15.475      858.351
09/14/2013  05:09:00      -66.956      -28.721       -0.204       23.441       18.364       16.370      549.494      337.242      267.981        0.323        0.058       72.856       14.528        0.040      340.915       15.265      858.354
09/14/2013  05:10:00      -68.357      -33.653        0.336       32.382       18.961       12.936     1048.603      359.531      167.335        0.369        0.079       76.192       14.042        0.034      340.863       15.177      858.357
09/14/2013  05:11:00      -28.067      -22.121       -3.884       30.541       18.851       10.961      932.782      355.367      120.139        0.135        0.070       35.737        9.185        0.066      340.881       15.207      858.363
09/14/2013  05:12:00      -16.880      -42.618       -7.005       20.003       19.383       12.694      400.123      375.684      161.149        0.154        0.047       45.839       11.469        0.063      340.995       15.402      858.374
09/14/2013  05:13:00      -31.878      -22.558       -5.888       14.138       27.663       12.906      199.897      765.249      166.576        0.135        0.057       39.052       15.800        0.164      340.959       15.338      858.398
09/14/2013  05:14:00      -28.396        8.255        3.367       19.851        9.590        9.316      394.066       91.966       86.796        0.073        0.029       29.572        5.802        0.038      340.942       15.312      858.419
09/14/2013  05:15:00        1.651      -15.458       -0.759        8.200       12.662        9.077       67.246      160.315       82.387        0.028        0.015       15.546        6.253        0.162      340.986       15.386      858.436
09/14/2013  05:16:00        2.816      -16.889        7.406        9.208       13.637        9.041       84.790      185.970       81.740        0.035        0.018       17.122        3.183        0.035      340.949       15.322      858.453
09/14/2013  05:17:00        2.175        2.180        7.416        8.473        9.682        8.520       71.783       93.746       72.583        0.015        0.012        3.080        6.795        4.868      340.948       15.321      858.461
09/14/2013  05:18:00      -18.040      -12.232        0.887       21.354       11.327        7.724      456.009      128.295       59.659        0.056        0.032       21.796        7.173        0.108      340.997       15.403      858.474
09/14/2013  05:19:00      -48.857      -31.754       -5.597       17.281       14.661        7.201      298.645      214.940       51.858        0.200        0.028       58.270        5.994        0.011      340.976       15.368      858.486
09/14/2013  05:20:00      -21.065      -37.232        8.117       22.502       28.342       14.580      506.336      803.269      212.579        0.171        0.076       42.778       11.345        0.070      340.963       15.344      858.497
09/14/2013  05:21:00      -77.704      -95.048       -1.430       37.793       42.260       24.393     1428.317     1785.895      595.010        0.944        0.190      122.768       22.969        0.035      340.991       15.393      858.501
09/14/2013  05:22:00      -93.792      -80.637       -3.215       43.068       48.978       35.228     1854.866     2398.860     1241.037        1.040        0.275      123.690       32.632        0.070      340.924       15.281      858.501
09/14/2013  05:23:00     -104.411      -66.719       -1.550       37.092       29.200       26.757     1375.783      852.619      715.917        0.915        0.147      123.908       22.073        0.032      340.948       15.321      858.499
09/14/2013  05:24:00     -108.666      -96.126       -3.042       28.099       26.778       20.088      789.548      717.062      403.533        1.148        0.096      145.081       14.567        0.010      340.951       15.327      858.498
09/14/2013  05:25:00      -99.044      -95.029      -10.603       23.904       34.325       19.571      571.392     1178.211      383.039        1.054        0.107      137.260       13.012        0.009      340.955       15.332      858.504
09/14/2013  05:26:00      -91.441      -91.106       -4.746       35.041       34.909       18.630     1227.846     1218.648      347.064        0.974        0.140      129.081       18.671        0.021      340.929       15.290      858.512
09/14/2013  05:27:00      -68.493      -55.288       -2.909       39.567       26.804       22.679     1565.587      718.459      514.351        0.528        0.140       88.023       17.674        0.040      340.897       15.234      858.508
09/14/2013  05:28:00      -84.241      -61.135        0.084       47.838       37.287       19.316     2288.469     1390.322      373.118        0.744        0.203      104.086       22.238        0.046      340.873       15.195      858.504
09/14/2013  05:29:00      -73.397      -39.194        2.201       33.239       28.197       17.130     1104.816      795.063      293.442        0.456        0.110       83.207       17.180        0.043      340.851       15.156      858.502
09/14/2013  05:30:00      -93.702      -30.160       -0.270       23.215       17.890       18.025      538.938      320.049      324.900        0.544        0.059       98.436       14.891        0.023      340.800       15.071      858.491
09/14/2013  05:31:00      -70.467      -14.377       -4.404       34.173       25.827       13.236     1167.775      667.045      175.180        0.360        0.100       71.918       17.932        0.062      340.724       14.941      858.493
09/14/2013  05:32:00      -76.092        0.965       -5.124       20.560       18.712        9.831      422.697      350.140       96.640        0.334        0.043       76.098        6.995        0.008      340.617       14.761      858.488
09/14/2013  05:33:00      -51.529       -2.331       -5.675       20.580       12.355        9.446      423.547      152.643       89.224        0.168        0.033       51.582        5.843        0.013      340.624       14.775      858.492
09/14/2013  05:34:00      -21.278       15.886       -2.563       16.720       10.565        8.579      279.551      111.621       73.593        0.059        0.023       26.554        5.041        0.036      340.570       14.682      858.502
09/14/2013  05:35:00      -25.086       -0.104        1.819       20.955       11.800        6.589      439.100      139.230       43.415        0.063        0.031       25.086        2.349        0.009      340.587       14.710      858.495
09/14/2013  05:36:00      -38.535       -4.210       -0.358       16.318       10.283        5.729      266.266      105.736       32.826        0.095        0.020       38.764        6.355        0.027      340.677       14.864      858.495
09/14/2013  05:37:00      -72.828      -17.411       -6.777       11.798       11.631        7.903      139.182      135.275       62.464        0.299        0.017       74.881        4.215        0.003      340.739       14.967      858.498
09/14/2013  05:38:00      -56.699      -10.177       -8.136       17.455       13.609       11.679      304.675      185.193      136.390        0.201        0.031       57.605        8.680        0.023      340.597       14.728      858.504
09/14/2013  05:39:00      -21.146      -14.443       -1.753       12.384       11.924        9.199      153.374      142.178       84.626        0.052        0.019       25.608        6.430        0.063      340.579       14.697      858.503
09/14/2013  05:40:00       -6.569       -6.371        1.556        8.244       11.986        7.368       67.961      143.666       54.291        0.018        0.013        9.151        5.463        0.356      340.595       14.726      858.515
09/14/2013  05:41:00      -19.202       -5.991       -2.812       14.592       13.638        8.867      212.927      186.006       78.617        0.044        0.024       20.115        7.844        0.152      340.628       14.780      858.539
09/14/2013  05:42:00       -8.089      -14.446       -1.026       12.709        8.104        8.411      161.527       65.679       70.746        0.029        0.015       16.557        4.473        0.073      340.653       14.824      858.562
09/14/2013  05:43:00        5.550       -9.175        7.613        6.752        6.177        6.174       45.595       38.151       38.119        0.015        0.006       10.723        4.819        0.202      340.679       14.868      858.576
09/14/2013  05:44:00       17.741       10.036        9.012       15.357       16.287        9.048      235.843      265.262       81.864        0.054        0.029       20.383       10.484        0.265      340.646       14.808      858.581
09/14/2013  05:45:00       13.630       14.369        3.642        9.978        9.183        3.284       99.556       84.327       10.782        0.030        0.010       19.805        4.376        0.049      340.616       14.757      858.582
09/14/2013  05:46:00       -6.867        4.801        2.096        8.794        3.815        3.825       77.333       14.553       14.633        0.009        0.005        8.379        3.673        0.192      340.646       14.810      858.575
09/14/2013  05:47:00      -31.733       -0.131       -3.610        5.903        5.781        5.625       34.847       33.414       31.644        0.056        0.005       31.733        3.586        0.013      340.590       14.718      858.570
09/14/2013  05:48:00      -24.603        5.464       -2.422        5.529        4.520        4.377       30.572       20.429       19.156        0.036        0.004       25.203        3.135        0.015      340.639       14.799      858.558
09/14/2013  05:49:00      -33.693        1.251       -3.364        6.174        3.958        3.199       38.113       15.665       10.234        0.061        0.003       33.716        2.306        0.005      340.784       15.042      858.553
09/14/2013  05:50:00      -47.403       -2.481       -5.039        8.438        8.647        7.647       71.201       74.764       58.478        0.124        0.010       47.468        5.576        0.014      340.656       14.827      858.558
09/14/2013  05:51:00      -34.203        0.467       -4.773        6.599        5.758        5.264       43.550       33.154       27.713        0.065        0.005       34.206        4.253        0.015      340.563       14.668      858.562
09/14/2013  05:52:00      -36.666       14.842       -3.362        7.612        7.908        5.545       57.937       62.532       30.749        0.086        0.008       39.556        4.878        0.015      340.764       15.007      858.557
09/14/2013  05:53:00      -40.480       -2.493       -4.464        6.882       10.826        6.157       47.362      117.205       37.903        0.093        0.010       40.557        4.286        0.011      340.677       14.861      858.559
09/14/2013  05:54:00      -24.853      -10.623       -3.934        8.178        5.194        4.423       66.877       26.973       19.566        0.043        0.006       27.029        2.905        0.012      340.592       14.719      858.552
09/14/2013  05:55:00      -33.279      -13.150       -6.444        5.716        5.922        5.632       32.672       35.066       31.716        0.071        0.005       35.783        4.373        0.015      340.507       14.574      858.541
09/14/2013  05:56:00      -33.661       -8.134       -6.273        5.515        4.503        5.435       30.417       20.280       29.534        0.066        0.004       34.630        3.260        0.009      340.575       14.689      858.542
09/14/2013  05:57:00      -47.213      -18.455       -9.872        5.943        6.264        6.762       35.317       39.238       45.726        0.139        0.006       50.692        3.468        0.005      340.653       14.824      858.543
09/14/2013  05:58:00      -50.183      -14.082      -10.084        8.777       11.906        6.180       77.028      141.760       38.193        0.154        0.013       52.121        5.041        0.009      340.524       14.605      858.548
09/14/2013  05:59:00      -48.868      -11.705       -9.660        6.115        7.273        6.046       37.396       52.895       36.555        0.137        0.006       50.250        3.050        0.004      340.444       14.468      858.559
09/14/2013  06:00:00      -44.344      -14.545       -5.150        7.454        6.171        4.388       55.560       38.084       19.254        0.116        0.006       46.669        2.887        0.004      340.422       14.430      858.562
09/14/2013  06:01:00      -55.364      -16.005       -8.660        5.827        6.446        5.956       33.955       41.547       35.469        0.175        0.006       57.631        3.050        0.003      340.500       14.564      858.560
09/14/2013  06:02:00      -76.721      -21.024       -8.483       26.666       10.437        9.657      711.071      108.923       93.263        0.366        0.046       79.550        7.158        0.008      340.457       14.493      858.562
09/14/2013  06:03:00     -101.469      -20.684      -12.355       16.009       12.878       11.349      256.286      165.848      128.791        0.571        0.028      103.556        7.490        0.005      340.325       14.268      858.573
09/14/2013  06:04:00      -71.580      -36.750       -6.197       10.879       13.374       10.402      118.347      178.873      108.202        0.346        0.020       80.463        7.280        0.008      340.349       14.308      858.575
09/14/2013  06:05:00      -99.523      -24.708      -10.315       22.933       16.241        9.426      525.917      263.786       88.854        0.575        0.044      102.544        6.237        0.004      340.388       14.373      858.576
09/14/2013  06:06:00     -114.809      -31.946      -18.591       13.719       15.295        9.938      188.215      233.923       98.756        0.753        0.026      119.170        6.198        0.003      340.367       14.339      858.580
09/14/2013  06:07:00     -113.015       -6.102      -15.356       22.319       14.746       12.682      498.145      217.454      160.831        0.696        0.044      113.179       12.674        0.013      340.321       14.262      858.588
09/14/2013  06:08:00     -103.644        2.678      -13.040       16.315       15.013       11.417      266.173      225.404      130.350        0.577        0.031      103.679        7.125        0.005      340.510       14.581      858.596
09/14/2013  06:09:00      -85.891      -17.888      -10.808       20.133       15.127       15.099      405.341      228.826      227.966        0.434        0.043       87.734       12.680        0.021      340.360       14.326      858.608
09/14/2013  06:10:00      -69.534      -19.966       -5.433       16.141       21.430       16.935      260.534      459.232      286.793        0.313        0.050       72.344       11.668        0.026      340.449       14.479      858.609
09/14/2013  06:11:00      -79.103      -26.952      -11.697       23.479       16.259       14.553      551.240      264.371      211.781        0.407        0.051       83.569        6.707        0.006      340.354       14.316      858.613
09/14/2013  06:12:00      -91.755      -15.644       -8.077       16.945       22.935       12.117      287.137      525.997      146.832        0.484        0.048       93.079        5.914        0.004      340.365       14.335      858.609
09/14/2013  06:13:00      -58.351      -32.740       -4.625       21.442       22.102       15.144      459.758      488.481      229.343        0.284        0.059       66.908       12.012        0.032      340.334       14.283      858.612
09/14/2013  06:14:00      -98.802      -55.018      -11.104       13.832       12.081       12.538      191.332      145.942      157.199        0.670        0.025      113.088       10.132        0.008      340.397       14.391      858.619
09/14/2013  06:15:00      -76.436      -23.524       -3.015       24.852       21.937       11.198      617.608      481.228      125.405        0.381        0.061       79.974        9.328        0.014      340.395       14.385      858.621
09/14/2013  06:16:00      -91.152      -23.051       -8.101       18.340       15.615       11.843      336.349      243.829      140.267        0.481        0.036       94.021        9.956        0.011      340.286       14.202      858.623
09/14/2013  06:17:00      -95.286      -16.499       -2.547       19.163       17.717       10.262      367.215      313.881      105.310        0.507        0.039       96.704        7.812        0.007      340.285       14.199      858.633
09/14/2013  06:18:00     -104.137       -6.622      -10.798       32.065       17.552       17.168     1028.184      308.078      294.732        0.632        0.082      104.348       18.598        0.032      340.301       14.225      858.641
09/14/2013  06:19:00     -125.240      -10.097      -12.646       17.046       15.797       13.822      290.562      249.540      191.052        0.834        0.037      125.647        8.329        0.004      340.323       14.263      858.653
09/14/2013  06:20:00      -73.994      -26.268        0.011       25.541       18.895       13.818      652.336      357.023      190.931        0.368        0.060       78.519       12.140        0.024      340.341       14.294      858.655
09/14/2013  06:21:00     -102.259      -25.784       -6.669       15.595       11.220        9.892      243.193      125.883       97.848        0.582        0.023      105.459        5.684        0.003      340.393       14.383      858.667
09/14/2013  06:22:00      -64.269       -5.661       -4.391       27.230       16.502       16.626      741.481      272.320      276.414        0.274        0.065       64.518       16.667        0.067      340.362       14.329      858.683
09/14/2013  06:23:00      -53.102       -8.868        2.016       26.311       17.113       12.296      692.251      292.855      151.187        0.202        0.057       53.837       10.879        0.041      340.451       14.482      858.691
09/14/2013  06:24:00      -58.939      -26.364       -3.322       14.582       16.716       10.362      212.635      279.440      107.362        0.239        0.030       64.566        9.119        0.020      340.586       14.710      858.700
09/14/2013  06:25:00     -102.662      -41.508       -7.961       12.586       14.652        9.394      158.418      214.696       88.256        0.639        0.023      110.736        5.409        0.002      340.520       14.596      858.710
09/14/2013  06:26:00      -74.220       -5.373       -6.762       21.240       19.899       12.161      451.149      395.989      147.883        0.329        0.050       74.414       10.723        0.021      340.392       14.383      858.717
09/14/2013  06:27:00      -60.382       -7.188       -4.420       12.865       10.858        9.137      165.497      117.896       83.492        0.204        0.018       60.809        7.935        0.017      340.546       14.641      858.719
09/14/2013  06:28:00      -77.373       -7.779       -7.715       18.067       14.297        9.908      326.420      204.394       98.173        0.337        0.031       77.763        9.064        0.014      340.574       14.690      858.728
09/14/2013  06:29:00      -80.103       -7.008      -12.388       18.192       13.807       12.933      330.962      190.647      167.260        0.365        0.034       80.409        9.761        0.015      340.486       14.540      858.730
09/14/2013  06:30:00      -95.687      -10.194       -9.567       13.055       15.854        9.053      170.433      251.346       81.950        0.493        0.025       96.229        6.834        0.005      340.530       14.614      858.728
09/14/2013  06:31:00      -91.500      -40.490       -5.763       22.281       20.176       16.796      496.427      407.075      282.112        0.562        0.059      100.059       12.712        0.016      340.373       14.348      858.728
09/14/2013  06:32:00      -73.081      -28.284       -3.772       25.071       25.431       14.462      628.552      646.756      209.139        0.382        0.074       78.364       11.046        0.020      340.301       14.227      858.727
09/14/2013  06:33:00      -58.691      -16.082       -1.538       15.274       19.422       10.164      233.306      377.231      103.298        0.221        0.036       60.855        5.984        0.010      340.325       14.268      858.724
09/14/2013  06:34:00      -57.076      -28.786       -3.044       17.234       21.072       15.199      296.997      444.011      231.015        0.253        0.049       63.924       10.509        0.027      340.331       14.276      858.734
09/14/2013  06:35:00      -91.376      -31.070       -8.098       24.057       21.980       17.542      578.744      483.121      307.712        0.537        0.068       96.514       13.855        0.021      340.295       14.216      858.737
09/14/2013  06:36:00      -74.076      -35.064       -2.204       22.145       19.621       13.134      490.412      384.984      172.505        0.388        0.052       81.956       10.187        0.015      340.249       14.139      858.745
09/14/2013  06:37:00      -90.756      -12.430       -6.787       25.031       20.218       12.530      626.547      408.778      156.995        0.481        0.060       91.604       13.382        0.021      340.250       14.140      858.762
09/14/2013  06:38:00      -91.224      -18.837       -7.464       35.048       17.360       15.441     1228.380      301.369      238.433        0.525        0.088       93.148       15.120        0.026      340.217       14.085      858.777
09/14/2013  06:39:00     -115.383      -24.973       -4.819       16.185       16.942       12.309      261.961      287.033      151.521        0.733        0.035      118.054        6.546        0.003      340.286       14.203      858.781
09/14/2013  06:40:00      -73.732       -1.251        0.500       19.129       17.570       18.061      365.909      308.717      326.197        0.322        0.050       73.742       13.269        0.032      340.261       14.158      858.791
09/14/2013  06:41:00      -78.130      -13.159       -1.759       25.523       18.593       13.402      651.420      345.697      179.627        0.373        0.059       79.230       10.792        0.019      340.301       14.228      858.806
09/14/2013  06:42:00      -67.829       -4.605       -2.297       23.997       18.943       14.487      575.862      358.853      209.873        0.289        0.057       67.985       12.184        0.032      340.279       14.189      858.818
09/14/2013  06:43:00      -72.334        0.775       -6.927       35.125       23.548       14.091     1233.787      554.505      198.566        0.363        0.099       72.339       15.421        0.045      340.296       14.218      858.816
09/14/2013  06:44:00      -63.922        4.341       -7.117       27.219       21.458       15.225      740.875      460.442      231.799        0.279        0.072       64.069       13.446        0.044      340.355       14.319      858.814
09/14/2013  06:45:00      -66.963       18.743       -8.948       26.926       25.886       22.500      725.011      670.062      506.240        0.341        0.095       69.537       11.185        0.026      340.456       14.487      858.822
09/14/2013  06:46:00      -95.226       13.482       -9.122       36.266       26.735       15.703     1315.206      714.741      246.598        0.580        0.114       96.176       13.064        0.018      340.429       14.444      858.836
09/14/2013  06:47:00      -85.595        4.153       -9.221       44.922       30.763       17.471     2018.024      946.382      305.251        0.535        0.163       85.696       15.551        0.033      340.386       14.371      858.843
09/14/2013  06:48:00      -89.562       -1.162       -4.423       35.838       26.726       18.875     1284.370      714.273      356.279        0.520        0.118       89.570       18.683        0.044      340.360       14.329      858.843
09/14/2013  06:49:00      -92.042      -29.562       -3.038       23.470       31.668       17.658      550.820     1002.870      311.788        0.561        0.093       96.673       12.058        0.016      340.377       14.357      858.850
09/14/2013  06:50:00      -99.162      -24.358        1.994       26.912       31.926       18.047      724.262     1019.300      325.705        0.625        0.103      102.110       10.619        0.011      340.323       14.263      858.857
09/14/2013  06:51:00     -126.283      -15.206       -6.179       44.516       27.909       18.237     1981.670      778.929      332.601        0.965        0.155      127.195       21.651        0.029      340.271       14.177      858.866
09/14/2013  06:52:00      -97.595      -19.737       -6.155       44.128       29.454       23.430     1947.324      867.525      548.982        0.666        0.168       99.570       27.720        0.078      340.267       14.170      858.880
09/14/2013  06:53:00     -115.439       -0.221       -9.475       38.200       26.721       16.880     1459.210      714.020      284.923        0.794        0.123      115.439       17.550        0.023      340.282       14.194      858.885
09/14/2013  06:54:00     -109.003      -30.188       -4.572       33.056       29.113       18.403     1092.730      847.545      338.665        0.755        0.114      113.106       15.711        0.019      340.287       14.204      858.894
09/14/2013  06:55:00      -85.821        5.475       -5.848       38.452       35.693       19.484     1478.573     1273.965      379.627        0.528        0.157       85.995       17.238        0.040      340.254       14.149      858.905
09/14/2013  06:56:00      -87.929       16.619       -6.361       30.948       24.489       20.912      957.765      599.715      437.316        0.502        0.100       89.485       18.473        0.043      340.287       14.203      858.915
09/14/2013  06:57:00      -61.559       19.998        6.126       32.934       24.697       29.189     1084.648      609.924      851.979        0.339        0.127       64.726       20.722        0.102      340.351       14.311      858.927
09/14/2013  06:58:00      -84.869       28.408       -2.216       35.130       24.381       21.414     1234.094      594.437      458.575        0.515        0.114       89.497       11.959        0.018      340.404       14.402      858.938
09/14/2013  06:59:00      -88.393        2.499       -6.226       20.404       23.722       13.993      416.324      562.751      195.809        0.452        0.059       88.429        8.215        0.009      340.456       14.489      858.956
09/14/2013  07:00:00      -86.231       -8.378       -9.062       49.919       22.751       14.111     2491.893      517.596      199.116        0.540        0.160       86.637       19.451        0.050      340.490       14.545      858.973
09/14/2013  07:01:00     -110.625        0.571       -8.589       46.339       22.058       18.784     2147.330      486.553      352.839        0.765        0.149      110.626       21.507        0.038      340.480       14.531      858.987
09/14/2013  07:02:00     -107.524      -24.299      -11.337       32.783       28.359       21.191     1074.724      804.227      449.062        0.730        0.116      110.235       21.709        0.039      340.433       14.450      859.003
09/14/2013  07:03:00      -58.780       -6.969        1.677       31.308       27.821       18.559      980.189      773.998      344.427        0.280        0.105       59.192       14.522        0.060      340.460       14.495      859.006
09/14/2013  07:04:00      -78.288      -16.069        1.866       31.336       26.680       15.175      981.952      711.826      230.280        0.416        0.096       79.920       13.961        0.031      340.494       14.554      859.010
09/14/2013  07:05:00      -97.717      -38.498       -3.531       12.898       19.978        8.608      166.353      399.133       74.089        0.584        0.032      105.027        6.025        0.003      340.483       14.535      859.012
09/14/2013  07:06:00     -100.208      -46.620       -1.636       22.022       15.838       10.440      484.967      250.843      108.990        0.653        0.042      110.522       10.054        0.008      340.530       14.614      859.013
09/14/2013  07:07:00     -112.614      -50.246      -10.562       12.464       15.343        9.838      155.353      235.400       96.787        0.790        0.024      123.315        5.690        0.002      340.544       14.636      859.008
09/14/2013  07:08:00      -97.451      -38.857       -0.742       35.630       23.769       17.111     1269.481      564.987      292.802        0.657        0.106      104.912       20.509        0.038      340.514       14.588      859.004
09/14/2013  07:09:00     -119.621      -22.439       -8.587       15.828       16.706        9.023      250.535      279.096       81.407        0.775        0.031      121.708        7.231        0.004      340.594       14.721      859.001
09/14/2013  07:10:00      -86.582      -42.213       -3.794       14.654        8.947        7.705      214.738       80.048       59.370        0.482        0.018       96.324        4.263        0.002      340.670       14.850      859.010
09/14/2013  07:11:00      -75.811      -35.883       -4.443       13.729       12.224       10.255      188.488      149.422      105.161        0.375        0.022       83.874        6.951        0.007      340.688       14.881      859.020
09/14/2013  07:12:00      -83.563      -38.806      -13.874       12.782       13.599       12.385      163.372      184.926      153.379        0.459        0.025       92.134        6.779        0.005      340.703       14.907      859.025
09/14/2013  07:13:00      -71.249      -35.682       -6.382       17.964       14.616        9.927      322.692      213.614       98.542        0.351        0.032       79.684        5.394        0.005      340.680       14.867      859.030
09/14/2013  07:14:00      -56.237      -26.977       -5.677       18.067       11.071       11.181      326.410      122.571      125.004        0.225        0.029       62.373        9.784        0.025      340.724       14.943      859.024
09/14/2013  07:15:00      -37.794      -30.097       -0.510       27.865       21.666       14.229      776.455      469.419      202.470        0.189        0.072       48.314        9.696        0.040      340.719       14.933      859.032
09/14/2013  07:16:00      -58.718      -53.981       -2.450       28.216       16.451       17.386      796.139      270.646      302.288        0.387        0.068       79.760       13.385        0.028      340.677       14.863      859.043
09/14/2013  07:17:00      -62.200      -22.938       -4.535       12.749       18.002       10.410      162.530      324.080      108.361        0.251        0.030       66.295        7.001        0.011      340.680       14.869      859.055
09/14/2013  07:18:00      -39.335      -23.252        4.274       30.790       18.816       15.059      948.040      354.036      226.771        0.182        0.076       45.694       15.604        0.117      340.737       14.964      859.053
09/14/2013  07:19:00      -66.425      -31.448       -6.274       16.290       13.851       11.304      265.377      191.864      127.775        0.301        0.029       73.493        7.756        0.011      340.737       14.964      859.061
09/14/2013  07:20:00      -55.699      -25.484       -9.647       11.784       11.511        6.637      138.853      132.503       44.056        0.208        0.016       61.252        4.478        0.005      340.783       15.041      859.064
09/14/2013  07:21:00      -55.948      -16.935       -2.058       13.942       18.169       10.722      194.385      330.096      114.960        0.203        0.032       58.455        7.152        0.015      340.847       15.149      859.055
09/14/2013  07:22:00      -72.257      -20.560       -4.354       13.422       12.463        8.322      180.144      155.316       69.253        0.303        0.020       75.125        4.920        0.004      340.912       15.260      859.060
09/14/2013  07:23:00      -66.313       -4.978       -7.901       19.910       15.245       12.674      396.409      232.407      160.622        0.264        0.039       66.500        9.613        0.021      340.877       15.199      859.060
09/14/2013  07:24:00      -90.303      -24.885       -3.844       19.441       16.038       11.961      377.954      257.208      143.067        0.478        0.039       93.669        8.211        0.008      340.914       15.264      859.070
09/14/2013  07:25:00     -110.756      -24.972       -5.765       26.482       17.815       12.635      701.320      317.390      159.638        0.705        0.059      113.536       10.930        0.009      340.933       15.295      859.082
09/14/2013  07:26:00      -73.334      -28.549       -2.745       14.741       12.226        7.652      217.300      149.469       58.546        0.331        0.021       78.695        5.226        0.004      340.988       15.390      859.083
09/14/2013  07:27:00      -16.600      -24.154        4.806       17.576       11.124        8.806      308.910      123.742       77.538        0.070        0.026       29.308        6.659        0.052      341.044       15.485      859.099
09/14/2013  07:28:00      -17.489      -26.171        0.945       16.066       22.319       14.517      258.107      498.116      210.736        0.098        0.048       31.477       12.229        0.151      341.184       15.721      859.103
09/14/2013  07:29:00       -1.343      -22.360        2.159       10.688       10.114        9.661      114.239      102.284       93.339        0.041        0.015       22.400        4.779        0.046      341.234       15.806      859.114
09/14/2013  07:30:00      -14.149      -13.026        4.960       16.029        9.241        9.106      256.923       85.387       82.917        0.041        0.021       19.233        7.697        0.160      341.367       16.031      859.111
09/14/2013  07:31:00        0.290       -1.416       -1.503       15.886       14.989       14.610      252.350      224.672      213.465        0.035        0.035        1.445        5.961       17.007      341.453       16.176      859.118
09/14/2013  07:32:00       15.431      -40.169       -6.602       22.549       18.154       17.470      508.463      329.570      305.196        0.152        0.057       43.031       12.463        0.084      341.211       15.767      859.119
09/14/2013  07:33:00       24.903      -21.138       12.056       21.763       22.806       21.623      473.618      520.099      467.556        0.134        0.073       32.665       16.194        0.246      341.375       16.044      859.126
09/14/2013  07:34:00        6.738       11.150       29.471       27.277       26.522       23.970      744.039      703.421      574.570        0.153        0.101       13.027       23.969        3.385      341.511       16.274      859.125
09/14/2013  07:35:00       -8.199       -2.424       14.351       13.819       15.434       11.499      190.975      238.194      132.225        0.042        0.028        8.550        8.236        0.928      341.523       16.294      859.126
09/14/2013  07:36:00      -24.172        1.859        4.453       10.026       12.189        9.175      100.523      148.576       84.177        0.047        0.017       24.244        7.239        0.089      341.301       15.918      859.136
09/14/2013  07:37:00       -8.492        5.481       10.397       11.113       11.867        9.805      123.502      140.833       96.129        0.029        0.018       10.107        6.207        0.377      341.700       16.595      859.138
09/14/2013  07:38:00      -15.978       -0.246        7.714       14.179        9.178        9.183      201.038       84.229       84.322        0.034        0.018       15.980        9.647        0.364      341.548       16.337      859.138
09/14/2013  07:39:00        2.748        2.415       11.808       20.075        7.995        8.114      403.021       63.923       65.830        0.034        0.027        3.658        5.715        2.441      341.639       16.491      859.150
09/14/2013  07:40:00       14.354        9.342       20.750       16.075        9.807       13.250      258.408       96.183      175.572        0.063        0.027       17.127       11.364        0.440      341.625       16.468      859.145
09/14/2013  07:41:00       10.413        0.336       20.672       15.459        7.577        9.850      238.975       57.410       97.023        0.046        0.020       10.419        7.887        0.573      341.689       16.576      859.157
09/14/2013  07:42:00      -12.412       -0.856        3.733        9.665        6.486        7.482       93.409       42.071       55.986        0.018        0.010       12.441        5.713        0.211      341.548       16.337      859.169
09/14/2013  07:43:00       -4.723        3.209        5.823       11.198        5.865        6.956      125.405       34.401       48.381        0.014        0.010        5.710        4.259        0.556      341.610       16.441      859.177
09/14/2013  07:44:00       26.965       14.071        1.795       17.254       15.861       14.349      297.698      251.561      205.899        0.084        0.038       30.416        6.104        0.040      341.443       16.158      859.180
09/14/2013  07:45:00       33.122       14.927        6.990       15.478       11.065       12.172      239.560      122.437      148.155        0.094        0.026       36.330        7.150        0.039      341.513       16.277      859.183
09/14/2013  07:46:00       42.816       26.018        8.553       13.641       14.083       14.465      186.074      198.330      209.248        0.159        0.030       50.101        8.097        0.026      341.536       16.316      859.183
09/14/2013  07:47:00       41.091       26.894       -0.077       16.345       18.447       14.937      267.169      340.298      223.119        0.162        0.042       49.110        9.668        0.039      341.477       16.216      859.184
09/14/2013  07:48:00       41.026        7.367       10.577       25.451       22.595       20.568      647.772      510.520      423.033        0.171        0.079       41.682       15.662        0.141      341.575       16.383      859.179
09/14/2013  07:49:00       42.808       26.473        5.550       21.370       17.989       21.314      456.657      323.617      454.301        0.190        0.062       50.333        7.512        0.022      341.643       16.498      859.182
09/14/2013  07:50:00       57.514       56.777       26.498       37.199       20.164       27.107     1383.757      406.594      734.780        0.488        0.126       80.818       23.157        0.082      341.536       16.315      859.180
09/14/2013  07:51:00       86.309       65.250       15.780       23.569       20.926       26.134      555.486      437.914      682.966        0.682        0.084      108.198       11.041        0.010      341.548       16.337      859.169
09/14/2013  07:52:00       97.717       61.633       -0.364       17.185       14.854       17.764      295.339      220.649      315.550        0.709        0.042      115.530        7.755        0.005      341.456       16.181      859.172
09/14/2013  07:53:00       91.824       45.731        2.902       24.566       26.653       17.805      603.504      710.394      317.028        0.608        0.082      102.582       12.651        0.015      341.450       16.171      859.169
09/14/2013  07:54:00       64.415       35.716        3.012       30.606       26.527       25.109      936.738      703.699      630.441        0.385        0.114       73.655       18.836        0.065      341.539       16.321      859.166
09/14/2013  07:55:00       29.634       33.101       33.619       24.116       18.767       20.239      581.567      352.194      409.609        0.222        0.067       44.428        3.200        0.005      341.733       16.651      859.157
09/14/2013  07:56:00       29.085       22.713       28.478       20.075       28.235       21.796      403.020      797.224      475.077        0.192        0.084       36.903       12.043        0.106      341.734       16.651      859.152
09/14/2013  07:57:00        4.897        9.414       29.251       11.933       15.834       14.530      142.392      250.728      211.124        0.079        0.030       10.612        7.235        0.465      342.130       17.324      859.149
09/14/2013  07:58:00        5.450        2.638       20.697       14.883       17.273       16.966      221.495      298.354      287.861        0.064        0.040        6.055       10.942        3.266      341.913       16.957      859.153
09/14/2013  07:59:00       25.376       -1.640       10.393       12.095       14.240       15.207      146.294      202.787      231.251        0.067        0.029       25.429        7.127        0.079      341.878       16.896      859.148
09/14/2013  08:00:00       28.257       13.363        7.504       15.486       21.916       18.157      239.801      480.308      329.680        0.104        0.052       31.258        7.743        0.061      341.919       16.967      859.141
09/14/2013  08:01:00       10.095       -6.711        4.290       20.313       25.822       13.755      412.633      666.774      189.191        0.072        0.063       12.122        7.097        0.343      342.014       17.127      859.138
09/14/2013  08:02:00       25.308       20.267       24.722       25.563       19.983       15.305      653.484      399.321      234.230        0.147        0.064       32.424       14.669        0.205      342.079       17.239      859.136
09/14/2013  08:03:00       66.937       24.578        4.305       23.046       20.664       18.880      531.138      427.005      356.469        0.321        0.066       71.307        9.705        0.019      341.715       16.620      859.132
09/14/2013  08:04:00       33.990       29.338       11.934       24.503       18.514       20.956      600.408      342.751      439.142        0.177        0.069       44.900       11.458        0.065      341.998       17.100      859.129
09/14/2013  08:05:00       76.370       43.773       11.157       31.058       20.793       21.965      964.587      432.328      482.468        0.488        0.094       88.025       12.742        0.021      341.885       16.908      859.126
09/14/2013  08:06:00       77.101       36.876        9.676       34.123       26.357       23.736     1164.400      694.682      563.408        0.491        0.121       85.466       19.222        0.051      341.920       16.968      859.127
09/14/2013  08:07:00       96.057       65.991       -4.248       20.666       17.124       16.901      427.082      293.219      285.645        0.730        0.050      116.540       11.597        0.010      341.843       16.837      859.129
09/14/2013  08:08:00       61.754       57.160       15.241       18.900       18.189       17.173      357.203      330.851      294.918        0.415        0.049       84.148       12.059        0.021      341.835       16.826      859.127
09/14/2013  08:09:00       58.972       52.255       -2.119       19.027       16.368       14.676      362.039      267.897      215.375        0.353        0.042       78.792        2.803        0.001      341.870       16.884      859.131
09/14/2013  08:10:00       56.234       59.647        7.355       24.417       31.434       24.568      596.207      988.070      603.580        0.448        0.109       81.976        8.717        0.011      341.942       17.006      859.134
09/14/2013  08:11:00       59.839       50.644        7.622       15.374       17.195       18.064      236.354      295.651      326.321        0.353        0.043       78.393        9.250        0.014      341.839       16.831      859.139
09/14/2013  08:12:00       61.099       39.209       11.384       18.847       13.239       17.653      355.193      175.267      311.629        0.312        0.042       72.598        6.274        0.007      341.873       16.889      859.153
09/14/2013  08:13:00       56.244       40.485       -5.994       23.505       21.018       15.131      552.490      441.753      228.959        0.303        0.061       69.299       14.227        0.042      341.917       16.960      859.160
09/14/2013  08:14:00       17.824       10.631        8.147       12.880       16.621       16.941      165.885      276.268      286.999        0.061        0.036       20.754        5.049        0.059      342.318       17.644      859.161
09/14/2013  08:15:00        2.778        2.812       18.633       18.080       19.419       17.909      326.885      377.099      320.716        0.069        0.051        3.953       16.039       16.466      342.539       18.019      859.170
09/14/2013  08:16:00       35.072       14.751       12.417       30.653       29.259       21.362      939.587      856.110      456.316        0.193        0.113       38.048       16.413        0.186      342.118       17.304      859.172
09/14/2013  08:17:00        8.910        2.036       -0.985       19.053       10.079       15.061      363.014      101.579      226.840        0.039        0.035        9.140        9.884        1.170      342.413       17.806      859.174
09/14/2013  08:18:00        7.915      -31.442        5.321       13.490       21.324       15.980      181.982      454.696      255.360        0.099        0.045       32.423       13.147        0.164      342.186       17.419      859.175
09/14/2013  08:19:00       -3.959       -6.933       12.458        8.664       10.937       11.659       75.066      119.627      135.942        0.027        0.017        7.984        4.668        0.342      342.521       17.990      859.187
09/14/2013  08:20:00       25.971       20.475       15.312       21.606       32.965       17.683      466.825     1086.672      312.685        0.160        0.093       33.071        9.953        0.091      342.416       17.810      859.191
09/14/2013  08:21:00        9.865      -25.394        8.000       19.028       30.805       23.501      362.078      948.958      552.281        0.133        0.093       27.243       20.972        0.593      342.446       17.862      859.197
09/14/2013  08:22:00       45.937      -19.018        6.077       36.736       46.788       25.209     1349.568     2189.118      635.472        0.334        0.209       49.718       17.473        0.124      342.075       17.231      859.205
09/14/2013  08:23:00       66.489       38.894       19.211       37.788       26.598       20.828     1427.934      707.454      433.825        0.444        0.128       77.029       17.863        0.054      342.181       17.411      859.207
09/14/2013  08:24:00       30.695       32.875       48.737       33.117       25.438       20.853     1096.745      647.079      434.861        0.329        0.109       44.978       13.130        0.085      342.421       17.820      859.211
09/14/2013  08:25:00       19.685       11.185       32.440       19.057       14.408       19.228      363.168      207.595      369.731        0.125        0.047       22.641        8.295        0.134      342.504       17.961      859.218
09/14/2013  08:26:00       44.349       35.579       15.589       26.228       20.563       24.397      687.889      422.831      595.195        0.259        0.085       56.857       12.953        0.052      342.253       17.533      859.219
09/14/2013  08:27:00       23.053       35.429       13.809       22.539       23.349       30.392      507.991      545.171      923.670        0.198        0.099       42.269       20.868        0.244      342.505       17.962      859.222
09/14/2013  08:28:00       18.843        5.231       27.469       19.694       21.815       18.172      387.854      475.908      330.213        0.117        0.060       19.556       10.987        0.316      342.605       18.131      859.221
09/14/2013  08:29:00       49.413       32.933        9.976       31.540       22.172       21.913      994.780      491.578      480.159        0.280        0.098       59.382       11.318        0.036      342.395       17.775      859.228
09/14/2013  08:30:00       67.846       42.471       18.941       49.561       36.938       23.202     2456.290     1364.385      538.335        0.556        0.218       80.043       12.249        0.023      342.397       17.778      859.221
09/14/2013  08:31:00       38.088       23.446       20.123       21.573       23.287       25.045      465.395      542.265      627.234        0.202        0.082       44.726        9.479        0.045      342.419       17.816      859.228
09/14/2013  08:32:00        6.437        5.968       10.743       11.108       23.998       17.165      123.385      575.899      294.646        0.059        0.050        8.778       13.093        2.224      342.652       18.212      859.241
09/14/2013  08:33:00       -1.036        2.073       17.756       10.211       16.636       15.210      104.256      276.747      231.349        0.047        0.031        2.317        6.622        8.166      343.121       19.011      859.242
09/14/2013  08:34:00      -14.596       -5.095       11.005       10.955        8.379       11.381      120.012       70.204      129.531        0.034        0.016       15.460        4.398        0.081      342.829       18.515      859.233
09/14/2013  08:35:00        0.513       32.105       14.498       12.516       23.647       20.915      156.646      559.173      437.454        0.120        0.058       32.109       17.121        0.284      342.949       18.718      859.235
09/14/2013  08:36:00        2.362       23.833       13.621       19.614       28.125       17.816      384.707      791.006      317.423        0.113        0.075       23.950       18.164        0.575      342.862       18.568      859.230
09/14/2013  08:37:00       11.936       52.983        4.327       19.391       35.161       22.740      376.025     1236.287      517.126        0.255        0.106       54.311       20.909        0.148      342.686       18.270      859.233
09/14/2013  08:38:00       21.726       22.721       19.723       21.141       15.268       23.449      446.939      233.099      549.856        0.130        0.061       31.436       13.540        0.186      342.904       18.640      859.226
09/14/2013  08:39:00      -10.849        9.932       22.327       14.688       10.604       10.049      215.735      112.453      100.990        0.057        0.021       14.709        8.765        0.355      343.052       18.892      859.231
09/14/2013  08:40:00       -0.792       26.006       39.581       14.504       25.679       13.080      210.367      659.402      171.075        0.164        0.052       26.018        9.165        0.124      343.148       19.057      859.235
09/14/2013  08:41:00       29.883       39.470       36.243       20.646       16.830       16.026      426.267      283.254      256.842        0.237        0.048       49.506        8.239        0.028      342.734       18.351      859.235
09/14/2013  08:42:00       12.277        0.099       21.259       15.029       23.077       16.652      225.861      532.554      277.304        0.082        0.052       12.278       12.151        0.979      343.100       18.973      859.238
09/14/2013  08:43:00       11.574       -1.178       20.814       16.045       19.865       18.925      257.437      394.626      358.168        0.079        0.051       11.633       16.303        1.964      343.020       18.838      859.239
09/14/2013  08:44:00        9.579      -56.513        1.594       24.466       17.139       20.856      598.575      293.748      434.975        0.231        0.066       57.319       12.682        0.049      342.373       17.736      859.242
09/14/2013  08:45:00        8.114      -43.122       10.846       18.939       30.995       26.115      358.670      960.692      682.010        0.202        0.100       43.878       22.343        0.259      342.648       18.205      859.246
09/14/2013  08:46:00       27.030        4.924       30.204       32.513       26.248       22.585     1057.082      688.955      510.097        0.196        0.113       27.474       15.993        0.339      342.990       18.786      859.250
09/14/2013  08:47:00       -2.810       -0.811       11.441       14.887       13.802       17.116      221.609      190.485      292.943        0.042        0.035        2.924       11.319       14.982      343.089       18.954      859.250
09/14/2013  08:48:00       34.973       14.033       17.122       32.864       23.035       23.618     1080.054      530.628      557.829        0.194        0.108       37.684       18.545        0.242      343.136       19.035      859.255
09/14/2013  08:49:00       27.527       16.798       -0.541       20.112       19.345       19.751      404.487      374.228      390.120        0.110        0.058       32.248       13.277        0.170      343.113       18.996      859.256
09/14/2013  08:50:00       25.512       27.705       17.559       47.239       45.796       23.667     2231.480     2097.243      560.137        0.331        0.244       37.662       17.666        0.220      343.117       19.004      859.261
09/14/2013  08:51:00       17.443       26.943       46.211       33.134       39.010       19.249     1097.862     1521.814      370.512        0.308        0.150       32.096       21.185        0.436      343.198       19.140      859.267
09/14/2013  08:52:00       30.108       -4.374       23.213       27.887       36.139       24.566      777.709     1306.039      603.493        0.208        0.134       30.424       18.296        0.362      342.887       18.611      859.263
09/14/2013  08:53:00        5.555       25.316       11.121       33.724       31.163       30.688     1137.294      971.116      941.772        0.192        0.153       25.919       28.000        1.167      342.943       18.707      859.264
09/14/2013  08:54:00        2.048       21.653       58.357       26.640       33.697       16.761      709.663     1135.462      280.939        0.300        0.106       21.749       10.221        0.221      343.461       19.589      859.260
09/14/2013  08:55:00        5.686       17.872       51.173       18.487       39.088       19.938      341.769     1527.887      397.530        0.262        0.113       18.755       17.683        0.889      343.448       19.568      859.267
09/14/2013  08:56:00       -1.208        8.671       27.849       22.783       32.602       27.790      519.073     1062.898      772.308        0.160        0.118        8.755       18.014        4.234      343.478       19.618      859.261
09/14/2013  08:57:00      -15.109       29.698       11.322       26.618       31.426       23.735      708.543      987.575      563.351        0.175        0.113       33.321        6.226        0.035      343.366       19.427      859.258
09/14/2013  08:58:00       64.116       78.790       13.211       35.715       32.332       30.309     1275.550     1045.383      918.627        0.687        0.162      101.581       10.763        0.011      343.029       18.852      859.258
09/14/2013  08:59:00       48.872       37.198        3.935       20.366       31.067       21.836      414.766      965.182      476.793        0.282        0.093       61.417        9.418        0.024      342.989       18.785      859.245
09/14/2013  09:00:00       69.500       41.182        8.146       31.624       32.374       24.297     1000.098     1048.097      590.367        0.462        0.132       80.785       16.398        0.041      343.205       19.152      859.234
09/14/2013  09:01:00      103.108       62.924        2.744       18.278       15.139       21.851      334.088      229.185      477.488        0.782        0.052      120.792        2.187        0.000      342.903       18.638      859.231
09/14/2013  09:02:00       69.767       59.710        2.897       24.859       16.951       18.893      617.953      287.334      356.959        0.485        0.063       91.830       15.600        0.029      343.062       18.909      859.232
09/14/2013  09:03:00       14.492       55.428       -5.539       27.447       41.643       25.385      753.328     1734.129      644.392        0.322        0.157       57.292       23.867        0.174      343.322       19.352      859.240
09/14/2013  09:04:00        9.538       24.209       10.915       29.000       31.692       29.330      841.016     1004.361      860.231        0.175        0.135       26.020       22.207        0.728      343.739       20.064      859.236
09/14/2013  09:05:00       46.364       22.877       14.712       26.412       21.957       29.860      697.608      482.130      891.630        0.248        0.104       51.701       18.566        0.129      343.742       20.068      859.235
09/14/2013  09:06:00       16.507       41.403       15.872       31.763       36.769       31.301     1008.894     1351.984      979.746        0.279        0.167       44.572       29.806        0.447      343.886       20.314      859.244
09/14/2013  09:07:00       11.385       24.471       15.394       23.012       28.573       20.280      529.551      816.430      411.267        0.136        0.088       26.990       18.547        0.472      343.852       20.256      859.249
09/14/2013  09:08:00        6.942       35.592        9.775       13.357       28.037       26.204      178.397      786.077      686.676        0.153        0.083       36.263       19.706        0.295      343.764       20.106      859.251
09/14/2013  09:09:00       17.109       12.804       17.932       19.381       16.292       20.822      375.631      265.435      433.541        0.093        0.054       21.369       13.884        0.422      343.632       19.880      859.253
09/14/2013  09:10:00       47.424       27.190       17.042       26.828       18.173       18.822      719.739      330.271      354.283        0.234        0.070       54.666       13.521        0.061      343.688       19.976      859.258
09/14/2013  09:11:00       29.612       18.970       14.571       34.336       29.684       25.140     1178.975      881.126      632.042        0.207        0.135       35.168       13.966        0.158      343.805       20.176      859.256
09/14/2013  09:12:00       44.656       35.864        9.326       24.438       22.737       27.514      597.208      516.986      757.004        0.262        0.094       57.274       15.685        0.075      343.651       19.912      859.240
09/14/2013  09:13:00       58.375       94.134       48.641       46.287       31.618       43.080     2142.452      999.679     1855.899        0.982        0.250      110.765       19.776        0.032      343.588       19.805      859.237
09/14/2013  09:14:00       38.283       49.869       31.236       41.949       41.039       18.179     1759.753     1684.190      330.461        0.435        0.189       62.869       15.225        0.059      343.629       19.876      859.230
09/14/2013  09:15:00       35.063        1.554       27.002       28.150       63.002       22.023      792.413     3969.193      485.019        0.360        0.262       35.098       25.676        0.535      343.675       19.954      859.232
09/14/2013  09:16:00       13.681       34.769       57.023       30.451       53.787       36.760      927.259     2893.054     1351.320        0.491        0.259       37.364       36.573        0.958      343.936       20.399      859.226
09/14/2013  09:17:00       52.827       59.002       39.916       45.540       37.978       24.044     2073.895     1442.293      578.101        0.598        0.205       79.195       20.267        0.065      343.599       19.824      859.229
09/14/2013  09:18:00       45.377       37.648       38.285       44.766       53.455       33.516     2004.017     2857.428     1123.351        0.546        0.299       58.961       33.768        0.328      343.566       19.770      859.233
09/14/2013  09:19:00       61.543       50.968       34.234       48.266       44.498       29.645     2329.570     1980.112      878.824        0.637        0.259       79.907       21.139        0.070      343.547       19.737      859.232
09/14/2013  09:20:00       49.494       32.000       -1.419       29.437       26.603       14.112      866.553      707.746      199.141        0.262        0.089       58.938        7.589        0.017      343.535       19.715      859.238
09/14/2013  09:21:00       59.485       43.757       21.692       37.379       28.044       34.002     1397.196      786.478     1156.112        0.463        0.167       73.846       26.885        0.133      343.866       20.280      859.237
09/14/2013  09:22:00       71.660       50.023       16.034       27.366       36.206       32.730      748.918     1310.901     1071.282        0.551        0.157       87.392       14.391        0.027      343.785       20.143      859.235
09/14/2013  09:23:00       76.330       40.618        2.294       23.830       24.051       30.304      567.851      578.457      918.338        0.477        0.103       86.464       20.344        0.055      343.710       20.014      859.236
09/14/2013  09:24:00       39.919       45.292        4.244       25.771       29.885       25.699      664.170      893.135      660.426        0.294        0.111       60.374       15.625        0.067      343.704       20.003      859.240
09/14/2013  09:25:00        5.570      -22.306       17.033       20.611       34.171       23.056      424.825     1167.659      531.561        0.147        0.106       22.991        7.904        0.118      343.943       20.410      859.240
09/14/2013  09:26:00        4.497      -29.000       21.982       20.579       31.664       21.480      423.514     1002.607      461.375        0.162        0.094       29.346       19.621        0.447      344.077       20.640      859.243
09/14/2013  09:27:00        0.325        5.964       30.914       11.780       11.304        9.555      138.767      127.792       91.300        0.067        0.018        5.973        1.750        0.086      345.025       22.261      859.243
09/14/2013  09:28:00       -7.124        5.618       14.301       19.415       19.413       17.766      376.951      376.856      315.620        0.068        0.053        9.073       12.445        1.881      344.504       21.370      859.238
09/14/2013  09:29:00       14.726       32.968       24.047       23.773       29.456       30.845      565.133      867.676      951.422        0.213        0.119       36.108       25.213        0.488      344.572       21.487      859.238
09/14/2013  09:30:00       12.005        6.591       39.763       16.524       12.657       12.659      273.032      160.208      160.257        0.118        0.030       13.695        7.177        0.275      344.931       22.099      859.230
09/14/2013  09:31:00        3.277       18.638       17.222       14.817       17.934       15.632      219.545      321.616      244.348        0.072        0.039       18.924       11.874        0.394      344.849       21.960      859.231
09/14/2013  09:32:00      -35.957       10.039        8.541       23.931       15.429       17.093      572.670      238.046      292.170        0.128        0.055       37.333       14.418        0.149      344.085       20.654      859.223
09/14/2013  09:33:00      -51.831        4.004       -0.381       24.170       24.042       11.983      584.166      578.002      143.588        0.200        0.065       51.985       12.567        0.058      343.807       20.180      859.218
09/14/2013  09:34:00      -74.464       16.730       -7.086       20.478       15.752        8.261      419.353      248.134       68.245        0.331        0.037       76.320        4.551        0.004      343.648       19.907      859.217
09/14/2013  09:35:00      -62.256       32.060       -7.012        8.894       15.351       13.910       79.101      235.640      193.479        0.273        0.025       70.026       10.162        0.021      343.794       20.156      859.211
09/14/2013  09:36:00      -33.592       17.422        7.167       39.041       12.972       19.010     1524.189      168.271      361.376        0.177        0.103       37.840       21.984        0.338      344.339       21.088      859.211
09/14/2013  09:37:00      -38.494       -0.928        7.101       35.287       17.863       24.456     1245.144      319.083      598.111        0.185        0.108       38.505       24.744        0.413      344.489       21.345      859.203
09/14/2013  09:38:00      -39.129       -2.277      -11.017       15.185       12.390       15.220      230.587      153.517      231.638        0.114        0.031       39.196       10.785        0.076      343.909       20.354      859.201
09/14/2013  09:39:00      -30.613       38.980        8.843       20.077       22.266       24.060      403.095      495.782      578.872        0.201        0.074       49.564       15.318        0.096      344.364       21.130      859.192
09/14/2013  09:40:00      -85.855       22.054        0.284       28.504       16.732       19.250      812.452      279.950      370.576        0.466        0.073       88.642       17.601        0.039      344.008       20.524      859.196
09/14/2013  09:41:00      -69.580       13.566       -7.538       11.313       13.099       12.324      127.994      171.580      151.871        0.277        0.023       70.890        6.332        0.008      343.907       20.349      859.203
09/14/2013  09:42:00      -63.147        0.680       -7.253       17.654       15.146        7.018      311.656      229.413       49.246        0.232        0.030       63.150        7.116        0.013      343.886       20.315      859.197
09/14/2013  09:43:00      -33.774       -0.098       -5.246       11.843       11.620        8.092      140.258      135.032       65.475        0.075        0.017       33.774        5.186        0.024      343.988       20.488      859.199
09/14/2013  09:44:00      -30.447        7.474        3.258       21.284       15.204       13.006      453.008      231.167      169.154        0.092        0.043       31.351       10.680        0.116      344.269       20.969      859.205
09/14/2013  09:45:00      -18.845       11.167       29.277       30.407       14.431       18.804      924.605      208.256      353.585        0.141        0.074       21.905       15.759        0.518      345.207       22.574      859.214
09/14/2013  09:46:00      -33.903       36.739       13.870       25.010       23.592       26.114      625.484      556.581      681.947        0.228        0.093       49.991       17.549        0.123      344.716       21.733      859.217
09/14/2013  09:47:00      -27.290       32.679       -2.655       27.611       23.358       22.824      762.378      545.611      520.921        0.182        0.091       42.576       19.622        0.212      344.670       21.654      859.219
09/14/2013  09:48:00        9.277       26.759       20.061       17.722       26.508       21.567      314.074      702.650      465.133        0.134        0.074       28.321       10.514        0.138      345.233       22.620      859.221
09/14/2013  09:49:00       -3.211       18.626       35.405       23.378       21.797       15.344      546.510      475.101      235.449        0.143        0.063       18.901       11.279        0.356      345.401       22.903      859.224
09/14/2013  09:50:00       -9.409       -7.934       14.243       26.486       30.486       15.390      701.503      929.367      236.866        0.111        0.093       12.307       13.559        1.214      344.906       22.057      859.226
09/14/2013  09:51:00      -13.958       -0.333       25.547       26.058       18.281       19.651      679.027      334.190      386.162        0.112        0.070       13.962       11.211        0.645      345.249       22.645      859.235
09/14/2013  09:52:00      -16.363       23.318       22.361       43.741       34.749       22.992     1913.282     1207.465      528.613        0.248        0.182       28.487       13.630        0.229      344.843       21.950      859.237
09/14/2013  09:53:00       16.234      -68.989       29.282       27.074       50.296       28.128      733.006     2529.719      791.212        0.497        0.203       70.874       25.095        0.125      344.734       21.762      859.242
09/14/2013  09:54:00        2.242       -1.090       25.847       24.103       25.227       23.116      580.939      636.402      534.365        0.121        0.088        2.493       16.780       45.311      345.361       22.836      859.243
09/14/2013  09:55:00      -15.810      -20.007       18.970       21.818       19.844       22.498      476.013      393.774      506.167        0.119        0.069       25.500       12.556        0.242      344.952       22.137      859.243
09/14/2013  09:56:00      -38.101      -29.027       -3.476       35.832       20.629       19.210     1283.933      425.536      369.015        0.219        0.104       47.898        7.806        0.027      344.653       21.624      859.248
09/14/2013  09:57:00      -66.462      -46.982       -2.230       36.263       27.041       23.110     1314.991      731.222      534.058        0.460        0.129       81.391       13.096        0.026      344.435       21.252      859.245
09/14/2013  09:58:00      -56.900      -36.030        9.959       33.292       35.620       22.223     1108.348     1268.785      493.861        0.375        0.144       67.348       23.594        0.123      344.749       21.789      859.240
09/14/2013  09:59:00      -86.913      -49.182       -0.405       40.389       27.194       20.065     1631.238      739.500      402.590        0.637        0.139       99.864       18.458        0.034      344.556       21.458      859.241
09/14/2013  10:00:00      -53.834      -46.676       -0.678       25.230       18.968       18.942      636.538      359.800      358.798        0.322        0.068       71.252       16.030        0.051      344.419       21.226      859.245
09/14/2013  10:01:00      -21.389      -19.260       -9.436       30.571       25.640       11.886      934.573      657.408      141.266        0.133        0.087       28.782       14.691        0.261      344.649       21.618      859.237
09/14/2013  10:02:00      -20.997       -7.853      -11.328       19.295       12.724       11.004      372.312      161.898      121.093        0.064        0.033       22.417        8.530        0.145      344.836       21.937      859.230
09/14/2013  10:03:00      -24.087       -2.850       -8.907       18.504       16.795       16.188      342.386      282.074      262.048        0.078        0.044       24.255       12.791        0.278      344.885       22.022      859.221
09/14/2013  10:04:00      -33.397       11.185      -11.187       18.627       15.311       13.351      346.975      234.438      178.240        0.106        0.038       35.220        8.571        0.059      344.922       22.086      859.215
09/14/2013  10:05:00      -25.399       10.754        3.248       20.144       15.229       21.737      405.799      231.913      472.489        0.094        0.056       27.582       15.023        0.297      345.226       22.605      859.206
09/14/2013  10:06:00      -29.855      -17.851       -6.437       23.147       21.047       18.389      535.776      442.988      338.147        0.128        0.066       34.785       12.961        0.139      344.838       21.942      859.200
09/14/2013  10:07:00      -16.053      -14.524       26.697       20.363       16.267       13.320      414.664      264.603      177.428        0.102        0.043       21.648       11.062        0.261      345.429       22.954      859.190
09/14/2013  10:08:00      -15.828       12.983       10.999       18.724       34.139       23.394      350.579     1165.450      547.294        0.130        0.103       20.471       25.668        1.572      345.541       23.146      859.178
09/14/2013  10:09:00      -23.921       16.026       11.384       29.219       29.480       20.669      853.725      869.041      427.207        0.155        0.107       28.793       17.984        0.390      345.648       23.330      859.179
09/14/2013  10:10:00      -35.642       25.986       24.881       22.077       19.326       20.886      487.413      373.488      436.213        0.193        0.065       44.109       16.234        0.135      345.303       22.739      859.171
09/14/2013  10:11:00        1.841       -2.943       24.925       24.813       26.641       24.775      615.679      709.743      613.790        0.129        0.097        3.471       19.073       30.192      345.726       23.462      859.167
09/14/2013  10:12:00       63.782       33.560       19.550       54.945       33.079       31.627     3018.944     1094.214     1000.252        0.534        0.256       72.072       22.073        0.094      345.424       22.944      859.167
09/14/2013  10:13:00       79.451       56.182        5.695       47.618       34.464       27.852     2267.518     1187.771      775.708        0.687        0.212       97.309       17.884        0.034      345.134       22.449      859.166
09/14/2013  10:14:00       96.545       62.950       19.793       32.755       41.340       29.424     1072.872     1708.966      865.783        0.866        0.182      115.255       24.796        0.046      345.001       22.221      859.161
09/14/2013  10:15:00       12.964       41.199       61.022       31.242       43.000       29.771      976.047     1848.996      886.335        0.465        0.186       43.191       23.710        0.301      345.781       23.559      859.160
09/14/2013  10:16:00       91.293       49.895       34.217       49.535       35.350       39.771     2453.754     1249.613     1581.730        0.864        0.264      104.038       20.009        0.037      345.220       22.595      859.160
09/14/2013  10:17:00       44.857       85.904       73.101       58.850       50.150       53.016     3463.282     2515.054     2810.667        1.176        0.439       96.911       52.361        0.292      345.235       22.622      859.167
09/14/2013  10:18:00       90.771      110.137       77.795       77.492       39.067       56.683     6004.998     1526.206     3212.910        1.858        0.537      142.722       55.342        0.150      345.056       22.314      859.168
09/14/2013  10:19:00      111.977       37.508       10.841       48.069       33.561       34.468     2310.583     1126.363     1188.019        0.934        0.231      118.092       14.536        0.015      345.288       22.710      859.183
09/14/2013  10:20:00      104.450       67.637        6.491       28.919       36.111       30.981      836.301     1304.019      959.795        0.931        0.155      124.437       19.387        0.024      345.259       22.662      859.191
09/14/2013  10:21:00       52.452       33.165        9.666       55.023       25.127       25.431     3027.482      631.359      646.719        0.412        0.215       62.057       23.900        0.148      345.409       22.919      859.198
09/14/2013  10:22:00       33.482       54.959        3.831       22.446       28.416       26.461      503.838      807.479      700.205        0.308        0.101       64.355       16.297        0.064      345.310       22.748      859.202
09/14/2013  10:23:00       43.014       39.431       -0.692       26.048       21.315       26.918      678.523      454.324      724.601        0.263        0.093       58.353       17.087        0.086      345.233       22.616      859.193
09/14/2013  10:24:00       76.539       65.020       29.304       71.607       45.057       32.034     5127.539     2030.163     1026.194        0.956        0.409      100.428       38.577        0.148      345.620       23.281      859.196
09/14/2013  10:25:00      116.632       74.885        7.483       62.943       40.738       31.547     3961.817     1659.546      995.197        1.294        0.331      138.603       20.171        0.021      345.320       22.765      859.199
09/14/2013  10:26:00       91.935       48.558       32.605       50.018       39.966       44.670     2501.817     1597.284     1995.427        0.898        0.305      103.971       37.977        0.133      345.458       23.003      859.206
09/14/2013  10:27:00       22.264       10.165       56.001       41.259       48.644       36.197     1702.270     2366.195     1310.242        0.456        0.269       24.475       28.284        1.336      345.688       23.399      859.200
09/14/2013  10:28:00       19.500       42.469       77.243       35.454       54.917       27.970     1256.960     3015.830      782.321        0.660        0.253       46.732       33.398        0.511      345.813       23.611      859.206
09/14/2013  10:29:00       40.530      -50.283       17.452       35.316       68.621       37.547     1247.248     4708.860     1409.787        0.592        0.368       64.584       47.516        0.541      345.324       22.773      859.212
09/14/2013  10:30:00       67.249       50.711       18.493       56.848       32.482       36.484     3231.693     1055.085     1331.068        0.653        0.281       84.226       28.845        0.117      345.421       22.939      859.213
09/14/2013  10:31:00       47.797       54.129       18.741       41.007       29.981       25.692     1681.553      898.867      660.084        0.440        0.162       72.212       18.843        0.068      345.847       23.670      859.210
09/14/2013  10:32:00       58.397       46.563       10.431       29.114       20.170       24.598      847.641      406.828      605.039        0.377        0.093       74.688       10.151        0.018      345.630       23.298      859.199
09/14/2013  10:33:00       32.690       52.226        4.427       47.610       31.678       26.985     2266.690     1003.522      728.170        0.391        0.200       61.614       21.962        0.127      346.233       24.333      859.187
09/14/2013  10:34:00       37.322       19.102       35.878       36.505       22.353       21.462     1332.588      499.653      460.602        0.267        0.115       41.926       17.058        0.166      346.665       25.077      859.184
09/14/2013  10:35:00       17.274      -44.847       15.056       27.187       20.737       20.883      739.154      430.023      436.094        0.207        0.080       48.059       16.441        0.117      345.415       22.930      859.171
09/14/2013  10:36:00      -29.100      -48.816        4.818       25.491       43.204       18.348      649.796     1866.578      336.642        0.305        0.143       56.832       19.232        0.115      345.563       23.183      859.159
09/14/2013  10:37:00      -20.252       47.994       -3.354       20.559       34.090       21.861      422.692     1162.131      477.896        0.239        0.103       52.092       13.719        0.069      345.799       23.589      859.141
09/14/2013  10:38:00       12.889       44.456       12.463       40.303       30.274       31.976     1624.297      916.486     1022.439        0.293        0.178       46.287       22.013        0.226      346.103       24.110      859.131
09/14/2013  10:39:00      -56.315       17.246      -13.525       20.527       17.672       14.908      421.346      312.295      222.261        0.230        0.048       58.896        7.679        0.017      345.474       23.028      859.122
09/14/2013  10:40:00      -65.112       29.337       -0.568       22.978       32.127       18.804      527.969     1032.153      353.599        0.351        0.096       71.416       11.390        0.025      345.590       23.230      859.101
09/14/2013  10:41:00      -10.569        6.397       13.665       15.013       11.048       15.685      225.404      122.050      246.027        0.047        0.030       12.354        5.641        0.208      346.290       24.432      859.102
09/14/2013  10:42:00       -1.029       15.853       19.478       24.788       23.231       20.384      614.421      539.691      415.520        0.110        0.078       15.886        8.206        0.267      346.557       24.892      859.088
09/14/2013  10:43:00       -4.058        5.736       25.667       15.116       17.033       16.743      228.507      290.115      280.335        0.075        0.040        7.027       12.876        3.358      346.840       25.379      859.085
09/14/2013  10:44:00       11.409       16.624       14.670       19.564       21.263       25.594      382.754      452.123      655.060        0.106        0.074       20.162       14.538        0.520      346.680       25.101      859.074
09/14/2013  10:45:00      -37.316       26.558       23.617       25.163       16.703       21.444      633.178      278.980      459.845        0.201        0.069       45.802        8.369        0.033      346.530       24.843      859.066
09/14/2013  10:46:00      -53.772       -0.068       15.223       31.972       21.756       18.544     1022.189      473.319      343.891        0.248        0.092       53.772       13.928        0.067      346.016       23.960      859.064
09/14/2013  10:47:00      -47.280      -18.352       -7.013       20.948       22.460       13.647      438.833      504.467      186.233        0.188        0.056       50.716        5.878        0.013      345.796       23.584      859.049
09/14/2013  10:48:00      -48.428        5.314        6.366       31.406       34.611       21.584      986.338     1197.955      465.877        0.253        0.133       48.718       17.231        0.125      346.189       24.258      859.044
09/14/2013  10:49:00      -21.016       19.434       33.257       34.363       28.269       24.461     1180.783      799.135      598.339        0.225        0.129       28.624       21.159        0.546      346.728       25.187      859.034
09/14/2013  10:50:00      -64.940      -40.554       -1.446       36.980       46.412       22.243     1367.499     2154.076      494.751        0.494        0.201       76.562       21.140        0.076      345.890       23.744      859.033
09/14/2013  10:51:00      -35.289      -19.867        2.988       19.475       19.587       11.507      379.295      383.662      132.400        0.127        0.045       40.497        5.705        0.020      345.842       23.662      859.029
09/14/2013  10:52:00       -8.462       11.510       31.005       16.191       20.169       17.688      262.135      406.784      312.855        0.107        0.049       14.286       14.366        1.011      346.769       25.256      859.019
09/14/2013  10:53:00      -15.718      -38.570        7.644       24.408       31.632       23.511      595.766     1000.589      552.784        0.197        0.107       41.650       21.266        0.261      346.166       24.219      859.004
09/14/2013  10:54:00      -11.205      -28.459       -1.119       20.299       21.837       21.223      412.049      476.861      450.428        0.114        0.067       30.586       14.419        0.222      346.460       24.724      858.987
09/14/2013  10:55:00       -9.885       32.512       43.468       32.956       29.992       18.844     1086.111      899.522      355.092        0.269        0.117       33.981       13.022        0.147      346.748       25.220      858.966
09/14/2013  10:56:00       -3.025        9.989       56.835       33.064       35.617       32.894     1093.241     1268.559     1082.042        0.339        0.172       10.437       27.754        7.071      346.753       25.229      858.953
09/14/2013  10:57:00      -23.774        3.631        3.415       24.374       27.738       24.842      594.105      769.369      617.122        0.128        0.099       24.050       18.479        0.590      346.607       24.978      858.950
09/14/2013  10:58:00        6.325       26.651       47.929       26.290       34.144       26.044      691.141     1165.815      678.279        0.279        0.127       27.392       19.770        0.521      346.735       25.199      858.933
09/14/2013  10:59:00       39.400      -26.351       16.625       29.757       38.661       27.831      885.463     1494.659      774.539        0.284        0.158       47.400       24.225        0.261      346.164       24.215      858.922
09/14/2013  11:00:00       46.398      -19.160        5.011       25.292       33.413       24.678      639.702     1116.430      609.023        0.245        0.118       50.198       16.307        0.106      345.856       23.686      858.920
09/14/2013  11:01:00       57.704       21.597       32.094       27.908       24.694       35.572      778.879      609.805     1265.332        0.374        0.133       61.613       10.824        0.031      346.234       24.335      858.901
09/14/2013  11:02:00       91.733       52.412        8.369       52.933       50.322       36.078     2801.892     2532.315     1301.632        0.893        0.332      105.650       29.468        0.078      346.243       24.351      858.884
09/14/2013  11:03:00      129.612       94.442       14.741       57.725       39.382       40.308     3332.189     1550.916     1624.730        1.622        0.325      160.370       36.767        0.053      346.222       24.314      858.876
09/14/2013  11:04:00      134.336       88.763       20.823       49.676       33.452       45.819     2467.751     1119.009     2099.426        1.602        0.284      161.013       35.804        0.049      346.161       24.210      858.863
09/14/2013  11:05:00      103.215       81.606        5.504       35.891       35.061       30.753     1288.186     1229.267      945.768        1.040        0.173      131.579       16.744        0.016      346.271       24.398      858.856
09/14/2013  11:06:00       22.315       68.507       -1.793       36.964       40.960       25.234     1366.323     1677.723      636.769        0.444        0.184       72.050       24.909        0.120      346.535       24.853      858.848
09/14/2013  11:07:00       61.013       59.782       13.378       45.411       40.495       37.706     2062.130     1639.857     1421.748        0.630        0.256       85.419       29.051        0.116      346.731       25.190      858.832
09/14/2013  11:08:00       23.565       40.325       -4.322       41.815       41.818       32.402     1748.511     1748.731     1049.880        0.337        0.227       46.705       33.823        0.524      346.622       25.004      858.822
09/14/2013  11:09:00       46.516       47.175       17.463       55.457       36.261       26.196     3075.483     1314.888      686.248        0.488        0.254       66.251       18.344        0.077      346.738       25.202      858.807
09/14/2013  11:10:00       35.607       75.372       -6.878       44.047       61.204       32.154     1940.113     3745.923     1033.895        0.686        0.336       83.359       27.761        0.111      346.533       24.849      858.793
09/14/2013  11:11:00       25.684       35.455       16.045       24.385       25.767       25.094      594.641      663.949      629.686        0.203        0.094       43.780       19.768        0.204      347.047       25.734      858.782
09/14/2013  11:12:00       53.165       17.901       27.187       36.929       29.470       28.058     1363.721      868.471      787.268        0.345        0.151       56.098       20.076        0.128      347.026       25.697      858.766
09/14/2013  11:13:00       91.421       60.982       10.257       36.926       28.418       29.267     1363.527      807.555      856.566        0.760        0.151      109.894       11.983        0.012      346.609       24.979      858.763
09/14/2013  11:14:00       60.435       46.603       18.831       40.305       52.989       33.023     1624.526     2807.812     1090.494        0.585        0.276       76.317       19.690        0.067      346.837       25.372      858.754
09/14/2013  11:15:00       27.470       24.129       68.158       32.557       32.929       19.715     1059.967     1084.302      388.668        0.426        0.127       36.563       19.492        0.284      347.225       26.041      858.756
09/14/2013  11:16:00       39.259        3.219       26.439       35.920       47.916       45.586     1290.252     2295.952     2078.112        0.396        0.283       39.390       35.700        0.821      346.981       25.621      858.756
09/14/2013  11:17:00       15.767        4.219       30.728       42.196       51.663       35.558     1780.469     2669.101     1264.350        0.346        0.286       16.322       35.486        4.727      346.920       25.515      858.741
09/14/2013  11:18:00       22.010       22.673       29.047       31.083       32.770       27.226      966.146     1073.882      741.246        0.231        0.139       31.599       18.023        0.325      347.032       25.707      858.741
09/14/2013  11:19:00      103.817       41.533        9.687       58.993       52.105       29.486     3480.204     2714.882      869.445        0.983        0.353      111.816       18.858        0.028      346.787       25.285      858.727
09/14/2013  11:20:00       74.018       58.199       18.120       44.370       36.365       34.524     1968.667     1322.443     1191.901        0.684        0.224       94.159        9.152        0.009      346.886       25.456      858.738
09/14/2013  11:21:00        7.510       20.311       -6.452       39.452       26.599       21.622     1556.421      707.516      467.530        0.162        0.137       21.655       15.287        0.498      346.621       25.000      858.730
09/14/2013  11:22:00       53.210       39.806        7.204       40.861       32.169       25.890     1669.609     1034.839      670.310        0.392        0.169       66.452       17.306        0.068      346.971       25.601      858.725
09/14/2013  11:23:00       53.414       29.316        1.963       43.151       41.187       25.467     1861.991     1696.365      648.591        0.396        0.210       60.931       15.110        0.062      346.849       25.393      858.708
09/14/2013  11:24:00       78.324       73.781        8.884       59.786       41.508       36.842     3574.313     1722.935     1357.314        0.915        0.333      107.603       29.379        0.075      346.906       25.492      858.694
09/14/2013  11:25:00       85.223       48.990       17.102       39.539       36.393       34.570     1563.330     1324.486     1195.071        0.702        0.204       98.300       16.895        0.030      346.954       25.574      858.680
09/14/2013  11:26:00       23.862       49.745       17.650       45.665       34.335       26.939     2085.258     1178.891      725.703        0.367        0.199       55.172       12.544        0.052      347.215       26.023      858.672
09/14/2013  11:27:00      109.936      104.990       80.433       49.576       37.251       35.270     2457.771     1387.631     1243.957        1.733        0.254      152.016       23.136        0.023      346.714       25.160      858.664
09/14/2013  11:28:00       15.354       44.089       26.491       45.391       35.986       23.710     2060.330     1294.983      562.143        0.340        0.196       46.686       13.295        0.081      347.152       25.916      858.648
09/14/2013  11:29:00       67.040       54.968       20.254       87.899       67.991       31.458     7726.238     4622.727      989.597        1.063        0.667       86.694       39.329        0.206      347.086       25.800      858.633
09/14/2013  11:30:00      159.103      100.778       49.264       60.843       46.301       54.562     3701.908     2143.809     2977.036        2.336        0.441      188.335       34.788        0.034      346.916       25.506      858.624
09/14/2013  11:31:00       80.256      107.068       95.047       33.464       32.019       27.373     1119.852     1025.231      749.280        1.492        0.145      133.808       13.633        0.010      346.783       25.279      858.619
09/14/2013  11:32:00       58.573       33.660       35.278       40.766       23.390       38.175     1661.855      547.072     1457.297        0.474        0.183       67.555        6.016        0.008      347.046       25.732      858.615
09/14/2013  11:33:00       44.833       35.710       33.599       34.473       31.381       25.129     1188.357      984.768      631.455        0.361        0.140       57.317       14.917        0.068      347.411       26.360      858.601
09/14/2013  11:34:00       83.117       73.806       60.962       53.594       40.533       46.787     2872.284     1642.915     2189.047        1.139        0.335      111.156       24.085        0.047      347.016       25.682      858.593
09/14/2013  11:35:00       41.659       55.877       10.425       32.503       32.689       37.325     1056.418     1068.580     1393.171        0.424        0.176       69.697       23.295        0.112      347.070       25.772      858.583
09/14/2013  11:36:00       30.010       54.414        5.556       30.584       52.034       35.913      935.358     2707.552     1289.759        0.441        0.247       62.141       39.638        0.407      347.322       26.207      858.587
09/14/2013  11:37:00       -6.258       53.191        8.374       29.165       50.851       29.813      850.615     2585.850      888.794        0.363        0.216       53.558       31.547        0.347      347.619       26.721      858.562
09/14/2013  11:38:00      -10.070       10.406       28.092       22.465       29.206       17.026      504.656      852.970      289.895        0.132        0.082       14.480        7.204        0.248      348.155       27.644      858.554
09/14/2013  11:39:00      -33.922       -9.843       15.561       24.221       19.240       14.270      586.652      370.159      203.634        0.132        0.058       35.322       11.326        0.103      347.465       26.453      858.550
09/14/2013  11:40:00        2.352       14.588       31.343       23.069       20.939       24.229      532.198      438.456      587.039        0.138        0.078       14.776       12.469        0.712      347.966       27.318      858.539
09/14/2013  11:41:00       13.704      -52.321       19.930       46.037       35.315       35.218     2119.421     1247.148     1240.329        0.396        0.230       54.086       26.255        0.236      347.411       26.361      858.530
09/14/2013  11:42:00       22.531      -18.347       47.520       46.232       60.925       37.944     2137.385     3711.863     1439.756        0.519        0.364       29.056       38.053        1.715      347.814       27.057      858.504
09/14/2013  11:43:00       12.224      -67.212       13.618       49.612       66.311       42.128     2461.363     4397.145     1774.739        0.674        0.432       68.314       35.631        0.272      347.468       26.459      858.499
09/14/2013  11:44:00       45.234        6.765       52.631       48.113       75.744       50.333     2314.868     5737.218     2533.459        0.772        0.529       45.737       47.742        1.090      347.443       26.415      858.491
09/14/2013  11:45:00       53.905      -85.171       -2.438       63.030       73.309       54.779     3972.843     5374.276     3000.754        1.125        0.617      100.796       47.438        0.221      347.567       26.628      858.484
09/14/2013  11:46:00       16.070      -35.171       32.327       43.296       65.301       44.135     1874.508     4264.207     1947.937        0.531        0.404       38.668       46.763        1.463      347.832       27.088      858.480
09/14/2013  11:47:00      113.591     -121.678      -27.621       54.125       52.905       37.860     2929.466     2798.897     1433.370        1.782        0.358      166.459       28.597        0.030      347.240       26.066      858.478
09/14/2013  11:48:00       84.179     -116.795      -10.188       73.776       64.274       48.787     5442.946     4131.198     2380.161        1.639        0.598      143.969       56.879        0.156      347.304       26.175      858.462
09/14/2013  11:49:00       71.570     -134.234       -4.747       43.306       43.356       32.417     1875.446     1879.762     1050.868        1.398        0.240      152.122       24.583        0.026      347.200       25.998      858.466
09/14/2013  11:50:00       60.448      -72.370       13.728       47.065       60.883       41.875     2215.077     3706.739     1753.498        0.838        0.384       94.294       42.678        0.205      347.431       26.394      858.458
09/14/2013  11:51:00       61.229       27.522       63.606       55.074       39.785       33.657     3033.130     1582.811     1132.808        0.715        0.287       67.130       27.211        0.164      347.348       26.251      858.461
09/14/2013  11:52:00      -26.315       15.147      -10.000       23.843       19.598       24.357      568.480      384.069      593.254        0.128        0.077       30.363       12.676        0.174      347.278       26.131      858.446
09/14/2013  11:53:00       22.601        4.304       18.433       24.316       18.126       15.895      591.284      328.548      252.640        0.102        0.059       23.007        9.996        0.189      347.821       27.069      858.433
09/14/2013  11:54:00       21.205      -34.578        5.831       24.541       45.667       22.440      602.238     2085.440      503.575        0.243        0.160       40.562       11.938        0.087      347.698       26.855      858.426
09/14/2013  11:55:00       13.977       29.212       18.029       37.922       31.260       22.978     1438.042      977.159      527.992        0.216        0.147       32.384       22.998        0.504      347.894       27.194      858.414
09/14/2013  11:56:00       24.395       22.901       16.304       29.151       30.237       20.879      849.775      914.270      435.951        0.179        0.110       33.460       17.019        0.259      348.163       27.659      858.405
09/14/2013  11:57:00       19.821      -27.617       11.130       41.112       54.586       31.709     1690.165     2979.582     1005.492        0.348        0.284       33.994       28.255        0.691      348.090       27.532      858.393
09/14/2013  11:58:00       15.541      -76.510       -7.828       49.184       68.266       38.863     2419.017     4660.241     1510.334        0.737        0.429       78.073       25.310        0.105      347.783       27.002      858.382
09/14/2013  11:59:00       24.289      -30.993       25.681       40.038       76.612       52.996     1603.036     5869.433     2808.528        0.624        0.514       39.377       56.760        2.078      348.059       27.480      858.380
09/14/2013  12:00:00       73.415       15.302       46.889       77.447       92.429       72.992     5998.036     8543.179     5327.779        1.384        0.993       74.993       64.801        0.747      347.535       26.574      858.371
09/14/2013  12:01:00       57.994      107.027      107.179       62.448       48.764       44.984     3899.802     2377.894     2023.526        1.730        0.415      121.729       39.968        0.108      347.621       26.723      858.364
09/14/2013  12:02:00      100.532       70.214       32.577       49.627       28.264       30.036     2462.831      798.837      902.170        1.013        0.208      122.624       14.543        0.014      347.146       25.904      858.373
09/14/2013  12:03:00       25.215       11.501       20.817       32.565       27.815       21.765     1060.509      773.679      473.714        0.175        0.115       27.714        9.819        0.126      347.604       26.694      858.355
09/14/2013  12:04:00       43.864       42.496       19.479       87.294       57.498       43.175     7620.199     3305.967     1864.087        0.845        0.640       61.073       39.782        0.424      347.926       27.250      858.342
09/14/2013  12:05:00      140.981      100.897       36.651       66.239       44.134       41.249     4387.612     1947.825     1701.497        1.972        0.402      173.367        7.523        0.002      347.577       26.646      858.339
09/14/2013  12:06:00      105.039       80.372       39.738       63.892       46.797       46.131     4082.158     2189.916     2128.106        1.373        0.420      132.261       23.193        0.031      347.514       26.538      858.323
09/14/2013  12:07:00      176.495       84.065       28.272       69.410       61.259       44.805     4817.746     3752.648     2007.531        2.480        0.529      195.493       31.339        0.026      347.604       26.689      858.324
09/14/2013  12:08:00       84.821       71.553       24.454       67.843       51.991       29.291     4602.737     2703.066      857.955        1.054        0.408      110.971       32.142        0.084      347.691       26.845      858.310
09/14/2013  12:09:00      121.570       82.522       27.421       76.166       49.402       44.921     5801.213     2440.591     2017.916        1.630        0.513      146.932       23.228        0.025      347.776       26.988      858.295
09/14/2013  12:10:00      113.634       66.276       16.937       65.535       60.222       40.875     4294.777     3626.735     1670.725        1.359        0.480      131.549       36.979        0.079      347.698       26.856      858.282
09/14/2013  12:11:00       46.210       43.264       33.508       75.243       44.008       30.528     5661.529     1936.739      931.956        0.683        0.427       63.302       30.166        0.227      347.933       27.262      858.264
09/14/2013  12:12:00       64.686       62.030       27.591       46.338       37.878       34.876     2147.234     1434.771     1216.316        0.679        0.240       89.621       24.342        0.074      347.782       27.000      858.244
09/14/2013  12:13:00      147.591       89.852       17.804       61.869       43.731       39.168     3827.746     1912.426     1534.106        1.872        0.364      172.791       24.676        0.020      347.911       27.221      858.210
09/14/2013  12:14:00      166.251      108.428        9.248       47.917       30.454       34.455     2296.009      927.420     1187.135        2.195        0.221      198.485       28.645        0.021      347.408       26.353      858.203
09/14/2013  12:15:00      130.729       82.000       -9.602       64.842       35.789       39.719     4204.435     1280.849     1577.573        1.548        0.353      154.318       16.154        0.011      347.485       26.486      858.177
09/14/2013  12:16:00       91.801       64.968       10.641       51.283       44.562       40.954     2629.933     1985.772     1677.193        0.953        0.315      112.465       31.790        0.080      347.758       26.961      858.162
09/14/2013  12:17:00       75.465       38.057       -2.998       24.567       34.737       27.367      603.550     1206.626      748.943        0.486        0.128       84.519        9.190        0.012      347.579       26.650      858.157
09/14/2013  12:18:00       39.326       60.797       15.743       60.218       56.283       47.068     3626.206     3167.795     2215.437        0.725        0.450       72.407       32.904        0.207      348.005       27.385      858.131
09/14/2013  12:19:00       -3.308       74.331       13.130       36.863       65.154       27.253     1358.858     4245.017      742.749        0.603        0.317       74.404       22.367        0.090      348.444       28.144      858.125
09/14/2013  12:20:00       -5.899       95.150        6.580       40.245       74.330       36.563     1619.693     5524.893     1336.844        0.880        0.424       95.332       41.611        0.191      348.249       27.808      858.122
09/14/2013  12:21:00       40.496       36.276       35.996       49.659       41.768       34.603     2466.049     1744.580     1197.347        0.483        0.270       54.368       26.339        0.235      348.435       28.130      858.120
09/14/2013  12:22:00       59.164       51.826       13.561       28.170       29.482       33.144      793.543      869.210     1098.544        0.457        0.138       78.653       24.258        0.095      348.033       27.432      858.118
09/14/2013  12:23:00       20.863       39.358       15.348       30.904       35.938       32.142      955.077     1291.568     1033.080        0.275        0.164       44.546       26.643        0.358      348.261       27.828      858.100
09/14/2013  12:24:00       34.083       26.426        8.989       25.380       29.026       22.414      644.153      842.488      502.372        0.196        0.099       43.128       17.045        0.156      348.032       27.434      858.095
09/14/2013  12:25:00       58.132       56.036        2.047       32.656       22.893       23.899     1066.427      524.101      571.180        0.434        0.108       80.742       17.448        0.047      348.198       27.719      858.069
09/14/2013  12:26:00       39.954      -88.455       -5.084       69.898       80.802       34.766     4885.793     6529.035     1208.704        1.103        0.631       97.060       43.851        0.204      348.434       28.126      858.064
09/14/2013  12:27:00       87.430     -103.891      -14.317       74.124      114.645       57.083     5494.432    13143.429     3258.472        2.026        1.095      135.784       64.684        0.227      348.150       27.635      858.040
09/14/2013  12:28:00       47.427      -40.890       20.732       71.064       69.853       44.403     5050.140     4879.440     1971.588        0.812        0.595       62.620       41.403        0.437      348.253       27.815      858.032
09/14/2013  12:29:00      -66.020      -30.058        6.173       51.298       53.693       27.030     2631.442     2882.885      730.637        0.577        0.312       72.540       23.192        0.102      348.220       27.757      858.032
09/14/2013  12:30:00     -124.155      -66.670        1.486       52.184       45.224       25.089     2723.173     2045.191      629.464        1.263        0.270      140.923       20.272        0.021      348.012       27.398      858.016
09/14/2013  12:31:00      -47.341       -2.739        9.173       39.463       44.112       30.170     1557.318     1945.864      910.258        0.337        0.221       47.420       35.360        0.556      348.063       27.488      858.020
09/14/2013  12:32:00       57.295      -30.903       16.723       52.532       84.533       46.833     2759.570     7145.907     2193.290        0.831        0.605       65.098       48.933        0.565      348.155       27.646      857.995
09/14/2013  12:33:00      115.572     -175.651      -16.344      113.445      138.353       68.582    12869.720    19141.691     4703.482        4.059        1.836      210.262       73.525        0.122      348.075       27.505      857.957
09/14/2013  12:34:00      127.362       19.895       72.415       81.956       69.477       66.517     6716.747     4826.991     4424.507        1.891        0.798      128.906       54.185        0.177      348.021       27.412      857.957
09/14/2013  12:35:00       67.522       14.805       31.886       50.050       39.605       37.027     2504.982     1568.548     1371.007        0.562        0.272       69.126       29.870        0.187      347.751       26.948      857.970
09/14/2013  12:36:00       56.121       27.343        2.627       43.951       40.563       32.385     1931.734     1645.367     1048.801        0.426        0.231       62.428       29.693        0.226      347.835       27.092      857.952
09/14/2013  12:37:00       54.882        4.069       12.429       30.268       26.826       27.224      916.182      719.638      741.172        0.278        0.119       55.032       19.643        0.127      347.799       27.029      857.941
09/14/2013  12:38:00       29.593       -4.125        4.729       18.675       23.585       27.070      348.771      556.232      732.802        0.128        0.082       29.879        8.305        0.077      347.836       27.094      857.904
09/14/2013  12:39:00       73.448      -52.512      -12.495       62.296       50.729       39.730     3880.804     2573.408     1578.440        0.817        0.402       90.289       23.276        0.066      347.675       26.816      857.888
09/14/2013  12:40:00       65.312       37.722       15.459       41.885       34.292       34.785     1754.382     1175.964     1209.981        0.503        0.207       75.423       19.827        0.069      347.988       27.356      857.847
09/14/2013  12:41:00       34.308       78.029      105.738       84.356       67.711       44.028     7115.866     4584.792     1938.495        1.604        0.682       85.238       37.270        0.191      348.398       28.065      857.822
09/14/2013  12:42:00      102.219      -54.051       44.143       81.354      102.828       62.889     6618.513    10573.552     3955.075        1.823        1.057      115.630       49.297        0.182      348.131       27.602      857.801
09/14/2013  12:43:00      123.729       49.196       32.962       74.957       50.483       35.539     5618.523     2548.502     1263.042        1.412        0.472      133.151       14.112        0.011      348.037       27.441      857.793
09/14/2013  12:44:00       -8.908      -50.651       18.539       49.422       56.111       47.170     2442.577     3148.494     2224.987        0.540        0.391       51.428       14.681        0.081      348.280       27.861      857.785
09/14/2013  12:45:00       52.274     -112.625       -1.200       86.708      100.319       62.830     7518.278    10063.998     3947.605        1.847        1.076      124.165       70.814        0.325      348.242       27.793      857.760
09/14/2013  12:46:00       49.790      -24.068       19.740       62.226       65.851       58.903     3872.095     4336.417     3469.528        0.756        0.584       55.302       59.397        1.154      348.778       28.723      857.777
09/14/2013  12:47:00       53.610     -100.337       -1.302       63.926       55.378       32.182     4086.551     3066.730     1035.693        1.056        0.409      113.761       36.685        0.104      348.173       27.676      857.761
09/14/2013  12:48:00       61.748     -112.811       -2.269       47.390       73.818       32.250     2245.776     5449.103     1040.042        1.264        0.437      128.605       31.052        0.058      348.287       27.873      857.748
09/14/2013  12:49:00       43.641      -18.862       39.381       47.109       54.144       43.845     2219.244     2931.553     1922.413        0.544        0.354       47.543       38.683        0.662      348.326       27.940      857.743
09/14/2013  12:50:00       38.053       -1.662       52.956       55.076       53.055       42.301     3033.418     2814.781     1789.405        0.594        0.382       38.090       39.670        1.085      348.626       28.458      857.735
09/14/2013  12:51:00       23.964       -6.080       41.798       36.486       49.359       34.834     1331.196     2436.264     1213.375        0.367        0.249       24.723       24.635        0.993      348.637       28.479      857.733
09/14/2013  12:52:00       21.973      -40.043       29.167       38.402       50.260       38.505     1474.686     2526.070     1482.655        0.421        0.274       45.676       42.741        0.876      348.448       28.153      857.731
09/14/2013  12:53:00       20.637      -46.614        0.932       38.226       31.004       27.686     1461.212      961.238      766.516        0.289        0.159       50.978       11.539        0.051      347.928       27.252      857.714
09/14/2013  12:54:00       28.797        0.736      -11.360       36.691       28.390       25.324     1346.220      806.011      641.317        0.188        0.140       28.807       17.586        0.373      348.127       27.597      857.703
09/14/2013  12:55:00      -34.416       15.703      -12.780       38.237       43.611       30.166     1462.070     1901.934      910.010        0.293        0.214       37.829       15.657        0.171      348.394       28.059      857.685
09/14/2013  12:56:00       19.965       19.011        5.597       57.014       27.900       34.754     3250.624      778.421     1207.844        0.301        0.262       27.568       20.188        0.536      348.559       28.345      857.664
09/14/2013  12:57:00       43.638       19.871       13.477       42.771       39.966       25.290     1829.349     1597.278      639.576        0.327        0.203       47.949       17.339        0.131      348.383       28.038      857.657
09/14/2013  12:58:00       46.536      -68.731       29.165       75.316      125.311       72.767     5672.571    15702.897     5295.090        1.720        1.334       83.004       88.390        1.134      348.461       28.173      857.638
09/14/2013  12:59:00       44.430      -66.846       34.772       66.400       73.124       44.849     4409.019     5347.122     2011.395        0.971        0.588       80.265       40.675        0.257      348.500       28.242      857.609
09/14/2013  13:00:00      137.697       81.858       31.626       66.616       43.970       47.706     4437.630     1933.386     2275.851        1.765        0.432      160.191       25.001        0.024      348.250       27.808      857.608
09/14/2013  13:01:00       64.198       58.753        9.398       40.022       35.175       22.449     1601.731     1237.275      503.979        0.550        0.167       87.025       16.561        0.036      348.244       27.797      857.598
09/14/2013  13:02:00       13.698       36.774       10.387       22.271       24.474       18.978      495.992      598.976      360.176        0.155        0.073       39.242       13.836        0.124      348.764       28.699      857.568
09/14/2013  13:03:00       13.325      -12.207       16.412       27.669       34.154       22.239      765.548     1166.482      494.583        0.151        0.121       18.072       15.904        0.774      348.920       28.970      857.556
09/14/2013  13:04:00       14.714        6.184       43.163       40.984       43.132       33.149     1679.659     1860.392     1098.845        0.338        0.232       15.960       23.334        2.137      348.936       28.998      857.555
09/14/2013  13:05:00       81.660      -77.835       15.397       85.790      112.282       74.211     7359.879    12607.342     5507.302        1.921        1.274      112.812       83.358        0.546      348.531       28.293      857.532
09/14/2013  13:06:00       24.354     -157.606      -22.502       53.200       79.127       38.526     2830.255     6261.070     1484.262        1.826        0.529      159.477       18.342        0.013      348.216       27.747      857.531
09/14/2013  13:07:00       57.242     -171.215       -6.147       46.355       72.991       43.604     2148.771     5327.627     1901.298        2.100        0.469      180.531       40.865        0.051      348.221       27.757      857.515
09/14/2013  13:08:00      -10.897     -115.358       -7.409       48.558       62.941       50.169     2357.918     3961.512     2516.963        1.116        0.442      115.871       34.344        0.088      348.401       28.070      857.503
09/14/2013  13:09:00      -15.581      -76.303      -20.722       40.250       42.077       31.987     1620.095     1770.512     1023.189        0.545        0.221       77.878       18.360        0.056      348.735       28.648      857.500
09/14/2013  13:10:00      -37.791      -53.137        3.300       52.766       39.461       36.750     2784.215     1557.180     1350.526        0.498        0.285       65.205       31.367        0.231      348.860       28.866      857.481
09/14/2013  13:11:00      -84.676      -51.451       -5.529       47.277       41.194       33.195     2235.109     1696.945     1101.924        0.744        0.252       99.082       25.229        0.065      348.367       28.011      857.468
09/14/2013  13:12:00     -137.475      -36.040      -22.811       35.968       26.901       15.530     1293.700      723.651      241.176        1.149        0.113      142.121        9.892        0.005      348.108       27.564      857.461
09/14/2013  13:13:00        3.749        9.450       17.301       45.032       48.443       24.454     2027.896     2346.705      597.976        0.269        0.249       10.166       23.324        5.264      348.937       29.000      857.447
09/14/2013  13:14:00       21.304      -30.410        6.833       28.926       38.716       22.165      836.710     1498.919      491.308        0.213        0.141       37.130       15.412        0.172      348.320       27.932      857.433
09/14/2013  13:15:00      -24.464      -39.161        7.244       32.319       15.046       23.962     1044.518      226.379      574.171        0.201        0.092       46.175       18.392        0.159      348.355       27.991      857.412
09/14/2013  13:16:00      -73.789      -48.393       -9.977       31.694       31.073       23.738     1004.522      965.511      563.473        0.521        0.127       88.242       10.605        0.014      348.297       27.890      857.391
09/14/2013  13:17:00      -64.718      -28.054       11.005       31.046       37.051       20.005      963.832     1372.789      400.195        0.392        0.137       70.537       13.796        0.038      348.772       28.712      857.376
09/14/2013  13:18:00      -33.747       -2.482        6.872       43.582       29.085       22.583     1899.424      845.963      509.986        0.222        0.163       33.838       13.359        0.156      348.899       28.933      857.369
09/14/2013  13:19:00      -76.139      -22.192       -0.158       44.274       35.703       29.494     1960.202     1274.682      869.904        0.520        0.205       79.307       23.415        0.087      348.610       28.432      857.354
09/14/2013  13:20:00      -36.596        3.375       11.361       37.758       39.570       26.989     1425.652     1565.796      728.432        0.260        0.186       36.751       28.670        0.609      349.148       29.364      857.338
09/14/2013  13:21:00       -7.825        3.083       25.478       32.863       21.266       16.727     1080.007      452.258      279.791        0.127        0.091        8.410       16.821        4.000      349.363       29.737      857.329
09/14/2013  13:22:00      -87.440      -10.677       -0.770       38.854       39.060       19.889     1509.646     1525.684      395.563        0.559        0.172       88.089       12.820        0.021      348.817       28.791      857.329
09/14/2013  13:23:00      -56.158      -55.317       11.207       63.660       36.441       28.399     4052.651     1327.934      806.506        0.626        0.309       78.827       32.117        0.166      349.125       29.324      857.327
09/14/2013  13:24:00      -58.204      -33.075        2.977       74.004       63.675       31.641     5476.534     4054.502     1001.152        0.751        0.527       66.945       35.076        0.275      349.021       29.142      857.306
09/14/2013  13:25:00      -53.386      -90.278       -3.264      105.457       66.976       44.078    11121.088     4485.742     1942.856        1.428        0.877      104.882       31.771        0.092      348.866       28.874      857.301
09/14/2013  13:26:00      -74.207      -41.531        1.707       89.626       58.664       35.903     8032.895     3441.490     1289.040        1.000        0.638       85.038       37.234        0.192      348.895       28.925      857.289
09/14/2013  13:27:00      -63.777      -56.644        5.220       64.424       44.307       29.770     4150.427     1963.097      886.278        0.715        0.350       85.300       32.447        0.145      348.690       28.570      857.287
09/14/2013  13:28:00     -119.491      -14.701      -10.050       35.166       34.379       25.534     1236.663     1181.932      651.967        0.883        0.154      120.392       17.847        0.022      348.421       28.105      857.250
09/14/2013  13:29:00     -103.102      -29.736        7.832       60.072       45.017       24.942     3608.612     2026.540      622.096        0.892        0.313      107.304       26.688        0.062      348.696       28.580      857.243
09/14/2013  13:30:00      -76.643      -26.100      -11.086       32.952       22.642       13.150     1085.830      512.679      172.929        0.422        0.089       80.965       13.020        0.026      348.373       28.021      857.225
09/14/2013  13:31:00       66.044        9.805        8.662       50.945       23.778       40.232     2595.426      565.392     1618.624        0.466        0.239       66.768       28.970        0.188      348.663       28.524      857.216
09/14/2013  13:32:00        7.635       41.429        7.412       54.309       40.125       24.048     2949.472     1610.005      578.300        0.348        0.257       42.127       23.390        0.308      348.824       28.801      857.196
09/14/2013  13:33:00       82.287       47.722       14.909       63.818       58.990       31.303     4072.772     3479.856      979.867        0.890        0.427       95.124       27.750        0.085      348.627       28.461      857.180
09/14/2013  13:34:00       78.573       33.219       23.689       56.638       54.079       40.731     3207.885     2924.543     1658.998        0.781        0.390       85.306       12.062        0.020      348.783       28.730      857.166
09/14/2013  13:35:00      102.057       83.950       68.531       86.485       57.753       47.961     7479.622     3335.428     2300.231        1.763        0.656      132.149       29.022        0.048      348.624       28.455      857.159
09/14/2013  13:36:00      113.430       55.675       56.984       80.802       56.537       57.099     6528.891     3196.423     3260.263        1.610        0.649      126.357       37.521        0.088      348.652       28.504      857.152
09/14/2013  13:37:00       40.616       68.419       91.939       61.338       75.328       54.012     3762.290     5674.284     2917.254        1.357        0.618       79.566       52.590        0.437      349.098       29.278      857.148
09/14/2013  13:38:00       45.733      -35.437       48.684       72.545      108.269       74.224     5262.721    11722.133     5509.232        1.410        1.125       57.855       82.094        2.013      348.829       28.811      857.138
09/14/2013  13:39:00       15.539      -66.147       23.527       62.162      113.657       46.796     3864.064    12917.882     2189.847        1.207        0.949       67.948       49.404        0.529      349.081       29.246      857.122
09/14/2013  13:40:00      -49.001      -48.138       18.365       42.626       47.827       32.911     1816.990     2287.393     1083.140        0.512        0.259       68.691       27.401        0.159      349.137       29.344      857.123
09/14/2013  13:41:00        5.305      -84.291       -7.383       35.168       42.362       23.987     1236.793     1794.544      575.376        0.540        0.180       84.458       16.925        0.040      349.188       29.432      857.103
09/14/2013  13:42:00        0.754      -39.411       10.924       29.900       30.588       27.842      893.984      935.652      775.169        0.214        0.130       39.418       18.035        0.209      349.211       29.471      857.091
09/14/2013  13:43:00      -10.851      -67.920       -9.924       57.643       42.792       41.142     3322.691     1831.198     1692.634        0.584        0.342       68.781       24.324        0.125      348.771       28.709      857.079
09/14/2013  13:44:00       25.407       -1.849       20.568       34.758       52.585       26.437     1208.087     2765.233      698.930        0.287        0.234       25.474       22.926        0.810      349.370       29.749      857.045
09/14/2013  13:45:00       52.426       -7.815       22.831       40.930       57.248       42.041     1675.259     3277.365     1767.420        0.502        0.336       53.006       41.123        0.602      348.442       28.140      857.028
09/14/2013  13:46:00       40.855       58.375       70.910       69.591       78.292       68.023     4842.918     6129.663     4627.121        1.285        0.780       71.251       59.903        0.707      348.582       28.382      857.006
09/14/2013  13:47:00       39.973      -51.748       20.674       62.576       84.386       47.342     3915.810     7121.042     2241.292        0.899        0.664       65.388       38.447        0.346      348.907       28.947      856.987
09/14/2013  13:48:00       16.056      -46.639        7.441       30.359       53.228       27.770      921.640     2833.220      771.192        0.351        0.226       49.326       25.535        0.268      348.804       28.767      856.996
09/14/2013  13:49:00       67.315      -38.827       33.464       62.610       49.010       33.729     3920.063     2402.010     1137.649        0.731        0.373       77.710       27.025        0.121      348.929       28.983      856.979
09/14/2013  13:50:00       29.509      -53.902        9.578       43.337       73.933       34.190     1878.072     5466.129     1168.928        0.619        0.426       61.451       33.809        0.303      349.107       29.292      856.953
09/14/2013  13:51:00       31.084      -40.663       44.335       59.863       84.555       53.769     3583.561     7149.502     2891.149        0.910        0.681       51.183       42.992        0.706      349.189       29.435      856.940
09/14/2013  13:52:00       54.662      -75.943       45.960       63.444      124.217       50.207     4025.177    15429.965     2520.765        1.642        1.099       93.569       72.641        0.603      348.916       28.959      856.923
09/14/2013  13:53:00       45.169      -59.586       32.417       62.576      111.986       57.601     3915.814    12540.820     3317.895        1.320        0.989       74.771       58.795        0.618      349.097       29.275      856.894
09/14/2013  13:54:00       58.688       35.505       -9.728       57.316       41.855       36.095     3285.146     1751.826     1302.817        0.557        0.317       68.592        5.730        0.007      348.934       28.992      856.907
09/14/2013  13:55:00       52.496       25.571        5.788       49.765       79.178       40.001     2476.601     6269.200     1600.107        0.689        0.517       58.393       43.270        0.549      349.208       29.467      856.887
09/14/2013  13:56:00       31.721       28.097        7.944       30.393       30.365       22.954      923.725      922.044      526.870        0.212        0.119       42.375       17.192        0.165      349.350       29.714      856.884
09/14/2013  13:57:00       57.672       38.096        7.142       66.181       47.170       38.608     4379.917     2225.000     1490.602        0.646        0.405       69.118       22.431        0.105      349.117       29.311      856.880
09/14/2013  13:58:00       50.498        5.087       18.404       51.941       30.340       26.825     2697.826      920.533      719.605        0.363        0.217       50.753       13.720        0.073      349.260       29.557      856.854
09/14/2013  13:59:00       51.968        9.708       40.266       62.217       52.841       41.878     3870.980     2792.160     1753.741        0.641        0.421       52.867       37.412        0.501      349.099       29.280      856.840
09/14/2013  14:00:00      108.463       60.054       23.516       75.597       70.263       45.624     5714.982     4936.867     2081.564        1.433        0.637      123.979       17.501        0.020      348.996       29.099      856.829
09/14/2013  14:01:00       52.537      -16.215       37.691       54.367       92.521       31.091     2955.797     8560.193      966.661        0.846        0.624       54.982       38.553        0.492      348.780       28.726      856.803
09/14/2013  14:02:00       28.336      -10.252       15.625       32.256       31.565       33.831     1040.462      996.375     1144.558        0.217        0.159       30.134       12.860        0.182      349.387       29.778      856.783
09/14/2013  14:03:00       20.680       -6.670       45.172       56.810       92.085       66.382     3227.327     8479.592     4406.618        0.931        0.806       21.729       70.485       10.522      349.250       29.540      856.771
09/14/2013  14:04:00      119.492     -162.516       -5.314      115.474      154.058       64.940    13334.326    23733.963     4217.163        4.099        2.064      201.717       91.436        0.205      349.133       29.334      856.758
09/14/2013  14:05:00      164.067     -171.057      -36.808       69.169       83.380       49.154     4784.383     6952.195     2416.078        3.584        0.708      237.020       37.637        0.025      348.920       28.964      856.743
09/14/2013  14:06:00       41.734      -46.902       18.164       56.458       76.149       48.106     3187.542     5798.740     2314.160        0.778        0.565       62.782       45.181        0.518      349.214       29.478      856.747
09/14/2013  14:07:00      138.194     -132.964       -3.700       74.466       86.812       45.955     5545.144     7536.357     2111.892        2.599        0.760      191.773       52.702        0.076      348.925       28.974      856.751
09/14/2013  14:08:00       52.597      -68.870       23.144       59.017       75.877       52.833     3482.956     5757.310     2791.363        1.004        0.602       86.658       53.223        0.377      349.238       29.520      856.737
09/14/2013  14:09:00       54.946      -54.974       21.973       42.501       57.830       33.999     1806.330     3344.301     1155.922        0.641        0.315       77.725       21.281        0.075      349.086       29.256      856.725
09/14/2013  14:10:00       83.062     -146.800       -7.283       72.421       60.727       51.096     5244.791     3687.780     2610.809        2.002        0.577      168.670       45.179        0.072      349.037       29.169      856.713
09/14/2013  14:11:00       31.748      -97.384        3.703       62.079       50.526       32.496     3853.801     2552.844     1055.985        0.898        0.373      102.428       15.745        0.024      349.223       29.495      856.705
09/14/2013  14:12:00       50.262     -132.418        6.486       88.424       91.979       50.628     7818.810     8460.068     2563.204        1.947        0.942      141.636       48.179        0.116      349.038       29.172      856.692
09/14/2013  14:13:00       28.309      -83.241       18.201       38.640       65.140       33.312     1493.049     4243.186     1109.676        0.745        0.342       87.923       35.418        0.162      349.099       29.278      856.695
09/14/2013  14:14:00       30.825      -37.023      -11.555       61.520       76.577       42.916     3784.675     5864.078     1841.773        0.697        0.575       48.175       36.401        0.571      348.815       28.786      856.699
09/14/2013  14:15:00       53.920       25.410        2.843       68.546       81.220       52.018     4698.536     6596.698     2705.870        0.878        0.700       59.607       28.547        0.229      348.854       28.854      856.650
09/14/2013  14:16:00       41.842     -102.408       13.065       74.171       90.610       48.801     5501.304     8210.125     2381.544        1.425        0.805      110.626       49.730        0.202      349.219       29.485      856.639
09/14/2013  14:17:00        9.315       -6.018       41.354       29.954       58.714       33.112      897.251     3447.347     1096.385        0.364        0.272       11.090       34.440        9.644      349.326       29.672      856.648
09/14/2013  14:18:00       12.793       -8.104       48.892       48.219       86.326       38.125     2325.067     7452.244     1453.493        0.692        0.562       15.144       35.391        5.462      349.154       29.374      856.633
09/14/2013  14:19:00       51.128      -77.232        6.359       61.590       86.728       49.846     3793.389     7521.821     2484.621        1.121        0.690       92.623       46.703        0.254      348.951       29.023      856.624
09/14/2013  14:20:00       80.779      -40.566       36.446       70.062       88.115       62.390     4908.639     7764.273     3892.520        1.303        0.828       90.393       39.358        0.190      348.912       28.953      856.604
09/14/2013  14:21:00       58.332     -143.311       17.129       76.403       75.305       54.717     5837.432     5670.869     2993.979        1.937        0.725      154.727       49.832        0.104      348.975       29.063      856.592
09/14/2013  14:22:00       94.210     -194.436      -27.412       66.423       43.343       37.046     4412.021     1878.628     1372.375        2.755        0.383      216.058       25.501        0.014      349.077       29.238      856.601
09/14/2013  14:23:00       96.274     -187.576      -36.206       63.889       60.181       43.036     4081.811     3621.747     1852.077        2.766        0.478      210.840       39.637        0.035      349.013       29.126      856.598
09/14/2013  14:24:00       38.889      -92.499       23.080       66.961       65.993       48.596     4483.754     4355.108     2361.598        1.090        0.560      100.342       40.397        0.162      349.050       29.192      856.600
09/14/2013  14:25:00       68.000      -86.595       14.571       71.906       79.439       51.360     5170.469     6310.603     2637.811        1.322        0.706      110.103       54.738        0.247      348.971       29.057      856.598
09/14/2013  14:26:00       27.972      -34.185       28.350       66.731       87.102       64.472     4453.003     7586.784     4156.606        0.947        0.810       44.171       44.993        1.038      349.023       29.146      856.595
09/14/2013  14:27:00       64.640     -116.747       -5.839       85.621       80.524       52.877     7330.880     6484.194     2795.962        1.722        0.831      133.448       54.997        0.170      348.912       28.952      856.591
09/14/2013  14:28:00       59.285     -133.404       -7.969       34.801       45.333       33.242     1211.082     2055.114     1105.004        1.287        0.219      145.984       19.566        0.018      348.793       28.749      856.592
09/14/2013  14:29:00      104.395      -98.379       16.102       84.017      105.527       45.790     7058.877    11135.867     2096.719        2.056        1.015      143.446       65.055        0.206      349.191       29.436      856.571
09/14/2013  14:30:00      125.964     -120.920       -1.928       82.567       66.663       49.677     6817.263     4443.960     2467.806        2.211        0.686      174.610       42.936        0.060      349.028       29.154      856.557
09/14/2013  14:31:00       53.385      -24.873       12.642       68.770       59.445       37.900     4729.260     3533.704     1436.424        0.666        0.485       58.895        9.696        0.027      348.793       28.749      856.551
09/14/2013  14:32:00       88.101     -102.500      -11.651       67.163       80.924       47.937     4510.864     6548.623     2297.997        1.588        0.668      135.159       43.730        0.105      348.926       28.978      856.547
09/14/2013  14:33:00       53.075       11.120       66.719       63.539       83.548       64.366     4037.226     6980.193     4143.046        1.127        0.758       54.228       63.457        1.369      349.093       29.269      856.539
09/14/2013  14:34:00       26.068      -50.266        2.290       44.768       51.023       39.612     2004.205     2603.379     1569.093        0.469        0.309       56.624       22.625        0.160      348.805       28.769      856.552
09/14/2013  14:35:00      -64.099      -20.928        4.802       74.314       46.654       34.260     5522.524     2176.620     1173.730        0.672        0.444       67.429       41.056        0.371      349.222       29.492      856.525
09/14/2013  14:36:00      -54.033       -6.056        3.893       41.086       37.985       19.235     1688.051     1442.881      369.973        0.324        0.175       54.371        9.333        0.029      349.281       29.594      856.511
09/14/2013  14:37:00        0.519       77.636        2.161       38.351       47.454       36.499     1470.817     2251.909     1332.209        0.554        0.253       77.637       31.951        0.169      349.189       29.435      856.504
09/14/2013  14:38:00      141.878      104.321        3.715       92.143       41.460       37.241     8490.409     1718.965     1386.893        2.131        0.580      176.103       22.260        0.016      349.003       29.111      856.475
09/14/2013  14:39:00       96.765       -2.594        6.871       48.912       79.654       35.560     2392.347     6344.683     1264.516        0.971        0.500       96.799       31.459        0.106      348.758       28.688      856.438
09/14/2013  14:40:00       23.436       37.112       69.530       47.428       59.036       40.128     2249.433     3485.215     1610.226        0.705        0.367       43.893       39.681        0.817      349.219       29.486      856.430
09/14/2013  14:41:00       39.160       21.401       65.186       67.088      111.609       66.807     4500.857    12456.635     4463.160        1.383        1.071       44.627       68.144        2.332      349.426       29.844      856.416
09/14/2013  14:42:00      113.385       75.999       55.882       94.372       65.227       63.424     8906.074     4254.619     4022.574        1.947        0.859      136.499       39.779        0.085      349.243       29.526      856.410
09/14/2013  14:43:00      247.551      160.617       27.920       77.498       65.497       56.475     6005.959     4289.893     3189.452        5.067        0.674      295.092       35.170        0.014      349.023       29.144      856.416
09/14/2013  14:44:00      155.359      124.935        8.827       69.482       50.983       35.662     4827.792     2599.261     1271.775        2.426        0.435      199.362       11.092        0.003      348.885       28.906      856.425
09/14/2013  14:45:00       15.574       56.239       12.826       38.982       64.249       38.019     1519.588     4127.923     1445.431        0.533        0.355       58.356       28.557        0.239      349.282       29.596      856.421
09/14/2013  14:46:00       62.761       87.519        2.577       58.811       55.933       44.500     3458.792     3128.460     1980.268        1.008        0.428      107.697       38.532        0.128      349.308       29.640      856.412
09/14/2013  14:47:00       96.445       69.613       28.309       48.542       36.682       39.161     2356.352     1345.600     1533.560        1.009        0.262      118.943       25.237        0.045      349.230       29.507      856.419
09/14/2013  14:48:00       62.478       81.212       11.959       54.875       46.127       42.781     3011.303     2127.692     1830.175        0.880        0.348      102.463       26.597        0.067      349.256       29.551      856.414
09/14/2013  14:49:00       27.975       24.187       15.635       35.586       24.426       24.771     1266.331      596.635      613.586        0.204        0.124       36.981       16.840        0.207      349.415       29.828      856.406
09/14/2013  14:50:00       35.448       23.242       10.907       30.582       18.867       26.132      935.272      355.969      682.876        0.194        0.099       42.388       10.952        0.067      349.190       29.437      856.400
09/14/2013  14:51:00       99.355       52.271        2.089       81.637       76.044       36.655     6664.597     5782.763     1343.578        1.320        0.690      112.266       29.014        0.067      349.206       29.463      856.393
09/14/2013  14:52:00       66.209       67.034       14.722       63.231       46.490       37.015     3998.216     2161.345     1370.087        0.831        0.376       94.219       22.016        0.055      349.345       29.705      856.376
09/14/2013  14:53:00       67.719      -30.661       13.553       55.066       85.719       45.232     3032.309     7347.773     2045.925        0.907        0.621       74.337       45.686        0.378      348.950       29.020      856.373
09/14/2013  14:54:00       10.408        8.630       23.265       40.679       41.639       30.885     1654.749     1733.767      953.853        0.253        0.217       13.520       14.017        1.075      349.394       29.792      856.373
09/14/2013  14:55:00      -23.721       24.901       24.014       35.285       24.755       26.093     1245.035      612.834      680.853        0.215        0.127       34.391       17.346        0.254      349.443       29.876      856.357
09/14/2013  14:56:00      -47.777       21.198       13.161       22.190       16.141       27.401      492.388      260.542      750.792        0.220        0.075       52.269       17.097        0.107      349.451       29.889      856.357
09/14/2013  14:57:00      -54.872       -0.078        5.610       25.197       25.089       19.468      634.873      629.481      378.993        0.234        0.082       54.872       16.430        0.090      349.420       29.833      856.343
09/14/2013  14:58:00      -48.978      -37.466       -0.228       34.425       26.649       18.089     1185.112      710.177      327.221        0.301        0.111       61.664       15.388        0.062      349.519       30.007      856.331
09/14/2013  14:59:00        4.648       18.396       35.456       21.471       27.134       17.711      460.997      736.265      313.682        0.156        0.076       18.975       19.489        1.055      349.638       30.215      856.327
09/14/2013  15:00:00      -38.453      -40.151       32.185      116.134       70.527       36.692    13487.124     4973.994     1346.271        1.196        0.990       55.594       51.127        0.846      349.731       30.372      856.325
09/14/2013  15:01:00     -198.999     -106.074      -10.290       65.340       69.581       43.398     4269.375     4841.538     1883.367        3.097        0.550      225.505       30.272        0.018      349.258       29.550      856.298
09/14/2013  15:02:00     -134.563      -53.454      -11.705       95.550       78.626       34.629     9129.874     6182.085     1199.183        1.880        0.826      144.792       36.240        0.063      349.108       29.294      856.285
09/14/2013  15:03:00        0.623      -92.095        4.579       70.727       96.474       55.884     5002.280     9307.141     3123.033        1.296        0.872       92.097       45.908        0.248      349.680       30.285      856.263
09/14/2013  15:04:00      112.334     -147.791      -11.475       69.663       81.393       42.677     4852.959     6624.820     1821.345        2.394        0.665      185.637       39.589        0.045      349.579       30.107      856.260
09/14/2013  15:05:00      -21.855       46.612       21.257       47.385       42.466       41.023     2245.345     1803.337     1682.927        0.442        0.287       51.482       27.393        0.283      349.535       30.034      856.242
09/14/2013  15:06:00      -51.751      -39.001        1.723       57.213       75.314       34.104     3273.379     5672.229     1163.072        0.715        0.505       64.802       30.328        0.219      349.655       30.242      856.219
09/14/2013  15:07:00     -152.892      -65.734       -0.786       81.005       69.066       41.034     6561.765     4770.163     1683.819        2.035        0.651      166.424       31.775        0.036      349.355       29.719      856.210
09/14/2013  15:08:00     -112.180      -38.582       30.864       85.761       77.614       40.548     7354.948     6023.967     1644.173        1.502        0.751      118.629       40.598        0.117      349.463       29.907      856.185
09/14/2013  15:09:00      -94.889     -172.716       -5.977       91.448      100.329       42.057     8362.812    10065.937     1768.796        2.953        1.010      197.065       49.549        0.063      349.380       29.764      856.174
09/14/2013  15:10:00     -130.820     -135.494       14.528      123.278       87.988       61.067    15197.569     7741.906     3729.162        3.117        1.333      188.341       67.705        0.129      349.292       29.611      856.160
09/14/2013  15:11:00      -91.592     -115.114       -1.971       35.730       64.171       26.041     1276.623     4117.952      678.108        1.386        0.304      147.106       19.850        0.018      349.136       29.340      856.165
09/14/2013  15:12:00      -82.401      -70.238        4.017       80.741       57.081       37.876     6519.188     3258.216     1434.624        1.147        0.561      108.274       41.051        0.144      349.384       29.773      856.159
09/14/2013  15:13:00      -26.403     -197.091      -22.708       88.136       99.361       54.696     7767.898     9872.562     2991.602        3.034        1.032      198.852       37.387        0.035      349.207       29.463      856.161
09/14/2013  15:14:00      -76.483      -28.640       -3.446       74.704       75.472       43.351     5580.667     5695.971     1879.314        0.992        0.658       81.669       44.311        0.294      349.210       29.470      856.131
09/14/2013  15:15:00      -21.466     -106.001       -7.693       53.031       64.896       32.298     2812.288     4211.441     1043.187        0.991        0.403      108.152       23.215        0.046      349.559       30.075      856.106
09/14/2013  15:16:00      -42.918     -140.485      -23.913       53.076       71.458       35.976     2817.066     5106.208     1294.281        1.568        0.461      146.894       20.652        0.020      349.377       29.760      856.087
09/14/2013  15:17:00      -48.821      -96.970       -6.118       43.795       58.444       41.398     1918.026     3415.742     1713.823        0.943        0.352      108.566       28.338        0.068      349.542       30.046      856.053
09/14/2013  15:18:00      -36.794      -72.699       20.577       48.226       91.998       46.477     2325.729     8463.569     2160.119        1.000        0.647       81.480       61.172        0.564      349.652       30.238      856.035
09/14/2013  15:19:00      -50.624      -66.268      -17.419       52.375       66.448       32.445     2743.125     4415.305     1052.685        0.773        0.411       83.392       27.549        0.109      349.598       30.143      856.023
09/14/2013  15:20:00     -160.902     -110.041        7.405      100.398       76.938       48.368    10079.771     5919.517     2339.417        2.819        0.917      194.932       51.008        0.068      349.578       30.105      856.015
09/14/2013  15:21:00     -127.244      -84.225       10.017       75.381       62.627       45.259     5682.246     3922.120     2048.344        1.752        0.583      152.594       36.529        0.057      349.474       29.927      856.005
09/14/2013  15:22:00     -109.149       24.554      -41.840       66.401       66.956       28.045     4409.113     4483.149      786.534        1.197        0.484      111.877       27.858        0.062      349.075       29.236      856.022
09/14/2013  15:23:00      -44.637      113.356       -0.564       32.713       46.638       28.286     1070.158     2175.085      800.079        0.944        0.202      121.828       17.323        0.020      349.360       29.732      855.988
09/14/2013  15:24:00      -32.335        9.851        6.757       28.025       41.477       22.508      785.389     1720.350      506.621        0.210        0.151       33.803       18.816        0.310      349.725       30.364      855.980
09/14/2013  15:25:00      -40.965       -4.308       25.842       67.224       52.697       34.212     4519.035     2776.993     1170.472        0.541        0.423       41.190       37.715        0.838      349.495       29.966      855.980
09/14/2013  15:26:00      -54.721     -153.212       10.820       58.675       73.019       36.018     3442.733     5331.805     1297.286        1.833        0.504      162.691       37.075        0.052      349.336       29.689      855.979
09/14/2013  15:27:00      -26.608      -49.444       11.877       55.323       41.266       29.822     3060.637     1702.860      889.334        0.447        0.283       56.149       30.344        0.292      349.621       30.183      855.957
09/14/2013  15:28:00       15.916      -29.100       17.425       54.484       54.935       34.478     2968.518     3017.851     1188.728        0.429        0.359       33.168       33.906        1.045      349.494       29.963      855.941
09/14/2013  15:29:00      -69.949      -36.769       -9.433       67.739       47.063       30.423     4588.561     2214.955      925.552        0.703        0.386       79.024       24.909        0.099      349.595       30.139      855.933
09/14/2013  15:30:00      -15.664      -70.175      -16.821       32.313       50.398       30.705     1044.108     2539.996      942.772        0.499        0.226       71.902       17.253        0.058      349.497       29.967      855.925
09/14/2013  15:31:00       -3.168      -56.280       -9.190       45.610       54.370       29.526     2080.261     2956.097      871.809        0.458        0.295       56.369       32.187        0.326      349.624       30.187      855.910
09/14/2013  15:32:00       27.666      -47.607       -6.164       35.834       35.062       32.307     1284.087     1229.364     1043.751        0.331        0.178       55.062       18.532        0.113      349.707       30.333      855.890
09/14/2013  15:33:00      -36.526      -52.071       36.774       61.101       83.727       47.615     3733.327     7010.292     2267.184        0.920        0.651       63.604       39.942        0.394      349.836       30.557      855.855
09/14/2013  15:34:00       82.468     -144.532      -27.350       97.188       72.614       42.536     9445.468     5272.854     1809.352        2.248        0.826      166.405       46.148        0.077      349.520       30.004      855.854
09/14/2013  15:35:00        5.094     -142.073        8.287       59.861       59.513       45.060     3583.290     3541.855     2030.362        1.472        0.458      142.165       37.259        0.069      349.336       29.689      855.855
09/14/2013  15:36:00       -9.910      -43.567       24.620       63.513       59.115       36.970     4033.894     3494.608     1366.788        0.575        0.445       44.679       30.952        0.480      349.671       30.270      855.835
09/14/2013  15:37:00      -38.612      -61.980       15.895       75.629       48.908       34.063     5719.797     2391.965     1160.257        0.743        0.464       73.023       29.784        0.166      349.766       30.435      855.823
09/14/2013  15:38:00      -51.323      -43.523       -3.171       77.448       53.903       43.395     5998.202     2905.544     1883.154        0.766        0.539       67.292       36.207        0.290      349.648       30.230      855.803
09/14/2013  15:39:00      -61.076      -43.705        1.599       38.091       57.564       22.055     1450.921     3313.652      486.427        0.545        0.263       75.102       26.467        0.124      349.414       29.825      855.774
09/14/2013  15:40:00      -21.093       25.122       17.845       27.025       19.696       18.551      730.361      387.914      344.135        0.143        0.073       32.803        8.606        0.069      349.599       30.146      855.773
09/14/2013  15:41:00       -4.727      -25.687       11.969       24.356       30.100       23.308      593.191      906.024      543.271        0.143        0.102       26.118       17.083        0.428      349.620       30.182      855.772
09/14/2013  15:42:00        8.475      -41.514       -0.727       24.701       25.092       23.777      610.151      629.610      565.341        0.180        0.090       42.370        6.531        0.024      349.764       30.431      855.781
09/14/2013  15:43:00      -56.889       -0.677       10.861       54.171       31.668       29.103     2934.524     1002.889      847.002        0.407        0.239       56.893       30.414        0.286      349.781       30.460      855.773
09/14/2013  15:44:00      -96.639       13.573        3.812       52.277       37.832       28.510     2732.929     1431.275      812.827        0.726        0.249       97.587       23.335        0.057      349.430       29.852      855.764
09/14/2013  15:45:00        8.545        6.866       16.580       50.174       32.155       33.864     2517.431     1033.967     1146.775        0.255        0.235       10.962       33.137        9.138      349.274       29.582      855.742
09/14/2013  15:46:00      -35.631       -4.860        8.927       42.553       35.804       25.145     1810.718     1281.916      632.282        0.255        0.186       35.960       23.720        0.435      349.325       29.670      855.729
09/14/2013  15:47:00      -48.500      -11.684        8.201       50.885       57.646       22.809     2589.284     3323.118      520.260        0.449        0.322       49.887       19.829        0.158      349.510       29.991      855.707
09/14/2013  15:48:00     -174.930      -62.304      -18.765       63.422       55.206       33.713     4022.307     3047.649     1136.556        2.152        0.410      185.694       28.067        0.023      349.403       29.804      855.687
09/14/2013  15:49:00     -103.924      -52.902        0.068       76.764       49.588       40.909     5892.674     2458.922     1673.519        1.181        0.501      116.614       33.782        0.084      349.612       30.170      855.675
09/14/2013  15:50:00     -136.065      -78.876       -1.605       60.488       51.935       28.574     3658.812     2697.217      816.452        1.595        0.359      157.274       23.599        0.023      349.452       29.890      855.677
09/14/2013  15:51:00     -198.805      -88.133      -16.629       52.932       43.045       24.927     2801.755     1852.851      621.350        2.642        0.264      217.464       15.843        0.005      349.301       29.626      855.675
09/14/2013  15:52:00     -153.703     -114.285       -0.505       89.071       57.203       45.927     7933.600     3272.132     2109.329        2.500        0.666      191.535       49.983        0.068      349.434       29.856      855.667
09/14/2013  15:53:00     -120.360      -69.778       -8.573      100.765       41.351       34.476    10153.520     1709.887     1188.615        1.624        0.653      139.124       43.875        0.099      349.398       29.796      855.664
09/14/2013  15:54:00      -48.558      -34.133        5.045       60.683       29.474       26.705     3682.427      868.691      713.167        0.441        0.263       59.355       35.588        0.359      349.629       30.198      855.658
09/14/2013  15:55:00      -48.467      -66.008        8.305       54.047       42.627       32.426     2921.071     1817.060     1051.431        0.628        0.289       81.891       35.142        0.184      349.707       30.332      855.656
09/14/2013  15:56:00      -98.965      -14.169      -10.172       32.244       37.218       19.557     1039.673     1385.171      382.481        0.645        0.140       99.974       19.506        0.038      349.375       29.757      855.656
09/14/2013  15:57:00       19.634       40.146        2.369       25.100       26.384       22.561      630.017      696.140      508.979        0.192        0.092       44.690       13.534        0.092      349.287       29.605      855.653
09/14/2013  15:58:00        6.105       80.179        4.120       26.623       52.356       19.709      708.765     2741.152      388.443        0.516        0.192       80.411       15.407        0.037      349.247       29.536      855.646
09/14/2013  15:59:00       42.472       89.262        5.716       55.349       37.728       31.093     3063.494     1423.405      966.799        0.763        0.273       98.851       24.229        0.060      349.299       29.625      855.635
09/14/2013  16:00:00       41.512       48.226        2.722       41.288       33.704       24.451     1704.658     1135.955      597.847        0.375        0.172       63.632       19.669        0.096      349.312       29.648      855.631
09/14/2013  16:01:00       48.210       16.552       11.371       25.597       29.990       21.367      655.193      899.400      456.538        0.237        0.101       50.972       13.228        0.067      348.940       29.002      855.633
09/14/2013  16:02:00        8.023      -28.377        8.189       17.625       32.582       20.681      310.655     1061.585      427.696        0.137        0.090       29.489       11.008        0.139      349.200       29.455      855.636
09/14/2013  16:03:00        1.693       -7.433       20.819       31.262       23.376       14.798      977.327      546.436      218.969        0.112        0.087        7.624       14.733        3.735      349.103       29.286      855.624
09/14/2013  16:04:00     -190.935      -48.941      -16.173       48.280       47.501       26.379     2330.967     2256.350      695.844        2.220        0.264      197.107       18.846        0.009      349.382       29.767      855.608
09/14/2013  16:05:00      -91.061      -37.792      -10.141       91.563       71.453       38.549     8383.838     5105.474     1486.058        1.240        0.749       98.592       30.897        0.098      349.475       29.929      855.587
09/14/2013  16:06:00      -47.047      -94.587        4.805       71.178       56.220       36.367     5066.312     3160.684     1322.569        1.036        0.477      105.641       41.670        0.156      349.383       29.771      855.594
09/14/2013  16:07:00     -125.706     -115.691       -9.161       69.600       59.384       37.364     4844.161     3526.492     1396.065        1.952        0.488      170.840       29.458        0.030      349.362       29.734      855.587
09/14/2013  16:08:00     -129.226      -93.311      -14.688       62.026       58.150       40.867     3847.232     3381.380     1670.113        1.726        0.445      159.393       33.636        0.045      349.377       29.758      855.570
09/14/2013  16:09:00       22.167      -53.647        8.996       60.440       51.728       36.534     3653.052     2675.741     1334.699        0.556        0.383       58.046       33.670        0.336      349.275       29.583      855.552
09/14/2013  16:10:00        5.368        5.932       17.262       47.310       25.691       30.269     2238.243      660.035      916.211        0.209        0.191        8.000       22.752        8.088      349.126       29.326      855.524
09/14/2013  16:11:00      -73.644       -8.098        1.687       53.982       41.540       23.751     2914.016     1725.563      564.089        0.535        0.260       74.088       21.396        0.083      349.298       29.623      855.507
09/14/2013  16:12:00     -213.474     -137.844      -10.667       94.599       63.941       33.178     8948.910     4088.416     1100.777        3.941        0.707      254.110       20.873        0.007      349.330       29.677      855.493
09/14/2013  16:13:00     -225.053     -108.500       -9.819       89.846       64.826       42.169     8072.252     4202.409     1778.247        3.828        0.703      249.842       40.634        0.026      349.353       29.715      855.482
09/14/2013  16:14:00     -201.955      -63.000       -2.650       92.217       56.342       34.638     8504.036     3174.378     1199.811        2.882        0.644      211.553       38.880        0.034      349.397       29.793      855.475
09/14/2013  16:15:00     -179.847      -78.350        9.831       83.701       79.339       41.261     7005.884     6294.688     1702.494        2.679        0.750      196.173       43.541        0.049      349.393       29.785      855.472
09/14/2013  16:16:00     -124.399      -85.076        9.759       89.203       76.355       42.558     7957.163     5830.038     1811.160        1.920        0.780      150.709       43.175        0.082      349.403       29.803      855.477
09/14/2013  16:17:00     -182.911      -75.685       -2.950       50.905       38.639       28.648     2591.352     1492.991      820.696        2.205        0.245      197.951       19.933        0.010      349.258       29.552      855.471
09/14/2013  16:18:00     -113.769      -82.404       -1.246       62.539       40.486       26.727     3911.129     1639.079      714.320        1.300        0.313      140.477       33.730        0.058      349.347       29.708      855.480
09/14/2013  16:19:00     -155.800      -89.532       -0.379       77.087       61.700       36.344     5942.393     3806.895     1320.879        2.168        0.554      179.694       38.275        0.045      349.280       29.588      855.474
09/14/2013  16:20:00      -28.139        7.366       -2.237       41.057       25.462       30.173     1685.693      648.312      910.426        0.205        0.162       29.087       31.680        1.186      349.173       29.406      855.467
09/14/2013  16:21:00       -1.303        5.164        9.804       27.113       23.943       15.089      735.116      573.253      227.669        0.083        0.077        5.326       12.720        5.705      349.006       29.118      855.464
09/14/2013  16:22:00     -106.457      -64.799       -2.685       83.339       67.455       28.211     6945.333     4550.129      795.846        1.391        0.615      124.627       21.326        0.029      349.279       29.591      855.470
09/14/2013  16:23:00     -140.628     -120.299      -10.161       73.658       61.648       29.177     5425.573     3800.495      851.294        2.221        0.504      185.063       25.943        0.020      349.272       29.576      855.486
09/14/2013  16:24:00     -106.056     -103.694       13.633       94.823       71.239       42.724     8991.356     5075.028     1825.302        1.904        0.795      148.325       49.566        0.112      349.297       29.620      855.493
09/14/2013  16:25:00     -158.050     -148.528      -10.062       72.160       73.573       43.199     5207.023     5412.941     1866.185        2.981        0.624      216.889       35.923        0.027      349.175       29.406      855.492
09/14/2013  16:26:00     -137.265     -129.762       -2.325       73.574       96.528       35.406     5413.066     9317.703     1253.616        2.583        0.799      188.891       34.780        0.034      349.211       29.469      855.490
09/14/2013  16:27:00      -79.897      -62.232       11.989       79.282       54.749       34.735     6285.683     2997.501     1206.542        1.044        0.524      101.274       35.481        0.123      349.226       29.498      855.499
09/14/2013  16:28:00      -29.811      -51.272        7.724       59.387       51.616       34.400     3526.822     2664.228     1183.361        0.547        0.369       59.309       26.594        0.201      349.146       29.360      855.497
09/14/2013  16:29:00       28.089     -121.424      -15.822       76.243       61.207       45.022     5812.950     3746.318     2026.962        1.368        0.579      124.631       29.059        0.054      349.051       29.194      855.477
09/14/2013  16:30:00      -25.876     -129.625       -4.125       66.197       87.280       33.956     4382.055     7617.816     1153.021        1.532        0.658      132.182       38.950        0.087      349.120       29.314      855.476
09/14/2013  16:31:00      -22.448      -92.416       -5.709       97.015       68.833       34.022     9411.861     4738.046     1157.505        1.219        0.765       95.103       33.431        0.124      348.992       29.093      855.478
09/14/2013  16:32:00      -10.757      -66.751        6.022       64.997       65.809       48.406     4224.580     4330.799     2343.183        0.775        0.545       67.612       52.595        0.605      349.092       29.266      855.470
09/14/2013  16:33:00      -21.865      -19.422       12.624       27.478       32.307       28.935      755.038     1043.752      837.252        0.182        0.132       29.245       23.291        0.634      349.206       29.462      855.460
09/14/2013  16:34:00      -29.421      -77.671        4.795       59.115       60.919       38.283     3494.587     3711.148     1465.559        0.779        0.434       83.057       33.137        0.159      349.242       29.527      855.458
09/14/2013  16:35:00     -111.872      -98.966       -4.475       52.667       44.893       26.603     2773.812     2015.410      707.723        1.391        0.275      149.364       21.652        0.021      349.270       29.574      855.449
09/14/2013  16:36:00     -125.869     -118.981       -2.087       72.252       71.709       35.730     5220.406     5142.170     1276.637        2.082        0.582      173.203       32.877        0.036      349.269       29.572      855.453
09/14/2013  16:37:00      -34.458      -86.289       11.531       97.149       53.814       34.845     9437.991     2895.910     1214.204        1.115        0.677       92.915       31.584        0.116      349.296       29.619      855.442
09/14/2013  16:38:00      -66.256      -90.952       21.175       74.356       61.059       34.933     5528.769     3728.192     1220.342        1.179        0.524      112.526       39.969        0.126      349.268       29.571      855.439
09/14/2013  16:39:00     -157.470      -72.601        3.335       65.914       53.858       25.034     4344.686     2900.734      626.701        1.897        0.394      173.401       21.542        0.015      349.284       29.598      855.441
09/14/2013  16:40:00     -224.556      -76.840       -6.989       70.749       67.618       40.780     5005.378     4572.139     1662.972        3.381        0.562      237.339       33.914        0.020      349.208       29.463      855.435
09/14/2013  16:41:00     -139.048      -77.983        1.227       57.767       61.678       33.415     3337.070     3804.228     1116.531        1.684        0.413      159.422       26.938        0.029      349.210       29.470      855.449
09/14/2013  16:42:00     -102.725      -50.837        5.189       79.891       59.201       36.475     6382.627     3504.720     1330.456        1.219        0.561      114.617       35.802        0.098      349.168       29.396      855.449
09/14/2013  16:43:00     -151.842      -45.028       -8.405       52.080       39.347       26.413     2712.370     1548.185      697.648        1.506        0.248      158.378       24.557        0.024      349.232       29.510      855.470
09/14/2013  16:44:00     -175.108      -59.896       -0.224      103.579       58.240       43.267    10728.661     3391.879     1872.025        2.512        0.800      185.069       49.613        0.072      349.218       29.483      855.493
09/14/2013  16:45:00     -138.653      -66.465        5.102       88.450       56.616       43.327     7823.475     3205.407     1877.258        1.828        0.645      153.760       44.329        0.083      349.184       29.424      855.525
09/14/2013  16:46:00     -227.927      -96.723       -8.366       94.806       78.922       37.263     8988.169     6228.628     1388.525        3.899        0.830      247.600       38.512        0.024      349.171       29.400      855.557
09/14/2013  16:47:00     -286.470      -41.945      -20.186      109.510      121.042       58.284    11992.389    14651.131     3397.003        5.713        1.502      289.524       50.852        0.031      349.035       29.164      855.559
09/14/2013  16:48:00     -230.678      -57.247       -0.174      114.666       90.015       61.294    13148.399     8102.784     3756.987        4.074        1.250      237.675       59.992        0.064      348.940       28.999      855.591
09/14/2013  16:49:00     -161.807      -91.744       11.621      165.436      121.743       77.571    27368.964    14821.348     6017.210        4.146        2.410      186.007       94.276        0.257      348.897       28.925      855.593
09/14/2013  16:50:00     -339.229     -206.633       -6.058      155.349      117.789       83.385    24133.204    13874.228     6953.108       10.138        2.248      397.207       84.396        0.045      348.835       28.817      855.611
09/14/2013  16:51:00     -243.175     -131.726       -3.324      158.853      106.143       72.783    25234.410    11266.398     5297.433        5.914        2.090      276.561       75.183        0.074      348.831       28.809      855.618
09/14/2013  16:52:00     -156.916     -139.446       13.938      127.271       94.307       65.779    16197.897     8893.822     4326.835        3.683        1.471      209.923       66.872        0.101      348.808       28.770      855.622
09/14/2013  16:53:00     -295.363     -179.017      -19.537      169.234      111.661       83.584    28640.237    12468.105     6986.250        8.387        2.405      345.379       84.442        0.060      348.788       28.737      855.629
09/14/2013  16:54:00     -307.698     -107.664      -19.885      169.665      101.483       62.850    28786.091    10298.808     3950.120        7.484        2.152      325.991       61.570        0.036      348.793       28.745      855.640
09/14/2013  16:55:00     -308.193     -161.450       -4.124      167.549      111.690       66.221    28072.621    12474.739     4385.199        8.299        2.247      347.921       75.495        0.047      348.798       28.754      855.646
09/14/2013  16:56:00     -227.067     -142.387       -0.989      157.944      108.375       72.879    24946.367    11745.082     5311.397        5.691        2.100      268.017       81.781        0.093      348.776       28.715      855.655
09/14/2013  16:57:00      -89.925      -29.707       15.157      100.394       81.080       52.001    10078.923     6573.963     2704.118        1.427        0.968       94.705       54.639        0.333      348.871       28.882      855.647
09/14/2013  16:58:00     -203.511      -78.215        5.714      110.886       76.744       50.578    12295.766     5889.619     2558.166        3.415        1.037      218.024       51.798        0.056      348.844       28.834      855.649
09/14/2013  16:59:00     -142.229      -93.608       10.830       92.781       68.767       46.987     8608.316     4728.902     2207.770        2.232        0.777      170.269       37.812        0.049      348.907       28.943      855.654
09/14/2013  17:00:00     -196.984        8.613        4.923      159.356       74.599       47.511    25394.240     5565.041     2257.270        3.605        1.661      197.172       69.155        0.123      348.969       29.051      855.651
09/14/2013  17:01:00     -151.497     -120.626       16.779      109.664      107.245       57.031    12026.138    11501.435     3252.559        3.228        1.339      193.654       58.218        0.090      348.967       29.046      855.654
09/14/2013  17:02:00     -268.420     -219.537       -3.345      150.531      115.051       77.027    22659.432    13236.760     5933.111        8.103        2.091      346.765       82.197        0.056      348.863       28.866      855.641
09/14/2013  17:03:00     -267.095      -46.701       -1.484      104.625      133.310       57.163    10946.479    17771.683     3267.559        5.275        1.599      271.147       41.207        0.023      348.916       28.957      855.641
09/14/2013  17:04:00     -268.943     -151.954       -8.536      135.603       98.762       62.928    18388.094     9753.916     3959.896        6.379        1.605      308.902       69.496        0.051      348.882       28.898      855.645
09/14/2013  17:05:00     -275.500      -24.149       -9.964      143.591       91.436       65.368    20618.327     8360.498     4272.981        5.491        1.663      276.556       70.273        0.065      348.950       29.018      855.648
09/14/2013  17:06:00     -217.584      -73.545        6.764      150.926       95.386       67.070    22778.638     9098.574     4498.381        4.458        1.819      229.677       78.303        0.116      348.946       29.009      855.669
09/14/2013  17:07:00     -269.651      -99.985       -5.874      201.623      138.135       94.912    40651.845    19081.233     9008.315        7.573        3.437      287.591      104.256        0.131      348.928       28.979      855.654
09/14/2013  17:08:00     -158.193      -99.798        7.719      153.446      140.596       64.563    23545.633    19767.159     4168.371        4.125        2.374      187.042       68.077        0.132      348.980       29.071      855.669
09/14/2013  17:09:00     -220.658      -54.445        1.279      161.407      116.885       53.947    26052.276    13662.095     2910.226        4.713        2.131      227.276       71.414        0.099      349.100       29.276      855.687
09/14/2013  17:10:00     -358.093     -195.446      -20.740      163.718      160.839       72.084    26803.578    25869.212     5196.152       11.235        2.893      407.958       87.861        0.046      348.884       28.904      855.685
09/14/2013  17:11:00     -198.224      -60.766        3.522      129.989       85.685       54.049    16897.196     7341.875     2921.291        3.507        1.358      207.329       65.172        0.099      349.026       29.149      855.694
09/14/2013  17:12:00     -223.622      -32.265       -1.727      189.432      107.893       70.214    35884.394    11640.860     4930.044        5.174        2.623      225.938       87.807        0.151      349.078       29.240      855.704
09/14/2013  17:13:00     -275.969      -82.508       -6.833      135.673      139.459       69.848    18407.180    19448.925     4878.772        6.287        2.137      288.038       68.932        0.057      348.948       29.013      855.712
09/14/2013  17:14:00     -311.914     -115.335      -14.541      198.233      130.635       74.959    39296.435    17065.469     5618.793        8.638        3.099      332.555       89.186        0.072      348.975       29.061      855.730
09/14/2013  17:15:00     -370.915      -63.654       -3.903      194.826      145.592       78.291    37957.247    21197.063     6129.554       10.345        3.264      376.338       81.857        0.047      348.994       29.091      855.730
09/14/2013  17:16:00     -366.536     -145.308        4.749      197.212      177.620       88.785    38892.580    31548.909     7882.805       11.689        3.916      394.288       97.903        0.062      348.854       28.850      855.730
09/14/2013  17:17:00     -283.072     -140.226       -2.916      169.238      148.824       74.174    28641.607    22148.717     5501.737        7.804        2.815      315.901       87.566        0.077      348.813       28.781      855.745
09/14/2013  17:18:00     -202.360      -75.845        1.053      125.396       90.521       67.012    15724.170     8193.996     4490.606        3.755        1.420      216.106       69.713        0.104      348.845       28.835      855.730
09/14/2013  17:19:00     -143.693      -96.595        7.083      130.960      111.853       68.158    17150.475    12511.181     4645.576        3.216        1.715      173.143       80.459        0.216      348.851       28.847      855.715
09/14/2013  17:20:00     -442.652      -24.585       -7.865      228.302      130.862       87.712    52121.623    17124.928     7693.380       13.676        3.847      443.335      106.129        0.057      348.694       28.574      855.723
09/14/2013  17:21:00     -396.838      -23.035       -6.779      138.322      147.888       73.886    19133.085    21870.725     5459.095       10.225        2.323      397.506       67.520        0.029      348.677       28.543      855.731
09/14/2013  17:22:00     -269.013      -25.193        5.207      152.794      115.793       65.982    23345.922    13407.990     4353.578        5.706        2.055      270.190       75.701        0.078      348.620       28.447      855.716
09/14/2013  17:23:00     -404.516      -29.453       -9.947      168.288      115.286       64.668    28320.721    13290.880     4181.963       10.519        2.290      405.587       71.985        0.032      348.611       28.429      855.716
09/14/2013  17:24:00     -319.938      -36.490       -4.837      140.571      100.993       61.213    19760.340    10199.567     3747.045        6.870        1.685      322.012       62.703        0.038      348.624       28.453      855.718
09/14/2013  17:25:00     -268.641     -131.726      -13.590      137.382       92.963       64.389    18873.908     8642.143     4145.885        6.068        1.583      299.199       68.491        0.052      348.590       28.393      855.725
09/14/2013  17:26:00     -225.284      -84.907       -9.443      121.873       94.071       52.985    14853.107     8849.353     2807.376        4.228        1.325      240.753       59.956        0.062      348.652       28.503      855.726
09/14/2013  17:27:00     -233.548     -125.365        6.934      169.305      118.952       80.560    28664.218    14149.688     6489.864        5.980        2.465      265.068       92.437        0.122      348.589       28.391      855.712
09/14/2013  17:28:00     -241.081      -38.152       -2.217      136.130      163.063       66.525    18531.443    26589.387     4425.591        5.455        2.477      244.082       59.574        0.060      348.558       28.337      855.707
09/14/2013  17:29:00     -277.187      -89.880      -23.865      238.542      125.630       75.472    56902.321    15782.778     5696.072        8.192        3.919      291.395      103.859        0.127      348.473       28.192      855.735
09/14/2013  17:30:00     -422.972     -175.880      -19.073      166.267      201.650       85.840    27644.580    40662.700     7368.496       14.292        3.784      458.082       60.566        0.017      348.381       28.033      855.732
09/14/2013  17:31:00     -376.407      -53.141      -30.401      195.655      122.297       82.233    38280.939    14956.512     6762.321       10.270        3.000      380.140       80.065        0.044      348.403       28.069      855.714
09/14/2013  17:32:00     -418.518     -152.287        4.788      202.278      185.145       97.549    40916.471    34278.854     9515.903       14.152        4.236      445.363      108.806        0.060      348.355       27.985      855.712
09/14/2013  17:33:00     -340.594      -27.566      -17.076      155.440      121.348       86.349    24161.558    14725.250     7456.131        8.169        2.317      341.707       83.358        0.060      348.334       27.949      855.728
09/14/2013  17:34:00     -312.913      -23.496       -2.308      142.770      166.658       66.164    20383.237    27774.844     4377.701        7.549        2.627      313.794       70.515        0.050      348.333       27.948      855.735
09/14/2013  17:35:00     -421.766     -118.526      -23.964      188.274      186.694       83.628    35446.942    34854.512     6993.644       13.489        3.865      438.104       99.829        0.052      348.278       27.853      855.725
09/14/2013  17:36:00     -373.033     -123.312      -37.041      157.535      160.779       72.950    24817.233    25849.958     5321.648       10.585        2.799      392.886       80.144        0.042      348.281       27.857      855.714
09/14/2013  17:37:00     -251.575      -95.080       -2.056      121.837      100.002       66.314    14844.258    10000.405     4397.520        5.078        1.462      268.943       68.173        0.064      348.309       27.906      855.733
09/14/2013  17:38:00     -199.017      -38.198       -1.374      166.516      150.364       79.347    27727.685    22609.339     6295.894        4.884        2.832      202.650       84.864        0.175      348.314       27.915      855.740
09/14/2013  17:39:00     -272.856      -87.257       25.370      217.703      137.783       90.940    47394.448    18984.133     8270.098        7.866        3.732      286.469      113.933        0.158      348.297       27.886      855.730
09/14/2013  17:40:00     -391.220       -4.384      -13.125      134.483      112.272       75.433    18085.789    12605.112     5690.102        9.481        1.819      391.245       71.780        0.034      348.329       27.941      855.729
09/14/2013  17:41:00     -207.311     -111.842        9.007      160.510      106.270       75.255    25763.469    11293.395     5663.346        4.914        2.136      235.556       88.831        0.142      348.345       27.970      855.726
09/14/2013  17:42:00     -200.656      -55.428       -0.225      139.960       91.923       55.149    19588.781     8449.847     3041.419        3.720        1.554      208.171       66.124        0.101      348.432       28.121      855.747
09/14/2013  17:43:00     -131.555      -38.909       23.204      124.085      113.890       56.763    15397.012    12970.847     3222.017        2.547        1.579      137.189       65.323        0.227      348.449       28.151      855.745
09/14/2013  17:44:00     -212.802      -55.346       13.510      115.470      112.392       54.960    13333.385    12631.880     3020.623        3.875        1.449      219.882       55.614        0.064      348.442       28.137      855.720
09/14/2013  17:45:00      -62.017      -15.721       20.098      107.430       75.163       51.721    11541.249     5649.426     2675.024        1.218        0.993       63.979       51.850        0.657      348.557       28.339      855.725
09/14/2013  17:46:00     -257.070     -116.174        4.255      181.758      107.644       60.404    33036.114    11587.235     3648.612        6.393        2.414      282.102       72.371        0.066      348.483       28.210      855.720
09/14/2013  17:47:00     -229.590      -21.647       -6.441      174.515      129.324       72.312    30455.522    16724.680     5229.085        5.280        2.620      230.609       87.969        0.146      348.513       28.263      855.703
09/14/2013  17:48:00     -354.495     -114.625      -20.479      166.087      110.449       70.511    27584.806    12198.886     4971.739        9.198        2.238      372.566       84.156        0.051      348.432       28.121      855.679
09/14/2013  17:49:00     -319.133      -96.072       -3.156      144.359      115.394       66.753    20839.377    13315.856     4455.939        7.484        1.931      333.280       60.685        0.033      348.463       28.175      855.674
09/14/2013  17:50:00     -442.066     -116.790      -40.704      140.804      204.784       85.604    19825.720    41936.639     7328.051       13.989        3.455      457.234       86.994        0.036      348.349       27.975      855.652
09/14/2013  17:51:00     -363.876      -53.240      -20.361      109.032      127.331       68.118    11887.956    16213.155     4640.102        8.419        1.637      367.750       59.335        0.026      348.393       28.053      855.646
09/14/2013  17:52:00     -392.764      -47.968      -14.529      179.936      131.457       77.042    32377.100    17281.060     5935.523       10.617        2.780      395.682       91.101        0.053      348.411       28.083      855.642
09/14/2013  17:53:00     -262.925      -50.879        6.515      161.052      107.072       71.446    25937.651    11464.496     5104.509        5.713        2.125      267.803       82.835        0.096      348.412       28.086      855.640
09/14/2013  17:54:00     -196.098      -92.136        8.810      154.929      139.350       76.612    24002.897    19418.387     5869.406        4.815        2.465      216.665       81.949        0.143      348.349       27.977      855.631
09/14/2013  17:55:00     -337.608      -61.428      -15.502      158.590      101.395       63.903    25150.678    10281.026     4083.545        7.875        1.976      343.151       76.941        0.050      348.329       27.939      855.633
09/14/2013  17:56:00     -279.470      -47.614        1.828      173.523      144.623       73.409    30110.304    20915.908     5388.813        6.838        2.821      283.497       81.431        0.083      348.302       27.894      855.623
09/14/2013  17:57:00     -219.401     -135.400      -10.648      175.109      132.927       61.107    30663.039    17669.522     3734.057        5.931        2.603      257.818       81.135        0.099      348.306       27.903      855.619
09/14/2013  17:58:00     -308.492     -146.297      -15.521      162.675      111.202       76.589    26463.260    12365.922     5865.924        8.074        2.235      341.424       82.428        0.058      348.274       27.845      855.599
09/14/2013  17:59:00     -372.159     -184.213      -12.173      161.009      115.799       64.718    25923.848    13409.309     4188.382       10.804        2.176      415.255       79.731        0.037      348.250       27.807      855.571
09/14/2013  18:00:00     -296.080     -155.953      -32.739      166.812       98.700       66.820    27826.367     9741.655     4464.892        7.754        2.102      334.641       60.684        0.033      348.275       27.850      855.559
09/14/2013  18:01:00     -270.257      -45.685       -4.850      133.430      114.615       61.250    17803.621    13136.654     3751.535        5.491        1.735      274.091       68.386        0.062      348.282       27.860      855.560
09/14/2013  18:02:00     -243.944      -20.430       -1.861      150.307       99.694       73.523    22592.277     9938.946     5405.605        4.893        1.897      244.798       89.151        0.133      348.317       27.921      855.563
09/14/2013  18:03:00     -223.227     -108.330       -9.248      108.879      127.728       59.359    11854.583    16314.316     3523.522        4.667        1.585      248.124       59.602        0.058      348.294       27.880      855.562
09/14/2013  18:04:00     -231.042      -94.478        7.724      158.291      117.717       58.375    25056.045    13857.277     3407.656        5.234        2.116      249.613       76.137        0.093      348.239       27.788      855.557
09/14/2013  18:05:00     -229.883     -150.035      -19.350      135.656       92.031       56.208    18402.632     8469.748     3159.294        5.288        1.502      274.511       58.135        0.045      348.279       27.856      855.559
09/14/2013  18:06:00     -298.985     -174.559        2.466      185.785      123.936       84.921    34516.062    15360.128     7211.503        8.847        2.854      346.212       82.291        0.056      348.227       27.767      855.551
09/14/2013  18:07:00     -255.134     -105.066      -18.641      153.100       95.855       54.322    23439.658     9188.093     2950.896        5.602        1.779      275.921       62.397        0.051      348.240       27.787      855.556
09/14/2013  18:08:00     -189.797      -88.252      -11.519      103.484       98.875       45.675    10708.893     9776.172     2086.173        3.325        1.129      209.312       44.145        0.044      348.319       27.926      855.560
09/14/2013  18:09:00     -306.850     -150.592       -6.092      172.086      165.082       85.030    29613.565    27252.206     7230.022        9.047        3.205      341.811       81.487        0.057      348.267       27.835      855.557
09/14/2013  18:10:00     -229.125     -109.240        4.182      122.584      117.866       64.746    15026.917    13892.470     4192.099        4.877        1.656      253.833       64.363        0.064      348.237       27.782      855.556
09/14/2013  18:11:00     -120.686      -26.598       -0.720       88.233       76.510       46.445     7784.979     5853.728     2157.140        1.553        0.790      123.582       44.352        0.129      348.316       27.920      855.562
09/14/2013  18:12:00     -200.498      -77.648       16.855      146.320      119.109       64.526    21409.657    14186.911     4163.613        4.313        1.988      215.008       77.215        0.129      348.293       27.879      855.560
09/14/2013  18:13:00     -370.408     -185.387      -22.495      206.511      203.012       96.939    42646.853    41213.735     9397.088       13.265        4.663      414.211      101.112        0.060      348.254       27.812      855.568
09/14/2013  18:14:00     -295.932     -109.326      -16.634      167.116      125.156       75.662    27927.738    15664.077     5724.766        7.455        2.466      315.481       80.708        0.065      348.250       27.806      855.595
09/14/2013  18:15:00     -330.628      -52.958      -25.035      139.057      118.570       80.345    19336.729    14058.757     6455.371        7.629        1.993      334.842       72.670        0.047      348.293       27.879      855.590
09/14/2013  18:16:00     -233.550      -41.272      -10.556       76.435       98.394       47.077     5842.327     9681.311     2216.202        3.705        0.887      237.169       39.726        0.028      348.306       27.902      855.610
09/14/2013  18:17:00     -301.241     -170.907      -18.763      163.618      107.908       58.987    26770.985    11644.121     3479.520        8.109        2.095      346.345       57.974        0.028      348.298       27.886      855.609
09/14/2013  18:18:00     -356.943     -165.336      -20.991      153.824      126.880       68.018    23661.891    16098.602     4626.414        9.978        2.219      393.376       71.841        0.033      348.262       27.825      855.603
09/14/2013  18:19:00     -271.728      -58.501       -9.171      101.095       95.739       51.734    10220.255     9165.919     2676.357        4.970        1.103      277.954       50.922        0.034      348.283       27.861      855.608
09/14/2013  18:20:00     -170.868     -145.225      -17.551      125.934      102.617       65.817    15859.296    10530.232     4331.820        4.065        1.536      224.246       71.242        0.101      348.274       27.846      855.596
09/14/2013  18:21:00     -190.867      -83.293      -11.683      152.743      101.464       66.422    23330.319    10294.899     4411.935        4.076        1.902      208.250       81.232        0.152      348.313       27.915      855.602
09/14/2013  18:22:00      -61.397      -10.367       32.257      102.243       96.120       53.500    10453.609     9239.057     2862.291        1.373        1.128       62.266       64.566        1.075      348.270       27.842      855.607
09/14/2013  18:23:00     -161.379      -79.678       11.681      153.560      111.997       68.954    23580.645    12543.229     4754.599        3.670        2.044      179.977       80.394        0.200      348.277       27.851      855.602
09/14/2013  18:24:00     -226.083     -110.346       -4.871      160.515       87.301       51.874    25764.921     7621.525     2690.942        4.969        1.804      251.574       63.475        0.064      348.283       27.862      855.615
09/14/2013  18:25:00     -187.918       -4.168       -4.741       98.669       79.433       53.611     9735.492     6309.607     2874.091        2.713        0.946      187.964       58.550        0.097      348.320       27.928      855.637
09/14/2013  18:26:00     -161.786      -34.731       -6.277       97.803       62.003       46.241     9565.504     3844.427     2138.257        2.148        0.777      165.472       52.194        0.099      348.322       27.931      855.656
09/14/2013  18:27:00     -201.325     -146.858       -6.441      113.068      124.118       68.098    12784.457    15405.278     4637.300        4.748        1.641      249.197       74.068        0.088      348.306       27.903      855.673
09/14/2013  18:28:00     -250.942      -84.923       -8.643       99.499       91.850       46.845     9900.105     8436.448     2194.449        4.539        1.027      264.922       45.242        0.029      348.257       27.818      855.692
09/14/2013  18:29:00     -201.894      -79.200       -6.957       94.410       79.214       39.818     8913.237     6274.807     1585.497        3.192        0.839      216.873       38.549        0.032      348.268       27.836      855.706
09/14/2013  18:30:00     -127.902      -20.830        6.553      104.747       71.051       50.290    10971.863     5048.232     2529.082        1.769        0.927      129.587       54.088        0.174      348.320       27.927      855.708
09/14/2013  18:31:00     -152.289     -117.782        6.226      102.375      114.230       55.568    10480.619    13048.451     3087.752        3.185        1.331      192.522       59.595        0.096      348.278       27.853      855.717
09/14/2013  18:32:00     -177.703     -136.750       -1.534      103.199       98.574       49.024    10650.013     9716.784     2403.353        3.652        1.139      224.229       52.361        0.055      348.247       27.800      855.735
09/14/2013  18:33:00     -293.540      -62.091      -10.639      101.356       97.715       53.458    10272.945     9548.151     2857.792        5.640        1.134      300.035       47.350        0.025      348.229       27.768      855.748
09/14/2013  18:34:00     -251.856     -105.556        1.288       98.427       89.131       45.196     9687.813     7944.400     2042.691        4.712        0.984      273.082       47.569        0.030      348.245       27.797      855.754
09/14/2013  18:35:00     -224.129     -136.104       -9.702      124.550      110.176       58.418    15512.753    12138.773     3412.719        4.995        1.553      262.218       63.779        0.059      348.242       27.793      855.758
09/14/2013  18:36:00     -202.429      -43.443       -5.617      104.364       95.281       51.909    10891.798     9078.423     2694.566        3.278        1.133      207.038       51.911        0.063      348.249       27.803      855.773
09/14/2013  18:37:00     -216.367      -49.060      -21.757      124.743      100.541       43.392    15560.933    10108.411     1882.859        3.862        1.378      221.859       41.589        0.035      348.265       27.831      855.776
09/14/2013  18:38:00     -269.238       -3.765       -7.232       82.866       93.313       44.293     6866.717     8707.262     1961.912        4.504        0.877      269.264       35.443        0.017      348.243       27.795      855.785
09/14/2013  18:39:00     -251.568      -10.110       -6.119       95.330       82.591       49.507     9087.816     6821.327     2450.944        4.089        0.918      251.771       42.608        0.029      348.232       27.774      855.783
09/14/2013  18:40:00     -204.865      -52.208       -6.918      105.649       71.728       52.315    11161.674     5144.843     2736.881        3.189        0.952      211.413       49.978        0.056      348.210       27.738      855.789
09/14/2013  18:41:00     -294.858      -98.325       -9.076       90.281       89.113       47.692     8150.670     7941.106     2274.569        5.753        0.918      310.820       36.036        0.013      348.201       27.719      855.781
09/14/2013  18:42:00     -438.366       -7.676      -37.288      116.650       82.117       60.685    13607.311     6743.138     3682.632       10.882        1.202      438.433       65.042        0.022      348.180       27.684      855.779
09/14/2013  18:43:00     -367.448     -122.182      -10.963      142.325      108.415       55.247    20256.430    11753.734     3052.277        9.256        1.753      387.230       46.885        0.015      348.198       27.717      855.777
09/14/2013  18:44:00     -239.572      -80.692       -0.187      111.793      106.953       47.261    12497.712    11438.850     2233.627        4.503        1.309      252.796       49.865        0.039      348.179       27.683      855.772
09/14/2013  18:45:00     -303.271      -91.273       -8.091      175.859      112.222       67.417    30926.221    12593.695     4545.076        7.421        2.403      316.708       69.568        0.048      348.178       27.682      855.772
09/14/2013  18:46:00     -203.227      -41.691       -7.125      120.578       88.421       45.599    14539.165     7818.325     2079.292        3.376        1.222      207.459       45.080        0.047      348.186       27.695      855.791
09/14/2013  18:47:00     -351.952      -24.096      -27.389      105.130      109.152       60.826    11052.300    11914.237     3699.811        7.593        1.333      352.776       56.363        0.026      348.180       27.686      855.815
09/14/2013  18:48:00     -239.182      -65.660        1.113      143.791      104.693       65.510    20675.895    10960.610     4291.600        4.872        1.796      248.030       71.525        0.083      348.190       27.701      855.831
09/14/2013  18:49:00     -287.610      -86.634       -3.085      122.826      109.135       62.056    15086.246    11910.374     3850.971        6.053        1.542      300.374       55.947        0.035      348.156       27.643      855.849
09/14/2013  18:50:00     -248.544      -70.865      -20.658      128.134      109.274       48.068    16418.367    11940.848     2310.502        4.894        1.533      258.449       55.574        0.046      348.183       27.691      855.871
09/14/2013  18:51:00     -312.237      -31.094      -35.129      161.791       99.885       60.494    26176.281     9977.056     3659.516        6.974        1.991      313.781       74.376        0.056      348.186       27.694      855.894
09/14/2013  18:52:00     -254.169       85.492      -33.856      117.026      116.365       41.418    13695.138    13540.734     1715.458        5.100        1.448      268.162       22.419        0.007      348.180       27.686      855.930
09/14/2013  18:53:00      -99.670      107.257       -6.690       79.487      106.222       45.577     6318.248    11283.114     2077.260        2.058        0.984      146.418       33.433        0.052      348.121       27.585      855.961
09/14/2013  18:54:00     -174.254      187.227      -31.992       79.894       92.210       42.034     6383.123     8502.774     1766.853        4.154        0.833      255.771       38.377        0.023      348.124       27.588      856.000
09/14/2013  18:55:00     -221.547      182.773      -39.077       95.420       90.178       55.384     9105.021     8132.158     3067.340        5.216        1.015      287.209       49.244        0.029      348.153       27.638      856.010
09/14/2013  18:56:00     -172.474      154.858      -38.233       69.466       58.671       38.025     4825.526     3442.270     1445.932        3.245        0.486      231.793       39.391        0.029      348.178       27.680      856.031
09/14/2013  18:57:00     -137.185       74.956       -5.177       57.571      123.312       53.055     3314.444    15205.773     2814.819        2.290        1.067      156.327       47.787        0.093      348.204       27.728      856.043
09/14/2013  18:58:00     -193.730      178.640      -46.213       98.413      118.894       52.962     9685.117    14135.862     2804.970        4.910        1.331      263.522       51.893        0.039      348.229       27.769      856.079
09/14/2013  18:59:00     -192.868      297.826      -38.747       89.120      103.892       58.858     7942.441    10793.450     3464.210        7.480        1.110      354.821       50.970        0.021      348.159       27.649      856.114
09/14/2013  19:00:00     -174.994      203.054      -38.523       76.180      101.257       51.914     5803.460    10252.929     2695.114        4.604        0.938      268.056       55.217        0.042      348.161       27.651      856.138
09/14/2013  19:01:00     -187.759      159.929      -30.946       77.216       59.077       40.443     5962.250     3490.147     1635.643        3.644        0.554      246.639       35.700        0.021      348.148       27.629      856.166
09/14/2013  19:02:00     -151.429      134.356      -18.284       97.563      102.331       49.894     9518.461    10471.547     2489.375        3.189        1.124      202.441       43.440        0.046      348.090       27.528      856.185
09/14/2013  19:03:00     -140.153      188.592      -25.760       71.302      117.482       54.139     5083.953    13801.961     2930.990        3.884        1.091      234.968       48.959        0.043      348.081       27.512      856.208
09/14/2013  19:04:00     -200.653      185.103      -37.209       76.951       84.299       53.836     5921.430     7106.327     2898.322        4.591        0.796      272.992       53.492        0.038      348.022       27.409      856.235
09/14/2013  19:05:00     -143.604       78.817      -21.522       81.657       77.196       49.220     6667.866     5959.188     2422.637        2.117        0.752      163.812       36.819        0.051      347.992       27.361      856.256
09/14/2013  19:06:00     -238.036       99.039      -49.019       89.667      134.781       63.085     8040.090    18165.926     3979.723        4.952        1.509      257.817       57.254        0.049      347.958       27.300      856.293
09/14/2013  19:07:00     -213.726      124.287      -25.642      151.961      113.779       67.107    23092.191    12945.651     4503.307        5.115        2.027      247.237       80.642        0.106      347.876       27.161      856.330
09/14/2013  19:08:00     -218.178      128.679      -41.114      104.124      108.312       57.512    10841.840    11731.448     3307.600        4.586        1.294      253.298       58.864        0.054      347.863       27.137      856.360
09/14/2013  19:09:00     -163.695      202.677      -23.460       96.052      100.978       64.795     9225.981    10196.547     4198.412        4.602        1.181      260.526       63.553        0.060      347.816       27.055      856.383
09/14/2013  19:10:00      -97.128       47.238        2.322       93.165       61.061       40.455     8679.630     3728.454     1636.635        1.285        0.702      108.006       39.997        0.137      347.812       27.052      856.401
09/14/2013  19:11:00      -60.257       81.318       -6.543       42.378       65.744       35.137     1795.888     4322.253     1234.596        0.882        0.368      101.210       38.816        0.147      347.808       27.044      856.403
09/14/2013  19:12:00     -100.259      125.990       -8.576       70.309       88.667       42.884     4943.399     7861.804     1839.072        2.032        0.732      161.014       41.072        0.065      347.809       27.046      856.391
09/14/2013  19:13:00      -87.659      225.024      -17.610       60.757       82.357       46.419     3691.378     6782.620     2154.746        3.563        0.631      241.496       43.660        0.033      347.773       26.982      856.360
09/14/2013  19:14:00     -167.227       41.751      -16.166       91.924      114.207       55.080     8450.035    13043.262     3033.860        2.724        1.226      172.360       40.792        0.056      347.778       26.992      856.361
09/14/2013  19:15:00     -167.147       86.549      -32.322      100.888      152.555       57.743    10178.408    23273.090     3334.299        3.662        1.839      188.226       50.255        0.071      347.665       26.796      856.352
09/14/2013  19:16:00     -201.064       62.823       -7.532      122.680      158.850       67.972    15050.311    25233.451     4620.226        4.466        2.245      210.650       36.858        0.031      347.596       26.678      856.336
09/14/2013  19:17:00     -153.317      192.198      -20.613      101.901      114.789       62.174    10383.812    13176.475     3865.619        4.414        1.371      245.858       55.792        0.051      347.508       26.524      856.366
09/14/2013  19:18:00     -166.096      137.109      -13.645       99.392       91.357       58.475     9878.808     8346.073     3419.322        3.410        1.082      215.375       57.804        0.072      347.437       26.402      856.377
09/14/2013  19:19:00     -134.365      132.880       -8.706       84.129      101.833       62.548     7077.669    10369.888     3912.301        2.857        1.068      188.974       46.796        0.061      347.363       26.278      856.377
09/14/2013  19:20:00     -222.331       12.280      -12.930      122.411       91.680       73.832    14984.512     8405.307     5451.176        3.929        1.442      222.670       68.805        0.095      347.296       26.161      856.346
09/14/2013  19:21:00     -122.372       94.826      -37.082       85.783      127.907       55.615     7358.762    16360.152     3093.025        2.607        1.341      154.813       64.218        0.172      347.241       26.067      856.359
09/14/2013  19:22:00     -123.176      116.925       -9.902       84.626      161.069       59.597     7161.589    25943.354     3551.764        3.279        1.833      169.834       63.584        0.140      347.220       26.030      856.371
09/14/2013  19:23:00     -148.603      209.536      -29.262       94.744       99.777       66.687     8976.433     9955.386     4447.091        4.511        1.169      256.882       58.985        0.053      347.199       25.993      856.401
09/14/2013  19:24:00     -205.724      247.098      -33.326      158.035      127.788       82.289    24975.217    16329.734     6771.516        7.627        2.404      321.527       86.972        0.073      347.173       25.948      856.415
09/14/2013  19:25:00     -150.080      216.765      -24.906       98.107      105.867       58.907     9624.932    11207.734     3470.032        4.721        1.215      263.650       49.675        0.035      347.140       25.889      856.428
09/14/2013  19:26:00     -195.705      278.787      -37.458      106.387      123.700       68.255    11318.252    15301.712     4658.780        7.435        1.564      340.621       59.348        0.030      347.081       25.787      856.437
09/14/2013  19:27:00     -121.695      186.040       -7.814       68.654       89.903       54.913     4713.413     8082.485     3015.447        3.264        0.791      222.307       43.426        0.038      347.036       25.709      856.440
09/14/2013  19:28:00     -117.292       76.927      -32.818       54.735       79.011       36.094     2995.910     6242.687     1302.808        1.564        0.527      140.268       28.542        0.041      347.060       25.755      856.429
09/14/2013  19:29:00     -145.236      129.834      -20.449       76.932      105.105       56.455     5918.486    11047.025     3187.139        2.926        1.008      194.809       51.682        0.070      347.036       25.712      856.421
09/14/2013  19:30:00     -214.250      172.937      -35.449      102.299      151.870       60.484    10465.093    23064.379     3658.370        5.712        1.859      275.337       36.863        0.018      347.004       25.655      856.399
09/14/2013  19:31:00     -203.598      171.685      -43.882      115.831      121.153       55.905    13416.893    14677.959     3125.334        5.203        1.561      266.323       54.514        0.042      347.016       25.677      856.386
09/14/2013  19:32:00     -199.716      162.303      -43.183      100.429       98.491       60.939    10086.019     9700.388     3713.572        4.579        1.175      257.350       54.613        0.045      347.010       25.666      856.381
09/14/2013  19:33:00     -132.492      215.900      -34.183       78.652      106.990       66.445     6186.063    11446.814     4414.994        4.369        1.102      253.312       56.667        0.050      347.000       25.649      856.388
09/14/2013  19:34:00     -140.832      195.248      -38.931       77.485      101.804       47.723     6003.976    10364.062     2277.497        3.905        0.932      240.740       45.357        0.035      346.987       25.627      856.384
09/14/2013  19:35:00     -109.816      231.815      -24.908       88.080       86.565       56.041     7758.045     7493.434     3140.619        4.240        0.920      256.511       50.112        0.038      346.986       25.625      856.386
09/14/2013  19:36:00     -170.115      253.068      -34.591       84.049      108.562       59.599     7064.220    11785.637     3552.091        5.829        1.120      304.930       59.666        0.038      346.980       25.616      856.388
09/14/2013  19:37:00     -125.262      196.498      -10.200       88.472      102.969       54.430     7827.380    10602.710     2962.619        3.789        1.070      233.028       51.910        0.050      346.946       25.556      856.404
09/14/2013  19:38:00     -186.063      184.698      -32.716      106.972       89.828       45.150    11443.104     8069.153     2038.531        4.567        1.078      262.169       56.327        0.046      347.010       25.666      856.398
09/14/2013  19:39:00     -108.617      181.893      -15.881       74.651       91.839       38.487     5572.827     8434.326     1481.248        3.031        0.774      211.855       49.414        0.054      347.031       25.703      856.390
09/14/2013  19:40:00     -147.475      217.570      -27.640       83.084       86.212       44.968     6902.926     7432.565     2022.093        4.310        0.818      262.841       40.334        0.024      347.044       25.724      856.379
09/14/2013  19:41:00     -189.250      214.366      -41.473      118.596       80.533       55.762    14065.057     6485.607     3109.371        5.357        1.183      285.951       65.682        0.053      347.201       25.995      856.408
09/14/2013  19:42:00     -139.477      155.449      -16.290       76.126       73.479       55.800     5795.175     5399.217     3113.656        2.909        0.715      208.850       49.893        0.057      347.113       25.845      856.423
09/14/2013  19:43:00     -112.121      136.394      -16.723       75.838       76.016       43.558     5751.442     5778.469     1897.283        2.244        0.671      176.563       38.174        0.047      347.122       25.861      856.430
09/14/2013  19:44:00     -138.547      214.729      -24.331       81.362       83.739       52.801     6619.796     7012.272     2787.915        4.115        0.821      255.546       51.169        0.040      347.151       25.907      856.437
09/14/2013  19:45:00     -149.062      219.680      -31.909       66.216       63.576       39.131     4384.556     4041.947     1531.204        4.073        0.498      265.479       32.747        0.015      347.141       25.891      856.446
09/14/2013  19:46:00     -120.487      211.996      -28.568       66.191       72.637       36.424     4381.270     5276.089     1326.743        3.563        0.549      243.843       30.934        0.016      347.122       25.860      856.451
09/14/2013  19:47:00      -66.620      247.564      -18.066       60.810       73.511       40.986     3697.876     5403.874     1679.887        3.841        0.539      256.371       37.000        0.021      347.160       25.924      856.469
09/14/2013  19:48:00     -132.748      213.132      -29.895       89.705       47.545       35.189     8046.932     2260.534     1238.277        3.774        0.577      251.092       37.296        0.022      347.148       25.904      856.482
09/14/2013  19:49:00     -144.337      136.530      -21.957       71.695       55.306       35.202     5140.168     3058.770     1239.147        2.470        0.472      198.680       28.211        0.020      347.097       25.816      856.495
09/14/2013  19:50:00     -163.049      129.651      -29.517       82.443       81.719       42.638     6796.779     6677.958     1818.032        2.978        0.765      208.313       43.304        0.043      347.206       26.004      856.503
09/14/2013  19:51:00     -190.339      103.753      -24.368       63.634       43.714       34.825     4049.333     1910.956     1212.769        2.738        0.359      216.780       20.807        0.009      347.259       26.095      856.512
09/14/2013  19:52:00      -81.166      201.641      -25.581       59.905       79.922       46.722     3588.645     6387.598     2182.915        3.003        0.608      217.364       42.458        0.038      347.221       26.030      856.511
09/14/2013  19:53:00     -123.139      151.189      -23.065       58.164       84.620       41.911     3383.009     7160.586     1756.574        2.542        0.615      194.991       38.285        0.039      347.256       26.091      856.520
09/14/2013  19:54:00     -104.178      119.149      -19.875       49.868       86.960       30.225     2486.812     7562.030      913.549        1.820        0.548      158.270       27.229        0.030      347.266       26.108      856.534
09/14/2013  19:55:00      -73.440       28.774       -8.223       36.560       38.166       28.333     1336.605     1456.645      802.738        0.494        0.180       78.876       16.829        0.046      347.205       26.006      856.538
09/14/2013  19:56:00     -117.880      -27.624       -7.462       58.362       51.203       38.994     3406.082     2621.754     1520.541        1.113        0.377      121.073       36.342        0.090      347.220       26.032      856.547
09/14/2013  19:57:00     -127.785      -12.593       -3.861       58.882       46.037       34.748     3467.037     2119.369     1207.443        1.165        0.340      128.404       31.592        0.061      347.188       25.975      856.550
09/14/2013  19:58:00     -174.366        3.942      -30.183       76.636       50.351       28.627     5873.098     2535.273      819.488        2.028        0.461      174.410       21.799        0.016      347.199       25.993      856.566
09/14/2013  19:59:00     -173.074      -49.556      -27.185       51.975       44.931       28.885     2701.359     2018.808      834.368        1.935        0.278      180.029       20.281        0.013      347.153       25.916      856.576
09/14/2013  20:00:00     -127.926       -4.268       -8.592       46.137       43.333       28.143     2128.664     1877.771      792.013        1.063        0.240      127.998       16.884        0.017      347.122       25.864      856.594
09/14/2013  20:01:00      -95.623      -32.285       -3.918       47.382       36.985       24.379     2245.079     1367.853      594.321        0.720        0.210      100.926       18.298        0.033      347.070       25.772      856.606
09/14/2013  20:02:00     -190.560      -42.539       -4.386       68.930       67.725       38.970     4751.343     4586.630     1518.675        2.450        0.543      195.250       34.202        0.031      347.050       25.736      856.621
09/14/2013  20:03:00     -163.821       -7.322      -14.599       71.810       45.116       32.875     5156.728     2035.487     1080.771        1.769        0.414      163.984       35.594        0.047      347.091       25.806      856.615
09/14/2013  20:04:00     -109.243       19.119        0.077       44.241       36.546       24.697     1957.253     1335.642      609.941        0.810        0.195      110.903       20.613        0.035      347.070       25.773      856.614
09/14/2013  20:05:00     -114.470       11.813      -20.928       32.037       55.153       23.039     1026.400     3041.833      530.784        0.914        0.230      115.078       20.673        0.032      347.061       25.758      856.628
09/14/2013  20:06:00     -157.413      -75.760       -9.217       53.755       43.392       25.350     2889.635     1882.851      642.620        1.801        0.271      174.695       21.863        0.016      347.039       25.721      856.646
09/14/2013  20:07:00     -112.258      -21.451       -1.948       67.142       52.112       32.932     4508.025     2715.642     1084.513        1.069        0.415      114.289       35.945        0.099      346.973       25.606      856.647
09/14/2013  20:08:00     -155.264      -35.185       -8.347       61.091       56.353       31.571     3732.123     3175.647      996.725        1.666        0.395      159.201       32.419        0.041      347.168       25.941      856.636
09/14/2013  20:09:00     -218.066      -18.201       -9.940       71.158       48.264       34.500     5063.497     2329.431     1190.273        2.828        0.429      218.824       37.690        0.030      347.201       25.997      856.645
09/14/2013  20:10:00     -201.433      -70.712        1.537       93.237       52.806       36.788     8693.132     2788.516     1353.384        2.920        0.642      213.484       37.192        0.030      347.208       26.009      856.662
09/14/2013  20:11:00     -143.216      -18.261        2.542       55.607       68.279       34.118     3092.085     4662.021     1164.043        1.488        0.446      144.376       31.343        0.047      347.196       25.989      856.674
09/14/2013  20:12:00     -178.849      -53.306        0.990       58.010       57.585       29.257     3365.143     3316.057      855.945        2.118        0.377      186.624       26.868        0.021      347.185       25.970      856.679
09/14/2013  20:13:00     -137.347      -38.853        4.994       75.052       59.960       35.916     5632.733     3595.170     1289.981        1.546        0.526      142.737       41.319        0.084      347.271       26.119      856.681
09/14/2013  20:14:00     -142.596      -12.583       -0.210       56.288       49.659       33.623     3168.389     2466.001     1130.523        1.363        0.338      143.150       31.005        0.047      347.242       26.069      856.706
09/14/2013  20:15:00     -184.082       11.118      -21.186       56.184       44.610       30.312     3156.623     1990.036      918.808        2.026        0.303      184.418       26.798        0.021      347.212       26.016      856.718
09/14/2013  20:16:00     -113.998        2.402      -14.679       39.237       39.674       25.452     1539.508     1573.993      647.830        0.849        0.188      114.023       19.358        0.029      347.212       26.017      856.726
09/14/2013  20:17:00     -164.512      -42.327      -14.051       42.408       40.919       20.452     1798.423     1674.331      418.284        1.647        0.195      169.870       16.069        0.009      347.157       25.921      856.743
09/14/2013  20:18:00     -125.327      -44.466      -11.646       53.000       40.692       28.599     2809.024     1655.878      817.895        1.155        0.264      132.981       30.666        0.053      347.110       25.844      856.751
09/14/2013  20:19:00      -72.074      -26.127        0.127       52.736       41.402       23.587     2781.064     1714.157      556.329        0.546        0.253       76.663       26.445        0.119      347.088       25.804      856.757
09/14/2013  20:20:00     -146.358        8.052       -9.273       38.599       32.459       23.550     1489.916     1053.585      554.589        1.233        0.155      146.580       21.535        0.022      347.084       25.798      856.760
09/14/2013  20:21:00     -180.179       11.433      -16.204       39.503       48.941       21.822     1560.454     2395.243      476.199        1.864        0.222      180.542       18.905        0.011      347.182       25.965      856.764
09/14/2013  20:22:00     -173.543      -15.141      -16.547       67.278       43.686       25.590     4526.299     1908.430      654.871        1.885        0.354      174.202       23.112        0.018      347.094       25.813      856.769
09/14/2013  20:23:00     -164.414      -33.605       -8.921       51.735       50.478       30.130     2676.520     2548.047      907.838        1.719        0.307      167.813       24.803        0.022      347.149       25.909      856.788
09/14/2013  20:24:00     -209.261      -84.874       -0.556       50.826       50.744       33.382     2583.236     2574.994     1114.361        2.863        0.314      225.818       29.835        0.017      347.269       26.112      856.795
09/14/2013  20:25:00     -141.182      -68.050       -0.417       62.264       61.324       29.781     3876.818     3760.575      886.899        1.654        0.426      156.727       26.872        0.029      347.214       26.020      856.797
09/14/2013  20:26:00      -96.923      -32.591       -4.578       34.047       39.369       23.663     1159.189     1549.957      559.928        0.687        0.163      102.256       20.828        0.041      347.161       25.928      856.811
09/14/2013  20:27:00     -134.150      -20.412       -8.536       53.385       38.733       25.807     2849.995     1500.240      665.994        1.175        0.251      135.695       22.687        0.028      347.130       25.876      856.819
09/14/2013  20:28:00     -145.116      -35.872        5.221       85.645       70.373       38.781     7335.007     4952.376     1503.997        1.808        0.690      149.484       42.037        0.079      347.096       25.817      856.828
09/14/2013  20:29:00     -192.559      -51.546      -12.003       72.434       52.747       33.916     5246.650     2782.292     1150.296        2.453        0.459      199.339       22.150        0.012      347.167       25.938      856.831
09/14/2013  20:30:00     -229.271      -80.130       -9.299       67.671       61.081       33.006     4579.354     3730.868     1089.407        3.423        0.470      242.871       33.199        0.019      347.137       25.885      856.834
09/14/2013  20:31:00     -247.972      -76.576       -4.648       63.788       54.987       32.661     4068.925     3023.574     1066.770        3.777        0.408      259.526       34.571        0.018      347.087       25.797      856.839
09/14/2013  20:32:00     -236.564      -57.274      -12.132       70.564       62.750       41.437     4979.322     3937.608     1717.047        3.501        0.532      243.398       33.481        0.019      347.116       25.847      856.843
09/14/2013  20:33:00     -168.228      -40.798       -0.933      101.767       53.741       37.901    10356.507     2888.120     1436.494        2.232        0.734      173.104       46.924        0.073      347.054       25.742      856.847
09/14/2013  20:34:00     -155.402      -49.156       -7.942       71.244       44.523       29.785     5075.700     1982.268      887.157        1.729        0.397      162.991       29.723        0.033      347.018       25.682      856.845
09/14/2013  20:35:00      -86.094      -38.564       -2.877       57.103       65.990       34.978     3260.772     4354.640     1223.466        0.887        0.442       94.337       35.224        0.139      347.005       25.660      856.836
09/14/2013  20:36:00     -164.248      -22.562       -4.175       55.807       43.984       31.770     3114.433     1934.605     1009.346        1.678        0.303      165.791       32.354        0.038      347.052       25.740      856.836
09/14/2013  20:37:00     -169.165      -48.795       -9.923       81.113       67.722       29.918     6579.273     4586.269      895.109        2.158        0.603      176.062       19.871        0.013      347.130       25.874      856.845
09/14/2013  20:38:00     -166.361       17.989        2.209       91.953       67.499       50.917     8455.301     4556.101     2592.537        2.180        0.780      167.330       46.101        0.076      347.062       25.758      856.850
09/14/2013  20:39:00     -221.119      -24.183       -9.420      101.033       51.572       35.717    10207.752     2659.692     1275.733        3.185        0.707      222.438       40.512        0.033      347.148       25.905      856.855
09/14/2013  20:40:00     -174.335      -23.909       -3.825       65.419       55.980       33.907     4279.632     3133.756     1149.710        1.977        0.428      175.967       32.998        0.035      347.093       25.810      856.853
09/14/2013  20:41:00     -186.237      -54.721       -7.261       58.255       56.490       28.055     3393.618     3191.143      787.080        2.255        0.369      194.110       20.445        0.011      347.087       25.801      856.862
09/14/2013  20:42:00     -136.942      -70.953        3.502       75.873       62.928       34.091     5756.707     3959.923     1162.179        1.734        0.544      154.232       36.408        0.056      347.016       25.679      856.866
09/14/2013  20:43:00     -229.267      -71.789      -20.284       69.088       57.720       36.215     4773.115     3331.614     1311.493        3.377        0.471      240.244       33.579        0.020      347.050       25.736      856.855
09/14/2013  20:44:00     -189.505      -42.800       -4.237       82.237       62.283       39.655     6762.982     3879.170     1572.522        2.499        0.611      194.278       41.647        0.046      347.029       25.699      856.851
09/14/2013  20:45:00     -183.568      -19.782       -2.925       74.775       61.996       43.249     5591.299     3843.498     1870.479        2.270        0.565      184.631       43.405        0.055      346.985       25.625      856.867
09/14/2013  20:46:00     -195.010      -49.689       -5.485       62.765       67.993       41.576     3939.462     4623.021     1728.556        2.541        0.515      201.240       33.152        0.027      346.994       25.640      856.869
09/14/2013  20:47:00     -149.914      -66.038       -1.636       86.183       72.251       40.955     7427.578     5220.208     1677.276        2.058        0.716      163.814       31.241        0.036      346.981       25.617      856.878
09/14/2013  20:48:00     -144.492      -36.924       -0.598       80.442       57.580       32.235     6470.933     3315.440     1039.119        1.653        0.541      149.135       34.304        0.053      346.925       25.522      856.892
09/14/2013  20:49:00     -229.163       22.206      -22.835       61.255       58.458       36.587     3752.164     3417.392     1338.595        3.102        0.425      230.236       34.570        0.023      346.962       25.580      856.905
09/14/2013  20:50:00     -178.882       21.732       -9.611       52.967       45.576       39.205     2805.477     2077.212     1537.035        1.949        0.321      180.197       30.379        0.028      346.920       25.514      856.916
09/14/2013  20:51:00     -218.052       15.987      -14.453       63.704       64.088       29.327     4058.228     4107.232      860.056        2.852        0.451      218.637       26.109        0.014      346.930       25.529      856.918
09/14/2013  20:52:00     -134.561      -11.806       -0.929       82.088       57.102       39.222     6738.467     3260.631     1538.331        1.489        0.577      135.078       44.981        0.111      346.915       25.505      856.921
09/14/2013  20:53:00     -124.030      -45.509        2.518       56.773       46.986       28.009     3223.128     2207.675      784.521        1.184        0.311      132.116       29.584        0.050      346.942       25.552      856.925
09/14/2013  20:54:00     -154.088      -40.452       -8.071       45.759       55.138       28.275     2093.862     3040.180      799.463        1.569        0.297      159.309       23.975        0.023      346.961       25.583      856.928
09/14/2013  20:55:00     -125.714      -18.512       -1.277       46.653       54.776       27.533     2176.533     3000.400      758.074        1.104        0.297      127.069       25.728        0.041      346.917       25.510      856.933
09/14/2013  20:56:00     -112.729      -13.949      -10.910       49.966       64.558       34.251     2496.588     4167.683     1173.119        1.043        0.392      113.589       27.392        0.058      346.908       25.493      856.937
09/14/2013  20:57:00     -210.182       45.036       -8.716       94.792       60.211       37.446     8985.564     3625.319     1402.201        3.014        0.701      214.952       40.526        0.036      346.932       25.533      856.950
09/14/2013  20:58:00     -136.329      -27.394       -2.562       61.429       59.451       29.579     3773.531     3534.468      874.945        1.376        0.409      139.054       25.637        0.034      346.851       25.395      856.956
09/14/2013  20:59:00     -164.361      -21.516       -3.736      117.489       72.458       45.703    13803.761     5250.157     2088.788        2.431        1.057      165.764       48.588        0.086      346.822       25.343      856.957
09/14/2013  21:00:00     -180.242      -36.590       -9.224       89.378       55.794       39.854     7988.511     3112.966     1588.359        2.330        0.634      183.918       45.344        0.061      346.923       25.517      856.951
09/14/2013  21:01:00     -259.034      -10.703      -14.844      106.916       64.702       43.293    11430.971     4186.383     1874.304        4.246        0.875      259.255       35.109        0.018      346.958       25.577      856.944
09/14/2013  21:02:00     -278.575      -53.793      -17.591      115.710       89.722       50.601    13388.914     8050.111     2560.500        5.240        1.200      283.721       45.975        0.026      346.901       25.478      856.950
09/14/2013  21:03:00     -263.057      -67.670      -13.412       75.045       71.012       40.842     5631.767     5042.656     1668.068        4.315        0.617      271.622       38.227        0.020      346.953       25.566      856.938
09/14/2013  21:04:00     -251.347      -72.765      -21.481       76.470       83.859       37.852     5847.729     7032.407     1432.737        4.162        0.716      261.667       23.524        0.008      346.937       25.538      856.927
09/14/2013  21:05:00     -259.566      -50.341       -9.189      112.214       84.991       58.226    12591.915     7223.551     3390.275        4.659        1.160      264.403       55.031        0.043      346.927       25.523      856.925
09/14/2013  21:06:00     -179.601      -19.860        0.433       82.681       79.052       40.492     6836.208     6249.245     1639.568        2.369        0.736      180.696       33.000        0.033      346.885       25.451      856.932
09/14/2013  21:07:00     -248.313      -23.111      -20.363       83.659       75.030       46.147     6998.756     5629.455     2129.552        3.868        0.738      249.386       35.943        0.021      346.937       25.540      856.933
09/14/2013  21:08:00     -186.158      -99.523       -0.289       95.575       70.382       43.349     9134.519     4953.674     1879.117        3.026        0.798      211.091       56.501        0.072      346.866       25.419      856.921
09/14/2013  21:09:00     -236.240      -94.719      -10.428       60.529       73.926       34.097     3663.742     5464.986     1162.587        3.759        0.515      254.521       26.404        0.011      346.895       25.468      856.928
09/14/2013  21:10:00     -196.860      -79.984      -10.042       94.111       73.182       46.422     8856.909     5355.623     2154.974        3.081        0.818      212.488       46.547        0.048      346.902       25.481      856.939
09/14/2013  21:11:00     -198.957      -10.761      -22.349       74.709       67.301       33.223     5581.473     4529.487     1103.780        2.570        0.561      199.248       33.323        0.028      346.862       25.412      856.946
09/14/2013  21:12:00     -116.385       16.576       -2.009       81.916       48.456       40.623     6710.262     2348.021     1650.250        1.226        0.535      117.559       41.436        0.124      346.780       25.272      856.945
09/14/2013  21:13:00     -120.315      -28.788        1.713       74.507       65.549       30.830     5551.331     4296.614      950.483        1.305        0.540      123.711       33.150        0.072      346.808       25.322      856.950
09/14/2013  21:14:00     -194.232      -44.026       -9.288       68.823       45.998       36.252     4736.613     2115.857     1314.176        2.396        0.408      199.159       29.581        0.022      346.836       25.368      856.955
09/14/2013  21:15:00     -248.379       -7.305      -15.307       76.455       51.721       34.549     5845.385     2675.060     1193.612        3.584        0.486      248.486       35.794        0.021      346.817       25.332      856.963
09/14/2013  21:16:00     -281.980      -69.413      -16.853       98.817       63.754       55.357     9764.866     4064.593     3064.343        5.075        0.845      290.398       45.596        0.025      346.863       25.413      856.953
09/14/2013  21:17:00     -184.144      -39.614       -4.142       94.005       86.564       50.538     8836.871     7493.254     2554.112        2.719        0.944      188.357       50.739        0.073      346.790       25.288      856.950
09/14/2013  21:18:00     -263.680      -46.270      -11.725      103.166       65.961       42.586    10643.296     4350.809     1813.570        4.430        0.840      267.709       44.199        0.027      346.844       25.380      856.958
09/14/2013  21:19:00     -268.058      -55.042      -15.305       90.383       72.846       38.781     8169.023     5306.481     1503.943        4.505        0.749      273.650       35.435        0.017      346.831       25.358      856.948
09/14/2013  21:20:00     -291.419      -48.353      -19.181       76.926       64.491       45.069     5917.549     4159.044     2031.192        4.987        0.605      295.403       43.139        0.021      346.820       25.337      856.939
09/14/2013  21:21:00     -202.781      -33.094       -9.331       97.706       52.374       41.438     9546.554     2743.033     1717.077        2.815        0.700      205.463       46.965        0.052      346.771       25.254      856.940
09/14/2013  21:22:00     -268.181      -58.648       -7.560       77.827       76.148       40.906     6057.111     5798.501     1673.281        4.447        0.676      274.519       40.915        0.022      346.789       25.285      856.942
09/14/2013  21:23:00     -188.380      -58.157       -9.176       68.086       61.928       33.188     4635.639     3835.058     1101.414        2.426        0.479      197.153       32.947        0.028      346.744       25.208      856.942
09/14/2013  21:24:00     -181.748      -91.837       -1.467       92.640       61.546       34.011     8582.134     3787.932     1156.715        2.749        0.676      203.633       38.820        0.036      346.730       25.186      856.950
09/14/2013  21:25:00     -199.173      -65.297      -13.141       96.231       82.893       46.793     9260.315     6871.217     2189.623        3.121        0.916      209.604       53.922        0.066      346.773       25.259      856.957
09/14/2013  21:26:00     -164.043      -73.621       -4.584       94.372       69.391       45.485     8905.996     4815.100     2068.896        2.407        0.789      179.806       55.458        0.095      346.731       25.189      856.955
09/14/2013  21:27:00     -162.006      -26.354        7.186       81.704       70.724       42.421     6675.546     5001.920     1799.547        2.023        0.674      164.136       44.829        0.075      346.664       25.073      856.969
09/14/2013  21:28:00     -285.828      -70.165      -18.172      162.169       95.541       54.492    26298.935     9128.115     2969.371        6.267        1.920      294.314       56.791        0.037      346.744       25.210      856.986
09/14/2013  21:29:00     -232.878      -28.699       -4.110      109.713       69.153       47.388    12036.969     4782.122     2245.608        3.706        0.953      234.640       56.783        0.059      346.690       25.117      857.001
09/14/2013  21:30:00     -334.774      -57.875      -18.851      102.158       77.324       46.823    10436.203     5979.074     2192.428        6.719        0.930      339.740       44.521        0.017      346.752       25.222      857.005
09/14/2013  21:31:00     -220.963      -93.866       -9.620       99.497       89.485       47.152     9899.623     8007.578     2223.279        3.893        1.007      240.074       43.406        0.033      346.682       25.100      857.006
09/14/2013  21:32:00     -176.349      -57.798        9.543      131.194       77.688       63.726    17211.770     6035.409     4061.018        3.091        1.365      185.579       78.790        0.180      346.615       24.988      857.007
09/14/2013  21:33:00     -214.747     -128.471       -6.947      127.075      113.034       61.570    16147.988    12776.793     3790.916        4.769        1.636      250.242       62.451        0.062      346.655       25.055      857.019
09/14/2013  21:34:00     -244.770      -74.898        0.326      111.234       96.444       55.708    12373.041     9301.371     3103.412        4.515        1.239      255.973       54.767        0.046      346.673       25.088      857.019
09/14/2013  21:35:00     -319.772     -106.346      -21.074       87.771       66.941       43.005     7703.720     4481.038     1849.403        6.402        0.702      336.992       44.460        0.017      346.708       25.145      857.025
09/14/2013  21:36:00     -323.269      -18.321      -22.715       98.104       70.605       54.270     9624.428     4985.125     2945.278        6.145        0.878      323.788       45.319        0.020      346.682       25.102      857.041
09/14/2013  21:37:00     -234.546      -43.753       -1.521      111.124       92.169       61.538    12348.459     8495.107     3786.951        4.077        1.232      238.592       56.887        0.057      346.631       25.015      857.051
09/14/2013  21:38:00     -141.306      -22.185       14.210       87.042       84.093       44.289     7576.364     7071.665     1961.517        1.863        0.830      143.037       49.065        0.118      346.587       24.940      857.055
09/14/2013  21:39:00     -244.330      -48.469        2.385      168.383       89.473       52.977    28352.914     8005.441     2806.522        5.060        1.958      249.091       72.491        0.085      346.599       24.960      857.062
09/14/2013  21:40:00     -302.508      -94.641       -7.426      124.260      104.473       48.403    15440.617    10914.678     2342.884        6.460        1.435      316.967       51.955        0.027      346.675       25.089      857.072
09/14/2013  21:41:00     -210.138      -30.382       -2.974       96.015       81.009       48.897     9218.871     6562.435     2390.935        3.163        0.909      212.323       53.025        0.062      346.598       24.957      857.079
09/14/2013  21:42:00     -257.188      -16.448      -24.251       87.033       85.032       36.581     7574.665     7230.499     1338.172        4.157        0.807      257.713       28.342        0.012      346.611       24.980      857.089
09/14/2013  21:43:00     -281.715      -58.625      -16.081      132.376       98.510       49.620    17523.277     9704.296     2462.170        5.637        1.484      287.751       61.845        0.046      346.625       25.002      857.095
09/14/2013  21:44:00     -170.190      -33.387       -0.628      111.469       85.441       60.198    12425.371     7300.165     3623.839        2.671        1.167      173.434       68.160        0.154      346.585       24.937      857.111
09/14/2013  21:45:00     -104.822      -11.977        3.114       90.255       65.577       38.039     8146.001     4300.353     1447.003        1.251        0.695      105.504       32.117        0.093      346.549       24.875      857.105
09/14/2013  21:46:00     -270.993     -115.132       -8.052      125.072       91.753       57.226    15642.971     8418.576     3274.793        5.704        1.367      294.436       63.053        0.046      346.653       25.052      857.105
09/14/2013  21:47:00     -119.409      -44.308        1.108       77.035       95.205       52.156     5934.450     9064.033     2720.252        1.697        0.886      127.364       41.694        0.107      346.585       24.938      857.116
09/14/2013  21:48:00     -102.995      -39.457       14.743       75.519       52.909       34.388     5703.056     2799.316     1182.553        1.103        0.484      110.294       39.320        0.127      346.523       24.831      857.121
09/14/2013  21:49:00     -102.595      -40.819        7.480       92.404       92.910       42.988     8538.462     8632.252     1847.998        1.563        0.951      110.417       43.520        0.155      346.519       24.824      857.124
09/14/2013  21:50:00     -296.658      -64.358      -12.842       97.474       73.919       49.268     9501.276     5464.028     2427.346        5.485        0.870      303.558       40.650        0.018      346.590       24.942      857.139
09/14/2013  21:51:00     -141.170      -51.086       -5.685       66.030       65.775       39.081     4359.904     4326.294     1527.325        1.639        0.511      150.130       33.116        0.049      346.505       24.799      857.139
09/14/2013  21:52:00     -206.414       29.409       -0.913      102.435       78.773       45.487    10492.984     6205.191     2069.088        3.112        0.938      208.499       48.767        0.055      346.522       24.828      857.146
09/14/2013  21:53:00     -129.156      -23.877       12.238      112.077       73.231       43.375    12561.226     5362.710     1881.376        1.860        0.990      131.345       52.664        0.161      346.493       24.779      857.154
09/14/2013  21:54:00      -43.344      -27.204        4.535       63.176       43.185       30.131     3991.165     1864.924      907.852        0.470        0.338       51.174       30.438        0.354      346.431       24.674      857.159
09/14/2013  21:55:00      -43.177      -10.582       -7.276       45.727       33.942       31.839     2090.920     1152.065     1013.715        0.314        0.213       44.455       22.749        0.262      346.447       24.701      857.164
09/14/2013  21:56:00      -58.704        2.860      -15.715       55.455       30.763       28.479     3075.251      946.332      811.057        0.427        0.242       58.773       21.577        0.135      346.511       24.811      857.169
09/14/2013  21:57:00      -57.381       -7.094        4.319       40.583       49.803       22.646     1646.974     2480.386      512.851        0.400        0.232       57.818       22.129        0.146      346.457       24.717      857.170
09/14/2013  21:58:00      -36.079      -39.326       23.912       41.279       54.026       21.171     1703.964     2918.802      448.200        0.424        0.254       53.368       20.501        0.148      346.375       24.577      857.192
09/14/2013  21:59:00      -46.650       21.731        1.120       35.083       39.666       16.106     1230.797     1573.430      259.408        0.286        0.153       51.463       16.290        0.100      346.386       24.596      857.211
09/14/2013  22:00:00      -95.307       22.414      -17.896       56.457       40.540       33.026     3187.426     1643.499     1090.733        0.791        0.296       97.907        9.023        0.008      346.572       24.917      857.211
09/14/2013  22:01:00      -26.103       24.211       26.119       23.041       21.852       20.869      530.874      477.503      435.516        0.170        0.072       35.603       14.793        0.173      346.025       23.976      857.214
09/14/2013  22:02:00        3.366      -19.221        3.697       30.916       27.309       20.059      955.825      745.768      402.378        0.125        0.105       19.514       16.394        0.706      346.016       23.960      857.215
09/14/2013  22:03:00       10.214        1.251       23.108       27.178       28.420       21.790      738.670      807.724      474.810        0.133        0.101       10.290       18.236        3.140      346.053       24.022      857.225
09/14/2013  22:04:00       19.739      -50.373        8.954       41.280       23.266       15.648     1704.050      541.324      244.858        0.275        0.125       54.102       11.402        0.044      346.135       24.167      857.236
09/14/2013  22:05:00       10.699       24.448       14.836       21.372       17.518       17.343      456.767      306.886      300.787        0.100        0.053       26.687       12.784        0.229      345.721       23.454      857.231
09/14/2013  22:06:00       11.006       15.604       -9.911       19.797       26.732       17.106      391.911      714.577      292.612        0.093        0.070       19.095       11.173        0.342      346.047       24.016      857.230
09/14/2013  22:07:00       50.191       -9.353        2.737       16.517       15.452       21.700      272.810      238.752      470.896        0.180        0.049       51.055        6.470        0.016      345.529       23.125      857.226
09/14/2013  22:08:00       25.464       -0.217       12.373       27.238       21.911       20.071      741.906      480.084      402.835        0.121        0.081       25.465       21.015        0.681      345.675       23.374      857.226
09/14/2013  22:09:00       57.593       -7.612       12.394       32.484       17.540       16.561     1055.213      307.636      274.278        0.258        0.082       58.094       15.099        0.068      345.628       23.294      857.221
09/14/2013  22:10:00       47.340       -8.164       27.282       32.486       23.956       17.854     1055.328      573.871      318.768        0.250        0.097       48.039       19.251        0.161      345.671       23.368      857.214
09/14/2013  22:11:00       66.403       -1.886       15.086       26.495       10.990       20.141      702.001      120.777      405.667        0.293        0.061       66.429       17.015        0.066      345.803       23.595      857.209
09/14/2013  22:12:00       66.745       11.291        9.866       22.239       17.735       19.026      494.583      314.540      361.994        0.293        0.059       67.693       16.026        0.056      345.689       23.398      857.217
09/14/2013  22:13:00       48.349       33.397       27.591       30.622       19.027       23.385      937.711      362.033      546.878        0.303        0.092       58.762       15.918        0.073      345.590       23.229      857.198
09/14/2013  22:14:00       20.306       15.587       30.252       37.075       21.402       17.784     1374.592      458.056      316.280        0.186        0.107       25.598       18.645        0.531      345.580       23.212      857.183
09/14/2013  22:15:00       19.311        2.736       18.454       26.587       21.975       18.422      706.861      482.917      339.352        0.112        0.076       19.504       21.391        1.203      345.549       23.158      857.183
09/14/2013  22:16:00       17.425       -5.251       11.770       23.309       16.985       14.865      543.303      288.478      220.968        0.076        0.053       18.199       14.514        0.636      345.510       23.093      857.178
09/14/2013  22:17:00       32.043       10.827       16.836       25.910       32.657       27.122      671.314     1066.512      735.582        0.195        0.124       33.823       25.577        0.572      345.430       22.956      857.166
09/14/2013  22:18:00       54.375       40.758       30.393       26.987       18.852       28.308      728.301      355.398      801.330        0.371        0.094       67.955       14.975        0.049      345.144       22.465      857.155
09/14/2013  22:19:00       27.097        6.600       19.959       27.710       21.288       18.082      767.828      453.159      326.963        0.136        0.077       27.889       18.367        0.434      345.407       22.915      857.154
09/14/2013  22:20:00       28.509       10.828       23.253       28.130       28.597       20.224      791.315      817.762      409.004        0.174        0.101       30.496       21.303        0.488      345.525       23.116      857.170
09/14/2013  22:21:00       27.366        5.693       15.127       24.757       14.733       17.357      612.904      217.067      301.283        0.107        0.057       27.952       12.180        0.190      345.364       22.840      857.171
09/14/2013  22:22:00       25.620        0.156        9.005       12.406       13.344       10.996      153.914      178.053      120.922        0.060        0.023       25.620        8.257        0.104      345.369       22.849      857.165
09/14/2013  22:23:00       22.331        8.411        5.368       12.973        8.199        8.981      168.290       67.229       80.658        0.046        0.016       23.863        6.769        0.080      345.689       23.398      857.170
09/14/2013  22:24:00       58.730        8.785       11.057       19.027       14.093       12.395      362.025      198.612      153.639        0.218        0.036       59.383        8.764        0.022      345.822       23.627      857.177
09/14/2013  22:25:00       31.019      -10.515        7.887       19.419       23.783       15.787      377.093      565.643      249.229        0.116        0.060       32.753       14.905        0.207      345.738       23.482      857.176
09/14/2013  22:26:00        4.115        4.961        4.064       30.525        8.872       10.000      931.788       78.715       99.993        0.058        0.056        6.445        8.180        1.611      346.042       24.006      857.186
09/14/2013  22:27:00      -93.568      -23.109       -8.363       33.275       19.024        9.727     1107.239      361.917       94.607        0.546        0.078       96.380       15.270        0.025      346.020       23.968      857.205
09/14/2013  22:28:00     -133.279      -54.446       -3.570       19.864       28.031       14.228      394.576      785.732      202.428        1.106        0.069      143.971       11.919        0.007      345.548       23.156      857.220
09/14/2013  22:29:00      -34.157        3.147        6.292       49.638       20.917       17.368     2463.912      437.523      301.643        0.221        0.160       34.301       23.955        0.488      345.437       22.967      857.211
09/14/2013  22:30:00       -5.076        2.201        6.767       11.661        8.215        8.651      135.980       67.489       74.847        0.018        0.014        5.532        3.349        0.366      345.374       22.859      857.180
09/14/2013  22:31:00      -21.408       -5.238       -0.029       35.114       31.961       14.179     1232.984     1021.507      201.043        0.147        0.123       22.040       12.482        0.321      346.209       24.292      857.180
09/14/2013  22:32:00      -82.598      -91.833        7.961       77.776       55.565       34.555     6049.037     3087.460     1194.028        1.282        0.517      123.514       40.452        0.107      346.045       24.010      857.197
09/14/2013  22:33:00     -116.521      -99.279        1.030       57.106       56.886       33.830     3261.099     3236.020     1144.452        1.554        0.382      153.080       31.547        0.042      345.988       23.911      857.197
09/14/2013  22:34:00     -116.245      -88.971       12.524       83.605       61.567       41.992     6989.782     3790.476     1763.332        1.706        0.627      146.385       40.743        0.077      345.933       23.817      857.202
09/14/2013  22:35:00      -14.660      -70.921        8.220       32.621       33.749       24.135     1064.132     1138.973      582.487        0.405        0.139       72.421       21.003        0.084      345.916       23.788      857.188
09/14/2013  22:36:00       12.608       -0.936       18.464       36.841       19.295       17.966     1357.296      372.294      322.782        0.128        0.103       12.643       14.555        1.325      345.821       23.625      857.188
09/14/2013  22:37:00      -54.771      -49.107        2.737       49.351       45.150       15.402     2435.564     2038.537      237.209        0.506        0.236       73.562       22.227        0.091      345.935       23.821      857.193
09/14/2013  22:38:00      -48.258      -72.131        6.610       42.076       31.882       26.881     1770.365     1016.472      722.577        0.554        0.175       86.786       18.192        0.044      345.946       23.840      857.210
09/14/2013  22:39:00      -57.861      -71.223        4.016       50.191       35.718       35.352     2519.109     1275.799     1249.761        0.674        0.252       91.765       32.871        0.128      345.980       23.898      857.211
09/14/2013  22:40:00     -106.694      -89.379        0.564       42.507       33.535       30.256     1806.852     1124.581      915.397        1.161        0.192      139.185       19.554        0.020      345.872       23.713      857.214
09/14/2013  22:41:00      -84.987      -64.108       -1.498       35.010       43.219       22.538     1225.710     1867.898      507.982        0.747        0.180      106.455       19.469        0.033      345.824       23.631      857.210
09/14/2013  22:42:00     -104.045      -72.703       -8.988       36.626       33.995       16.018     1341.470     1155.690      256.577        0.947        0.138      126.930       14.604        0.013      345.826       23.633      857.220
09/14/2013  22:43:00      -25.077      -24.921        8.430       33.076       39.388       18.091     1093.991     1551.395      327.277        0.215        0.149       35.354       16.246        0.211      345.562       23.181      857.234
09/14/2013  22:44:00        2.559       -1.617       16.008       19.408       30.860       17.620      376.685      952.335      310.470        0.095        0.082        3.027       17.451       33.237      345.089       22.371      857.228
09/14/2013  22:45:00      -42.631      -69.482        6.474       32.129       46.687       22.270     1032.281     2179.690      495.941        0.520        0.185       81.518       20.113        0.061      345.710       23.435      857.261
09/14/2013  22:46:00      -49.332     -122.384        5.981       37.059       39.660       22.314     1373.388     1572.878      497.910        1.045        0.172      131.953       17.803        0.018      345.749       23.501      857.281
09/14/2013  22:47:00     -111.964     -109.419       -5.395       54.480       40.802       24.964     2968.072     1664.804      623.216        1.490        0.263      156.551       12.562        0.006      345.713       23.441      857.294
09/14/2013  22:48:00      -33.463     -117.179       12.713       51.485       43.578       26.056     2650.677     1899.062      678.906        1.012        0.261      121.864       20.513        0.028      345.693       23.405      857.317
09/14/2013  22:49:00      -28.950      -89.428       -3.967       39.394       38.077       19.758     1551.887     1449.857      390.382        0.612        0.170       93.997       11.422        0.015      345.673       23.371      857.325
09/14/2013  22:50:00       -0.631      -59.083       11.106       23.453       42.916       23.291      550.031     1841.820      542.452        0.327        0.147       59.087       12.212        0.043      345.579       23.208      857.334
09/14/2013  22:51:00      -24.679     -120.138        3.951       29.318       27.182       24.080      859.520      738.853      579.852        0.862        0.109      122.647       22.897        0.035      345.670       23.365      857.348
09/14/2013  22:52:00       33.108      -65.861        6.704       22.428       21.963       19.319      503.004      482.361      373.210        0.342        0.068       73.715       13.221        0.032      345.533       23.132      857.345
09/14/2013  22:53:00       58.924      -26.693        4.677       34.245       23.901       24.431     1172.722      571.235      596.858        0.327        0.117       64.688       17.049        0.069      344.843       21.950      857.334
09/14/2013  22:54:00        0.069      -21.019       -5.498       21.202       21.702       17.089      449.512      470.978      292.036        0.084        0.061       21.019       11.395        0.294      344.714       21.729      857.338
09/14/2013  22:55:00      -13.655      -24.294        8.852       39.137       26.084       23.415     1531.716      680.381      548.239        0.181        0.138       27.869       19.607        0.495      344.906       22.056      857.350
09/14/2013  22:56:00        6.661       -8.107        3.053       33.107       20.650       15.610     1096.072      426.427      243.678        0.094        0.088       10.493       15.291        2.124      344.956       22.143      857.344
09/14/2013  22:57:00       28.139      -14.128       -1.689       16.690       16.518       19.893      278.545      272.839      395.717        0.097        0.047       31.486       12.295        0.152      344.574       21.489      857.327
09/14/2013  22:58:00        1.015       -5.646        7.722       22.980       12.012       15.967      528.100      144.299      254.942        0.051        0.046        5.737       15.227        7.046      344.676       21.663      857.316
09/14/2013  22:59:00      -52.282       -4.102       -1.109       13.156       10.390        6.366      173.086      107.947       40.528        0.154        0.016       52.442        6.541        0.016      345.188       22.539      857.323
09/14/2013  23:00:00      -44.187      -10.086       -2.160       23.214       12.681        9.108      538.875      160.801       82.947        0.142        0.039       45.323       12.141        0.072      345.228       22.606      857.310
09/14/2013  23:01:00      -69.773       22.814      -10.533       19.746       30.553       12.229      389.920      933.461      149.557        0.349        0.074       73.408        7.011        0.009      345.293       22.718      857.296
09/14/2013  23:02:00      -51.600       31.084      -14.002       14.439       31.457       12.462      208.477      989.529      155.303        0.259        0.068       60.240       11.337        0.035      345.213       22.582      857.291
09/14/2013  23:03:00      -50.847        0.963       -4.207       26.821       21.675       14.859      719.373      469.790      220.776        0.201        0.070       50.856       13.475        0.070      345.141       22.460      857.275
09/14/2013  23:04:00      -36.916       18.006       -3.406       13.482       17.662        8.620      181.768      311.957       74.305        0.113        0.028       41.073        6.242        0.023      345.203       22.565      857.265
09/14/2013  23:05:00      -42.263        6.539      -10.515       19.127       11.362        8.741      365.828      129.098       76.411        0.126        0.029       42.766        7.134        0.028      345.079       22.355      857.260
09/14/2013  23:06:00      -58.924      -13.527       -3.897       29.569       16.685       10.164      874.337      278.384      103.311        0.246        0.063       60.456        6.393        0.011      345.059       22.318      857.255
09/14/2013  23:07:00      -79.053      -11.746       -4.026       21.864       14.517       10.576      478.032      210.733      111.856        0.360        0.040       79.921        9.522        0.014      345.068       22.334      857.237
09/14/2013  23:08:00      -79.259      -13.819       -3.185       30.164       15.277        9.718      909.853      233.395       94.435        0.386        0.062       80.454       12.212        0.023      345.098       22.387      857.227
09/14/2013  23:09:00      -79.928        1.404       -5.848       43.949       21.335       19.314     1931.558      455.176      373.022        0.459        0.138       79.940       24.222        0.092      345.016       22.245      857.232
09/14/2013  23:10:00     -160.292      -21.314      -14.964       34.374       27.903       17.570     1181.539      778.561      308.702        1.432        0.113      161.703       14.466        0.008      344.936       22.108      857.227
09/14/2013  23:11:00     -107.223      -35.711        0.879       49.635       40.584       22.536     2463.645     1647.088      507.881        0.869        0.231      113.014       19.558        0.030      344.990       22.201      857.215
09/14/2013  23:12:00     -108.236      -23.885        1.464       50.636       35.183       23.583     2563.955     1237.855      556.171        0.832        0.218      110.840       25.261        0.052      345.240       22.628      857.197
09/14/2013  23:13:00      -81.299      -12.163       -8.740       30.026       39.719       18.094      901.550     1577.578      327.381        0.482        0.140       82.204       12.959        0.025      345.227       22.606      857.203
09/14/2013  23:14:00     -114.821       48.492      -15.704       29.618       38.120       20.329      877.239     1453.144      413.271        0.926        0.137      124.641       15.897        0.016      345.103       22.395      857.212
09/14/2013  23:15:00      -95.220       -6.518      -12.097       25.134       19.321       20.570      631.729      373.309      423.108        0.534        0.071       95.443       11.395        0.014      345.113       22.412      857.205
09/14/2013  23:16:00      -87.325       20.173       -8.146       38.256       27.600       20.122     1463.559      761.737      404.884        0.536        0.132       89.625       16.280        0.033      344.959       22.147      857.216
09/14/2013  23:17:00      -97.586       -9.484       -7.162       32.912       64.557       21.490     1083.174     4167.616      461.807        0.769        0.286       98.046       20.926        0.046      344.956       22.144      857.218
09/14/2013  23:18:00      -97.277      -38.138        4.451       33.576       39.343       26.654     1127.334     1547.910      710.416        0.716        0.169      104.486       21.864        0.044      344.907       22.059      857.222
09/14/2013  23:19:00     -112.343      -41.013      -16.793       46.645       40.684       24.574     2175.772     1655.157      603.882        0.951        0.222      119.595       13.308        0.012      344.945       22.125      857.232
09/14/2013  23:20:00     -100.849       -0.766       -7.610       40.241       30.349       25.844     1619.364      921.083      667.920        0.672        0.160      100.852       19.706        0.038      344.948       22.129      857.228
09/14/2013  23:21:00      -81.445      -19.314       -9.026       27.121       22.485       12.881      735.554      505.589      165.924        0.425        0.070       83.704        7.533        0.008      344.954       22.137      857.227
09/14/2013  23:22:00      -82.858       -8.172       -2.390       21.749       25.402       15.902      473.010      645.262      252.870        0.415        0.069       83.260        8.785        0.011      344.944       22.121      857.228
09/14/2013  23:23:00      -92.879      -11.015       -7.773       32.078       19.371       16.079     1029.010      375.221      258.522        0.524        0.083       93.530       12.185        0.017      344.915       22.073      857.237
09/14/2013  23:24:00      -60.176      -30.293       -3.745       21.908       12.925       13.502      479.939      167.064      182.317        0.269        0.041       67.371       10.080        0.022      344.955       22.141      857.237
09/14/2013  23:25:00     -102.565      -48.507       -5.773       34.434       20.695       17.701     1185.711      428.269      313.313        0.742        0.096      113.457       19.478        0.029      344.900       22.047      857.240
09/14/2013  23:26:00      -61.504      -31.537       -2.296       22.886       26.266       13.157      523.754      689.880      173.100        0.308        0.069       69.118       12.548        0.033      344.865       21.988      857.241
09/14/2013  23:27:00      -60.480      -15.725       -8.252        9.949       10.212        7.154       98.988      104.280       51.178        0.211        0.013       62.491        2.698        0.002      344.972       22.172      857.243
09/14/2013  23:28:00      -63.777       -8.624       -2.573       10.078       12.730        6.518      101.567      162.041       42.485        0.223        0.015       64.357        6.976        0.012      345.098       22.387      857.232
09/14/2013  23:29:00      -72.833      -38.686       -3.214       29.884       18.376       11.940      893.031      337.663      142.558        0.409        0.069       82.470       10.515        0.016      345.072       22.343      857.224
09/14/2013  23:30:00      -63.415      -15.386        4.784       25.835       26.933       12.524      667.443      725.390      156.859        0.292        0.077       65.254        5.010        0.006      344.993       22.205      857.229
09/14/2013  23:31:00      -50.376      -20.352       -5.561       21.025       14.230       10.513      442.064      202.485      110.514        0.187        0.038       54.331        8.284        0.023      344.929       22.098      857.238
09/14/2013  23:32:00      -39.832      -13.651       -1.310       17.856       14.945        6.613      318.848      223.349       43.738        0.118        0.029       42.106        7.489        0.032      344.945       22.123      857.233
09/14/2013  23:33:00      -50.381      -24.572       -3.445       16.074       13.170        6.424      258.380      173.446       41.262        0.181        0.024       56.054        3.428        0.004      345.092       22.377      857.226
09/14/2013  23:34:00      -71.567      -21.435       -2.255       10.792       11.182        8.240      116.465      125.029       67.893        0.295        0.015       74.708        7.673        0.011      345.062       22.326      857.231
09/14/2013  23:35:00      -52.885      -24.220       -0.251       10.678       10.394        6.836      114.026      108.026       46.732        0.183        0.013       58.167        4.849        0.007      344.988       22.195      857.239
09/14/2013  23:36:00      -58.107      -16.641       -0.473        8.736        9.575        4.917       76.322       91.685       24.179        0.192        0.010       60.443        4.596        0.006      344.987       22.196      857.231
09/14/2013  23:37:00      -65.138       -7.565       -3.867       11.915       10.459        9.211      141.975      109.392       84.847        0.233        0.017       65.576        7.460        0.013      344.925       22.091      857.220
09/14/2013  23:38:00      -85.528      -22.383       -9.876       11.207       12.194        7.514      125.590      148.689       56.464        0.412        0.017       88.408        3.198        0.001      344.890       22.033      857.212
09/14/2013  23:39:00     -114.017      -57.034       -4.351       13.203       14.044        6.531      174.310      197.229       42.660        0.834        0.021      127.486        4.845        0.001      344.862       21.985      857.207
09/14/2013  23:40:00     -134.579      -65.426       -1.746       20.192       23.330       11.586      407.711      544.289      134.237        1.174        0.054      149.639       13.477        0.008      344.963       22.156      857.192
09/14/2013  23:41:00     -124.182      -34.503       -8.812       11.906       15.916        9.024      141.746      253.307       81.435        0.858        0.024      128.886        4.427        0.001      344.884       22.020      857.177
09/14/2013  23:42:00     -115.780      -14.959       -4.753       27.637       26.721       18.072      763.777      714.035      326.579        0.773        0.090      116.742       16.438        0.020      344.714       21.729      857.166
09/14/2013  23:43:00     -110.636      -33.627       -5.994       33.492       23.134       15.763     1121.725      535.179      248.486        0.766        0.095      115.633       17.619        0.023      344.699       21.703      857.160
09/14/2013  23:44:00     -105.483      -34.632       -8.476       30.405       25.580       16.298      924.477      654.317      265.635        0.712        0.092      111.022       11.006        0.010      344.653       21.623      857.149
09/14/2013  23:45:00     -150.614      -63.346       -8.172       23.627       26.234       16.589      558.253      688.214      275.209        1.414        0.076      163.393       10.504        0.004      344.647       21.615      857.144
09/14/2013  23:46:00     -142.355      -60.644      -12.843       24.507       24.976       17.088      600.573      623.806      292.013        1.281        0.076      154.734       10.149        0.004      344.649       21.618      857.143
09/14/2013  23:47:00     -117.968      -29.093       -6.326       34.738       23.722       15.601     1206.711      562.713      243.394        0.841        0.101      121.502       11.024        0.008      344.653       21.625      857.148
09/14/2013  23:48:00     -113.057      -34.157       -4.663       28.657       19.390       15.247      821.216      375.973      232.486        0.770        0.071      118.104       16.030        0.018      344.661       21.638      857.160
09/14/2013  23:49:00     -129.063      -39.442       -4.414       17.486       16.831       11.421      305.762      283.284      130.444        0.948        0.036      134.956        8.981        0.004      344.651       21.622      857.182
09/14/2013  23:50:00      -67.665       -7.674        1.811       29.278       19.481       13.816      857.198      379.519      190.894        0.303        0.071       68.099       11.859        0.030      344.618       21.566      857.196
09/14/2013  23:51:00      -88.749      -34.538       -1.939       24.114       16.635       11.413      581.472      276.736      130.259        0.503        0.049       95.233       11.318        0.014      344.669       21.652      857.206
09/14/2013  23:52:00      -97.736      -46.950        1.786       22.934       22.211       13.835      525.949      493.345      191.408        0.649        0.061      108.428        7.092        0.004      344.757       21.803      857.210
09/14/2013  23:53:00      -54.669       -7.439        5.094       28.221       27.868       17.031      796.425      776.620      290.047        0.247        0.093       55.172       13.719        0.062      344.725       21.747      857.226
09/14/2013  23:54:00      -26.584      -15.138        4.324       17.025       18.829       10.560      289.857      354.541      111.509        0.086        0.038       30.592       10.954        0.128      344.717       21.733      857.231
09/14/2013  23:55:00      -75.127      -30.299        1.570       45.112       19.825       13.441     2035.049      393.013      180.667        0.459        0.130       81.006       17.113        0.045      344.736       21.765      857.244
09/14/2013  23:56:00     -104.145      -44.488       -5.034       32.046       27.406       20.461     1026.970      751.073      418.645        0.752        0.110      113.249       12.228        0.012      344.667       21.649      857.254
09/14/2013  23:57:00      -50.676      -36.326        1.291       20.248       15.382       14.957      409.975      236.621      223.712        0.238        0.044       62.351        9.046        0.021      344.675       21.662      857.263
09/14/2013  23:58:00      -57.273      -25.088        5.897       28.848       25.574       17.691      832.207      654.006      312.955        0.287        0.090       62.527       17.223        0.076      344.688       21.684      857.273
09/14/2013  23:59:00      -19.304      -22.016        3.926       38.471       21.868       13.997     1479.987      478.211      195.905        0.151        0.108       29.281       19.510        0.444      344.660       21.637      857.264
